GFSMA_700_spd_000.txt.gz
Wind_Speed
14 15 15 15 15 15 17 18 20 21 21 21 22 23 24 24 22 20 20 20 21 22 24 25 25 25 26 28 29 30 31 33 32 33 34 35 36 36 36 34 34 34 36
17 18 18 17 17 18 19 21 21 22 22 23 24 23 20 18 19 19 20 21 22 23 25 26 26 26 28 28 29 30 31 32 34 38 39 40 39 39 40 39 39 38 37
19 19 19 19 20 21 21 22 23 23 23 23 19 18 20 20 20 21 22 24 25 25 26 27 27 28 28 29 30 30 31 31 35 38 41 42 42 43 45 44 45 46 46
21 20 20 21 21 22 23 23 25 26 24 19 19 20 20 21 22 24 25 25 26 26 27 27 28 29 30 31 32 32 34 33 33 35 39 40 42 44 46 48 50 50 50
20 19 21 21 22 23 25 27 27 24 19 20 20 21 22 23 25 26 26 27 27 27 28 30 30 31 31 31 32 33 35 35 37 39 39 39 39 41 42 44 46 48 49
17 20 20 21 23 26 28 28 25 23 21 21 21 22 24 25 27 28 29 28 28 28 31 31 33 34 34 35 36 37 39 40 42 45 44 45 47 48 48 48 49 51 52
17 17 19 22 26 27 26 25 24 23 23 23 24 24 26 28 30 31 30 29 30 32 32 35 35 36 37 38 39 42 44 45 47 49 49 50 52 53 54 53 55 56 56
14 17 21 25 26 26 25 25 25 24 25 26 27 29 30 30 30 31 31 32 32 33 33 35 36 37 40 42 44 47 49 50 52 54 54 56 57 58 59 59 59 60 62
15 19 22 24 25 26 26 25 25 26 27 29 32 35 38 41 43 38 34 31 33 33 34 35 38 41 43 46 49 51 53 54 56 56 57 59 61 62 62 61 60 60 62
16 20 22 23 25 26 27 27 27 28 31 33 35 38 41 44 47 49 44 37 36 37 39 40 43 46 48 51 53 54 55 55 55 56 59 60 62 64 63 62 61 60 62
16 20 23 26 28 29 29 29 30 32 34 37 40 41 42 42 42 46 49 44 40 41 45 49 52 55 55 56 57 58 59 58 57 58 59 60 62 63 63 63 65 65 64
18 21 25 28 30 31 32 32 33 34 37 39 42 44 44 45 44 46 50 52 55 54 55 55 56 58 59 60 59 60 60 60 61 61 61 61 61 63 64 66 67 67 67
19 23 27 31 33 34 35 35 35 37 40 41 42 42 43 44 45 47 51 55 60 62 64 66 64 63 63 63 61 59 58 57 58 59 59 60 61 63 65 65 65 65 66
22 26 30 33 35 37 38 38 38 40 42 43 43 44 43 45 46 50 54 59 64 65 67 70 69 69 68 68 67 65 64 60 58 58 58 59 60 61 61 61 62 63 64
24 28 32 36 38 39 41 40 41 42 43 44 45 44 45 47 49 52 54 55 59 69 73 73 72 72 70 69 68 68 66 63 62 59 58 58 58 59 59 60 61 62 63
26 31 35 39 41 42 43 42 43 45 44 44 44 45 47 50 52 53 54 54 55 60 71 70 71 71 70 68 64 61 58 56 54 52 47 48 51 54 56 57 57 58 58
30 34 38 41 43 45 45 45 45 45 44 44 45 47 49 52 53 55 56 57 59 62 68 68 67 65 63 61 58 56 54 52 46 41 47 48 50 51 51 49 49 49 48
33 38 40 43 45 45 46 46 45 44 44 45 47 50 51 53 54 55 58 60 62 63 64 67 64 61 57 53 51 49 47 48 51 52 51 48 45 42 40 39 39 40 41
37 40 43 45 45 45 46 46 45 44 45 47 50 51 53 54 55 57 60 62 61 61 59 59 59 53 51 48 48 49 52 52 51 48 44 40 36 36 36 38 41 43 45
40 42 45 45 45 45 46 45 44 44 46 49 50 51 52 54 57 59 61 60 58 57 54 51 49 50 51 50 51 53 53 47 43 41 37 35 34 31 33 34 38 39 41
42 44 45 45 46 45 44 44 45 47 48 50 50 52 54 56 58 59 58 56 54 51 48 47 48 51 51 48 47 45 45 44 38 36 37 33 34 33 31 31 32 34 36
43 44 44 44 44 43 43 44 46 49 49 50 52 53 55 57 58 56 53 50 46 43 44 46 48 46 44 43 42 43 42 41 42 40 41 35 36 33 31 30 29 29 31
43 43 44 44 42 43 43 45 47 49 50 52 52 54 56 57 55 52 48 44 43 41 40 43 43 39 40 40 40 38 39 41 41 40 43 42 36 33 30 28 28 28 30
41 42 42 42 42 43 45 46 48 50 52 52 53 55 57 55 50 48 45 42 43 40 37 35 33 35 35 34 36 39 41 42 40 39 42 45 38 38 35 31 27 25 27
40 40 40 40 42 43 46 48 50 52 52 53 54 54 54 49 45 44 42 44 42 35 31 31 28 26 29 31 35 39 38 41 42 40 37 44 41 43 39 30 24 22 27
38 38 38 41 43 45 47 49 51 53 54 56 57 53 47 42 41 41 42 42 37 34 31 24 24 24 27 29 30 33 37 39 41 43 38 44 42 44 42 30 21 18 21

GFSMA_700_spd_003.txt.gz
Wind_Speed
16 16 16 16 15 16 16 17 19 20 20 21 22 23 22 19 16 16 16 17 18 20 21 22 23 23 24 25 26 28 27 28 30 32 34 35 35 36 36 36 36 36 35
18 18 19 17 18 18 17 19 20 21 21 21 23 21 16 15 16 16 16 17 19 21 23 23 24 25 25 25 26 27 27 27 30 32 35 36 37 39 39 40 39 39 39
20 19 19 19 19 19 20 21 21 22 22 20 19 16 17 17 16 18 19 20 22 23 25 25 26 26 26 28 29 29 29 28 29 31 33 34 36 39 42 43 44 44 43
21 20 20 20 19 20 21 21 23 23 21 17 18 18 18 18 18 20 22 24 25 27 28 29 28 29 30 30 30 31 32 31 30 32 33 34 34 36 38 41 42 44 46
21 19 18 18 19 21 23 25 24 22 19 18 18 18 18 19 21 23 25 27 29 29 30 31 32 34 33 33 34 34 35 34 35 37 39 39 39 41 42 43 43 44 44
19 17 17 17 18 22 25 25 24 21 19 18 18 18 20 21 23 25 27 28 29 30 32 33 34 34 35 35 35 36 37 38 39 41 44 43 44 46 48 49 49 50 50
16 15 15 16 20 23 24 24 23 22 21 20 19 20 21 22 24 25 27 30 30 31 32 34 35 35 36 36 37 38 40 41 43 45 48 49 51 52 54 56 56 56 56
15 13 14 17 21 23 24 25 25 24 23 22 23 24 24 25 25 27 28 29 31 31 33 33 34 35 37 39 41 44 46 47 49 51 54 55 57 59 61 62 62 62 62
13 12 14 17 21 24 26 27 26 25 25 25 26 28 31 33 35 33 31 29 29 29 30 33 35 37 40 43 46 49 51 52 53 54 56 58 60 62 63 65 66 67 67
11 12 14 18 22 26 28 29 28 27 27 27 28 30 33 36 40 44 42 40 40 36 36 38 40 43 45 48 49 50 52 54 55 56 57 59 61 62 64 66 68 69 69
11 12 16 19 23 27 29 30 30 29 29 29 31 33 35 38 41 44 47 43 40 39 40 43 46 48 50 53 55 57 59 61 60 58 57 57 58 60 62 63 66 67 67
11 13 17 20 24 28 31 32 32 32 31 32 35 37 39 41 43 46 49 48 49 48 47 48 48 51 54 57 60 61 62 63 63 63 64 65 64 62 62 63 63 63 62
13 16 19 22 26 30 33 35 35 35 35 36 37 39 41 42 43 44 46 49 53 54 57 59 59 59 61 61 63 63 63 61 61 62 63 65 65 65 65 65 65 62 56
15 18 20 24 29 32 35 37 38 38 38 39 40 41 42 43 43 46 48 52 56 57 60 64 62 62 64 65 65 65 65 64 62 59 57 57 60 62 64 65 63 59 64
17 19 23 27 31 35 38 40 40 40 40 41 42 43 43 44 45 47 49 50 54 63 65 64 63 64 64 64 64 63 61 58 55 53 52 52 51 51 51 52 56 59 60
19 22 26 31 34 37 40 42 42 42 42 43 44 43 44 46 47 48 50 51 52 54 64 60 62 62 63 63 60 57 52 49 47 46 46 45 43 46 48 51 50 50 50
22 26 30 34 37 40 42 43 44 43 44 44 44 44 45 47 47 49 50 51 52 53 61 64 61 59 58 57 54 50 47 47 46 42 39 39 39 39 39 40 42 43 45
25 29 33 37 40 43 44 45 45 45 44 43 43 44 45 47 48 49 49 50 53 54 59 63 60 56 53 51 48 45 43 42 40 37 35 35 34 34 34 34 35 35 36
29 33 37 39 42 44 46 46 45 44 43 44 45 46 47 48 49 49 50 52 54 57 56 58 56 50 49 47 44 42 41 38 38 36 34 31 33 32 32 33 35 36 38
33 36 39 41 44 45 45 45 45 43 43 44 45 47 48 49 50 51 53 55 57 56 53 50 48 48 47 43 41 41 41 36 35 33 32 33 32 31 31 32 33 35 37
36 38 39 43 44 44 44 44 44 44 44 45 46 48 50 49 51 53 55 55 53 50 47 44 47 48 41 39 39 41 40 36 35 37 34 31 31 33 30 30 32 33 34
36 38 41 43 43 43 43 43 44 45 47 48 49 49 49 50 52 54 53 49 44 42 40 44 47 41 38 39 39 37 39 40 36 34 40 36 35 35 33 32 32 35 35
36 40 41 41 42 42 42 42 45 47 47 49 50 51 52 54 54 52 46 40 39 37 37 41 38 34 38 35 35 37 37 39 39 36 40 42 37 37 35 33 32 33 35
38 39 40 40 40 41 41 44 46 47 48 49 51 52 54 54 49 43 39 39 37 35 33 31 31 31 31 33 35 39 41 43 40 34 36 42 38 37 31 22 22 27 30
36 38 38 38 38 40 43 45 47 48 50 51 52 52 51 45 39 36 38 38 36 31 29 28 25 25 27 30 35 40 40 41 36 31 33 42 37 33 23 17 18 21 21
35 35 36 37 40 41 44 46 48 50 52 53 52 47 39 35 34 34 36 37 33 30 26 22 24 24 27 30 33 35 34 35 36 35 34 39 33 30 22 24 27 27 25

GFSMA_700_spd_006.txt.gz
Wind_Speed
19 19 17 16 16 17 17 19 19 20 22 23 23 23 22 19 15 15 16 16 16 17 18 19 20 21 22 24 25 25 25 25 27 28 29 30 33 35 37 38 37 37 35
21 21 19 18 18 18 18 19 20 21 23 24 24 23 18 14 15 15 15 16 18 19 20 21 22 23 25 26 26 26 27 27 28 29 30 29 31 33 35 38 39 39 40
22 22 20 20 19 19 19 20 21 22 25 25 22 18 15 15 15 16 17 19 21 22 23 25 26 27 28 29 30 30 31 32 31 31 31 32 31 32 34 35 37 40 42
24 23 20 19 19 19 19 19 22 24 24 22 19 17 16 16 16 18 20 22 24 26 27 29 29 30 31 33 34 35 35 35 35 34 34 35 35 35 34 36 37 38 38
24 22 20 18 17 18 19 21 22 22 21 21 18 17 16 17 18 20 22 24 26 28 29 31 33 34 35 36 37 37 38 38 38 38 38 40 40 39 40 41 42 43 43
22 20 18 16 16 17 20 21 21 21 21 20 19 17 17 18 20 22 23 25 27 30 32 33 34 36 37 38 38 38 38 38 39 39 41 42 43 43 44 46 47 48 48
21 18 15 15 14 17 19 21 23 22 22 21 20 20 20 20 22 23 24 28 29 31 34 35 36 37 38 38 38 38 38 39 41 42 44 46 48 50 51 53 55 57 58
19 17 14 13 14 16 19 22 24 25 23 22 21 20 21 23 24 25 27 28 31 32 33 36 37 39 40 41 41 42 44 45 46 48 49 52 54 55 57 59 60 61 63
18 16 13 13 13 16 19 22 23 24 24 23 23 24 27 28 28 28 30 32 33 33 33 33 34 37 40 42 44 46 47 48 49 50 51 54 56 59 61 63 64 66 68
18 15 13 12 13 16 19 21 23 24 24 24 24 25 28 31 34 37 37 39 40 38 36 36 36 38 40 43 45 47 49 51 54 55 57 58 60 61 63 65 67 69 69
18 15 12 12 14 18 20 22 25 27 28 28 28 28 31 33 36 39 41 41 44 43 44 43 42 43 46 48 52 54 57 58 60 61 62 62 63 64 64 65 65 66 68
18 15 13 14 16 19 22 25 28 30 32 32 32 33 34 36 39 42 46 46 47 45 46 45 46 47 50 53 56 57 59 61 63 64 65 65 66 67 68 67 65 66 64
17 15 15 16 18 21 25 28 31 34 35 36 36 36 37 39 41 44 46 47 48 47 50 52 54 56 56 57 58 60 61 61 62 62 61 60 61 63 64 66 66 67 66
17 17 17 18 20 24 28 31 35 37 39 39 39 39 41 42 43 43 45 47 50 51 54 59 58 58 60 61 62 62 63 63 62 61 58 55 53 53 54 57 60 61 61
18 18 18 20 24 27 31 34 38 41 42 42 42 42 44 44 43 44 45 48 52 58 61 61 60 60 60 61 61 62 60 58 55 53 52 50 49 48 48 49 50 53 54
19 19 20 23 27 31 35 37 41 43 44 44 44 45 45 44 44 46 48 50 53 57 63 60 60 60 60 60 59 57 55 52 51 48 46 42 41 41 41 43 43 44 44
20 21 23 27 31 35 38 40 43 45 45 45 46 45 44 45 46 48 51 53 55 56 61 62 60 59 59 57 55 51 50 50 47 40 36 37 37 38 39 39 39 40 42
21 23 26 31 35 38 40 42 46 45 46 46 45 45 45 46 47 50 52 53 54 55 59 64 60 57 54 51 49 49 49 45 39 38 36 34 34 37 40 41 40 40 40
23 26 30 35 38 40 41 45 46 46 46 45 44 44 46 48 49 51 52 53 54 56 57 58 58 51 48 47 48 48 44 40 40 39 34 37 36 37 38 38 39 40 42
25 28 34 37 39 40 43 46 46 46 44 43 44 46 48 49 50 51 52 54 55 56 53 50 47 47 48 46 46 44 43 38 36 37 35 38 35 35 37 36 38 40 42
28 34 36 38 39 42 44 46 46 44 43 44 45 47 49 50 50 51 52 53 52 49 44 43 45 47 47 43 41 42 41 36 33 40 37 37 34 32 34 35 36 38 41
32 34 35 37 40 43 44 44 42 43 44 46 47 47 49 50 51 51 50 46 43 39 40 42 45 46 40 40 39 36 38 38 38 35 39 32 33 32 33 32 33 37 40
32 34 36 39 41 43 42 41 41 43 45 47 47 49 50 51 50 47 43 39 37 37 38 40 41 36 38 34 35 35 36 41 43 36 37 33 31 33 29 22 25 25 26
32 35 38 39 41 39 39 40 42 45 46 46 48 48 48 47 43 40 38 38 39 37 35 34 34 31 31 33 34 37 40 43 40 34 35 36 33 29 16 17 17 19 22
33 36 38 38 37 37 39 42 44 45 46 48 47 44 43 43 40 37 38 39 38 33 31 30 28 28 28 29 33 38 39 40 37 32 28 36 31 27 12 7 11 15 21
34 35 36 35 36 38 40 42 44 46 47 46 44 43 41 38 35 35 36 37 36 32 30 26 27 27 28 29 32 33 33 36 37 34 30 36 32 30 14 8 13 19 22

GFSMA_700_spd_009.txt.gz
Wind_Speed
16 17 18 18 18 19 19 19 20 21 21 22 23 24 25 24 22 18 16 16 15 15 16 18 18 19 21 22 22 23 24 23 23 24 25 25 27 29 31 33 35 36 36
18 19 19 20 20 21 21 20 20 21 23 23 24 25 24 21 18 17 18 16 16 17 18 20 21 22 24 26 26 26 27 28 28 28 29 29 29 30 31 32 34 35 36
20 21 21 21 21 21 21 21 21 22 23 25 24 23 20 18 17 17 17 17 17 19 21 22 24 26 27 28 29 30 31 32 33 32 33 34 35 34 33 33 33 34 35
22 22 23 23 22 22 20 20 21 23 24 23 21 19 18 17 17 18 18 19 20 22 23 25 27 28 31 32 34 34 34 35 36 36 36 36 37 39 38 36 36 36 36
24 25 24 23 21 20 19 19 20 22 22 21 20 18 18 18 18 19 20 21 23 25 26 28 30 31 33 35 36 36 37 37 38 38 39 38 38 39 41 40 40 40 41
29 26 24 22 20 17 17 18 19 20 21 21 21 19 19 19 20 21 23 24 25 28 29 30 32 34 35 36 37 38 39 38 38 38 38 39 40 41 43 42 43 44 45
27 26 22 20 18 16 16 16 18 20 21 22 22 22 22 22 23 24 25 26 29 30 32 33 35 37 38 39 39 40 40 41 41 41 41 42 44 45 47 49 49 50 51
29 25 20 18 16 15 14 15 18 19 20 22 22 21 22 25 24 26 27 29 30 32 35 36 38 40 41 42 42 43 43 43 44 45 47 48 49 51 52 53 55 56 58
28 23 20 18 16 14 13 14 17 19 21 22 23 23 25 25 26 27 29 31 33 34 37 38 38 39 40 41 42 42 43 44 45 48 49 51 53 55 57 58 60 62 64
23 24 22 19 16 13 13 15 17 19 22 25 26 26 27 29 31 32 32 34 36 37 38 38 36 36 37 39 40 43 45 46 49 51 53 56 57 59 60 62 64 66 67
27 29 22 20 16 14 14 16 19 21 24 27 29 30 31 32 34 35 35 36 40 41 44 45 44 42 43 46 48 51 53 54 55 57 57 59 60 60 63 64 66 67 69
27 27 23 20 17 16 17 19 22 25 28 30 33 34 35 35 36 39 42 41 42 41 43 44 44 46 48 50 52 54 55 57 60 62 64 65 66 67 67 67 66 65 66
28 25 23 20 18 18 19 22 25 29 32 35 37 39 39 38 39 41 44 44 45 42 43 45 48 52 53 55 56 58 60 63 65 65 64 63 62 62 62 63 61 61 60
25 25 23 20 20 20 22 25 29 33 36 38 41 41 41 41 42 43 43 45 46 46 48 50 51 54 56 59 61 62 65 65 64 62 59 56 56 55 55 54 53 55 56
26 25 22 21 21 23 25 29 33 37 39 41 44 44 43 43 43 42 42 44 48 53 55 54 56 57 59 60 61 62 63 62 58 53 51 49 47 47 46 46 44 44 45
25 23 22 22 23 25 29 33 37 40 42 44 47 45 45 44 43 43 45 47 50 53 59 57 58 58 59 60 60 60 57 52 48 46 46 45 43 41 41 42 41 40 41
24 23 23 24 25 28 32 36 40 43 43 47 47 46 45 44 43 45 48 50 52 54 59 59 59 59 58 57 55 51 45 45 46 43 39 39 38 40 39 38 40 43 43
24 24 24 25 28 32 36 40 43 43 45 47 47 46 44 44 46 48 50 52 53 55 58 61 60 58 54 49 47 46 46 47 44 39 39 36 32 35 38 40 41 41 42
25 25 26 27 30 34 40 42 42 44 47 46 46 44 44 47 48 50 51 53 54 56 56 58 56 50 46 45 46 46 46 42 40 38 32 32 33 35 38 40 38 39 40
25 25 26 30 33 39 42 42 43 45 45 45 44 44 46 48 49 50 52 53 54 54 52 49 47 45 47 46 45 45 43 40 34 34 30 35 38 35 32 31 34 37 40
25 25 29 32 38 41 40 42 45 45 45 44 44 46 48 50 51 51 51 51 50 48 45 42 45 47 46 44 42 41 40 36 32 37 37 36 36 30 28 28 33 36 33
25 28 31 36 40 39 41 43 43 43 43 44 45 46 48 49 50 50 49 46 45 42 41 43 45 45 42 39 40 37 39 40 38 33 41 34 32 27 26 29 28 26 20
27 30 35 38 38 40 41 42 41 41 43 45 46 47 48 47 47 47 45 42 40 39 40 42 43 41 39 36 38 38 37 39 40 36 36 33 29 26 27 24 23 21 17
29 34 35 36 39 40 39 40 40 42 44 46 47 47 46 45 44 43 42 41 40 39 38 38 37 36 34 35 36 37 38 40 37 32 35 35 30 29 26 18 19 17 18
32 32 34 37 38 39 37 39 41 43 45 46 46 44 44 44 43 42 41 40 39 36 34 32 32 33 32 31 33 37 36 38 37 31 31 37 32 31 29 16 19 18 23
30 33 35 36 35 36 38 39 42 44 46 45 42 43 43 43 42 38 38 37 37 34 32 29 28 28 30 30 31 32 32 34 38 37 32 38 37 38 34 18 14 20 26

GFSMA_700_spd_012.txt.gz
Wind_Speed
17 15 13 15 16 19 20 21 22 22 21 22 23 22 23 23 25 24 18 17 15 15 14 15 15 16 17 18 19 21 22 21 21 23 24 24 24 25 26 27 29 31 33
20 18 17 16 17 19 21 23 23 22 23 23 23 24 24 24 23 23 17 17 17 16 16 16 18 19 20 21 22 23 24 25 25 26 27 28 29 29 29 30 30 31 33
19 19 19 19 18 20 21 23 23 23 23 23 24 24 22 22 20 20 19 17 18 18 18 19 19 21 22 24 25 26 27 28 29 30 30 31 32 32 32 33 33 34 35
19 20 21 21 21 22 21 22 22 22 22 22 22 21 20 19 19 19 19 19 19 19 20 22 22 23 25 27 28 29 30 31 32 33 33 34 34 35 35 36 36 37 38
22 22 22 22 23 23 22 21 20 21 21 21 21 20 19 19 19 20 20 21 21 23 24 24 26 27 28 30 31 32 34 34 35 35 36 36 37 37 37 38 40 39 39
24 25 27 25 26 23 21 20 19 19 20 19 20 19 19 19 20 21 22 25 25 25 26 28 29 31 32 33 34 35 37 37 38 38 39 39 38 39 39 40 42 43 41
27 28 28 26 26 23 20 18 17 17 17 17 19 20 19 21 22 23 24 27 29 29 30 30 32 35 35 36 38 40 40 39 38 40 40 41 42 43 43 44 45 47 48
30 29 28 25 24 22 20 17 16 14 15 16 18 19 21 21 20 24 26 27 30 31 33 34 35 37 39 40 40 41 41 40 40 41 43 44 45 46 47 48 49 51 52
29 27 27 25 23 21 19 16 15 14 14 16 19 21 24 25 26 26 28 29 31 32 34 35 37 38 40 40 40 39 40 40 40 43 45 47 48 50 52 53 55 56 58
26 27 27 25 20 21 19 16 14 15 16 19 21 24 27 29 30 30 30 31 32 34 36 37 36 36 37 37 37 38 40 42 44 46 48 50 52 53 55 56 58 60 61
27 28 27 24 23 22 19 17 16 17 19 22 25 28 31 33 35 35 33 32 33 35 38 39 39 39 39 40 41 42 45 46 48 50 52 54 55 57 58 60 62 64 66
28 28 26 29 27 23 20 19 18 19 22 26 29 32 35 37 39 40 41 38 39 36 38 38 38 40 44 46 49 51 53 55 56 59 61 62 64 65 65 66 65 64 64
28 31 25 30 26 24 22 21 21 22 25 29 32 36 38 40 42 41 42 43 43 38 37 36 41 45 48 50 52 53 56 59 62 62 63 63 63 62 61 59 58 56 56
30 26 29 29 26 25 23 23 23 25 28 32 36 39 41 42 43 43 44 46 45 42 41 42 43 47 50 52 55 58 61 63 63 61 60 57 55 52 53 53 52 52 50
29 26 30 27 26 25 25 24 25 28 32 37 40 42 43 45 44 44 43 42 45 50 50 48 51 51 52 54 56 59 61 60 56 52 50 49 48 49 49 47 46 44 43
28 29 26 27 27 26 25 25 28 31 36 41 43 44 45 46 45 44 42 43 46 50 56 54 55 56 56 56 56 57 55 51 46 46 45 45 43 41 40 40 39 38 37
28 25 27 27 26 25 26 27 31 35 41 43 45 46 46 46 45 42 43 45 48 50 55 55 56 57 58 57 54 50 46 46 46 43 41 38 38 38 36 36 34 34 35
26 27 28 27 25 27 28 30 34 39 44 45 46 48 47 46 43 44 46 48 50 51 54 57 57 56 54 50 47 47 46 45 43 38 36 34 32 30 33 35 36 36 36
27 27 27 27 26 28 29 33 38 43 45 45 48 47 46 44 44 46 48 49 50 51 52 55 55 50 47 45 46 45 44 41 38 35 30 29 33 32 35 37 35 36 35
27 28 26 26 26 28 32 37 42 44 44 46 47 45 43 45 48 49 49 49 49 50 51 50 48 45 44 43 43 42 39 38 32 31 32 30 35 35 35 33 32 33 34
26 24 24 25 29 32 35 40 43 43 45 45 43 43 45 47 49 50 50 50 51 51 48 44 43 43 41 40 39 38 37 37 33 31 37 31 36 31 28 27 28 31 35
22 21 25 30 33 34 38 41 41 43 44 42 42 44 46 46 47 47 48 49 48 46 43 42 42 42 39 37 37 37 39 39 39 29 40 32 32 28 26 24 25 29 31
21 29 29 31 35 36 39 40 41 41 40 41 44 45 45 45 45 47 48 46 43 38 37 38 39 38 37 34 38 37 35 36 37 35 39 34 30 28 25 22 23 28 28
28 26 30 33 36 35 37 39 39 38 40 43 44 45 46 46 47 47 47 44 38 34 33 33 34 34 34 35 35 38 38 38 34 32 34 41 29 27 27 23 22 24 25
24 29 31 33 33 36 36 35 37 40 42 42 43 43 45 47 46 44 43 40 35 32 31 29 28 30 32 33 34 37 35 36 36 31 31 40 33 31 29 24 19 17 21
27 28 29 32 33 33 35 37 39 40 42 43 43 43 43 43 42 41 38 36 33 31 28 26 25 27 30 30 30 31 32 37 38 38 31 40 38 39 32 26 21 20 20

GFSMA_700_spd_015.txt.gz
Wind_Speed
16 16 13 14 12 12 15 16 18 20 21 21 21 21 22 24 23 21 19 18 16 16 16 15 15 15 15 16 16 17 17 17 18 19 21 22 22 23 24 25 25 26 26
18 18 17 17 17 17 17 17 17 19 22 22 22 21 22 22 23 20 18 16 17 17 17 17 17 18 18 18 18 18 19 20 21 22 24 25 26 26 26 28 29 29 30
19 19 19 18 18 19 20 21 20 20 21 22 22 21 21 21 21 19 17 16 17 18 18 19 20 20 20 20 21 22 23 23 24 25 26 27 28 29 29 30 31 31 33
17 19 18 18 19 19 21 22 21 21 21 21 21 21 21 20 20 19 17 16 17 18 19 20 22 23 24 25 26 26 27 28 29 29 30 31 31 31 32 33 34 34 34
20 22 20 19 21 22 23 24 23 22 20 19 19 18 18 18 18 19 18 18 20 20 21 22 24 26 28 29 30 31 31 33 34 34 35 35 35 35 36 36 37 38 39
22 22 22 23 23 24 25 24 23 21 18 17 16 16 15 16 17 18 19 20 21 23 24 25 28 30 31 33 34 35 36 36 37 38 38 39 40 39 39 40 41 41 42
28 26 27 26 25 26 25 23 22 19 17 15 14 14 15 16 18 20 22 23 24 26 26 28 30 32 33 35 36 37 38 39 39 39 39 40 40 41 41 41 41 42 43
31 31 27 27 24 23 23 22 20 18 16 14 14 14 15 17 19 21 23 25 26 27 29 30 32 33 35 37 38 38 40 39 39 38 39 40 41 42 44 44 45 47 47
31 29 25 25 25 24 21 20 19 18 16 15 15 17 19 20 23 24 25 27 29 29 31 32 34 35 37 38 38 38 38 38 38 39 41 43 45 47 49 50 51 52 54
29 27 25 26 24 22 20 20 20 19 18 17 18 19 22 24 27 29 29 31 31 33 33 34 36 37 38 38 37 37 38 39 41 43 45 48 49 51 52 54 56 57 59
30 28 27 28 24 22 20 20 21 20 20 20 20 23 25 29 31 32 31 32 33 34 35 36 37 37 37 37 38 39 40 42 44 46 47 50 52 54 57 59 61 62 63
32 30 29 29 26 24 21 23 24 22 21 21 23 25 28 32 35 37 38 38 38 34 36 35 36 37 39 41 43 46 48 50 53 55 56 58 61 63 65 66 65 66 65
35 31 30 27 32 25 28 24 26 24 23 24 26 28 32 36 39 41 42 44 43 39 37 33 35 39 43 45 47 49 52 55 57 59 60 63 65 65 65 63 61 59 56
34 31 28 25 29 28 32 27 26 25 25 26 28 32 36 40 42 43 46 47 46 44 38 36 38 42 45 48 50 53 56 59 60 60 61 61 59 57 55 56 54 53 52
34 31 31 29 27 33 26 29 26 26 27 28 31 35 39 43 43 45 47 47 48 48 45 42 46 46 48 51 53 55 58 58 57 54 53 52 52 53 52 52 50 49 46
35 33 31 28 28 30 30 28 27 28 29 31 33 38 43 45 45 47 47 46 44 47 52 51 51 51 52 53 56 57 56 54 52 50 49 48 48 48 46 46 44 43 40
33 31 33 27 35 29 28 28 29 29 30 33 37 42 46 46 47 47 45 44 45 47 52 52 53 53 55 57 56 54 50 50 48 44 43 41 40 41 41 38 36 35 33
34 29 30 36 29 30 29 29 30 30 32 36 42 46 47 48 47 45 44 45 47 49 51 54 55 56 56 55 54 51 47 45 43 38 35 33 33 36 33 34 34 36 36
32 33 33 29 29 29 28 28 31 33 37 43 45 49 47 47 45 44 45 46 48 48 50 54 56 55 54 49 46 44 43 40 35 33 31 30 32 34 33 35 38 38 38
31 30 28 28 28 27 27 29 32 38 41 44 49 46 46 45 44 46 47 47 48 50 52 53 55 53 47 41 42 43 37 34 31 30 32 30 33 33 33 35 36 36 36
25 33 23 27 25 25 28 33 36 40 44 47 44 45 43 43 45 47 48 49 50 51 53 53 50 45 41 39 39 37 36 36 32 29 33 32 33 32 31 31 32 33 33
31 26 24 26 23 27 35 36 39 44 47 42 42 41 41 43 44 45 47 48 48 49 50 47 43 40 37 35 35 37 37 37 37 30 33 31 31 32 31 31 30 30 32
23 21 17 21 28 35 34 37 43 43 40 40 39 40 41 42 44 46 47 47 45 42 40 40 38 36 36 33 36 38 38 38 36 32 36 38 31 34 31 29 28 28 30
9 13 24 30 32 32 37 41 38 38 37 38 39 40 42 44 45 47 47 47 42 36 33 32 31 31 33 34 36 39 39 40 37 33 33 40 37 34 30 28 26 23 25
14 22 21 27 32 36 35 34 34 35 36 37 38 40 42 44 45 46 45 42 36 30 28 26 26 28 31 33 34 37 35 38 38 35 28 37 38 38 34 27 25 21 22
18 21 26 31 30 31 32 32 32 33 35 36 38 40 42 43 43 41 40 37 32 27 25 23 23 25 28 29 29 31 34 38 40 41 30 39 40 40 44 32 27 24 24

GFSMA_700_spd_018.txt.gz
Wind_Speed
19 18 17 15 15 14 14 15 16 16 17 19 20 20 20 19 19 19 19 18 17 16 14 14 14 15 16 16 17 18 18 17 17 18 20 20 20 22 22 22 24 24 24
21 20 19 19 17 16 16 17 17 18 18 18 19 20 21 19 18 18 18 17 16 16 15 15 15 17 18 19 20 20 20 21 21 21 22 23 23 24 25 25 27 28 27
22 20 21 21 19 18 17 17 18 19 20 20 20 20 21 19 18 17 17 17 16 16 16 17 17 19 20 21 22 23 24 25 25 25 26 26 27 27 27 28 28 30 31
21 20 20 19 19 18 18 19 21 22 22 22 21 19 19 18 17 16 15 16 16 17 18 19 20 22 23 24 25 27 28 29 29 30 31 31 31 31 32 32 32 32 33
19 18 20 20 19 19 20 21 23 24 23 22 20 18 17 16 14 14 15 15 16 18 20 22 23 24 27 29 30 31 32 33 34 35 36 36 36 37 37 37 37 37 37
20 20 21 22 21 22 23 24 25 24 22 20 18 16 15 15 14 14 15 17 18 20 22 24 26 28 30 31 32 34 35 36 37 37 39 40 40 40 40 40 40 40 40
23 23 25 25 25 24 23 25 24 23 21 19 17 16 15 15 16 16 18 20 21 23 24 27 29 30 32 33 34 35 37 37 38 38 39 40 41 41 41 41 41 42 42
25 25 26 27 27 24 24 24 23 21 20 19 17 17 16 16 18 19 21 23 25 26 28 29 31 33 34 35 36 37 39 39 39 39 40 40 41 42 43 43 44 44 45
25 26 26 28 27 25 23 22 20 21 20 19 18 18 18 19 21 22 24 26 28 29 31 32 34 35 36 37 37 38 39 38 38 39 40 41 43 44 46 47 48 50 51
26 26 27 28 27 26 26 20 19 20 21 20 20 20 20 21 22 25 27 29 31 32 33 35 37 38 38 39 39 38 38 38 39 41 43 45 47 49 51 52 54 56 57
30 29 29 28 28 28 27 24 20 22 23 23 22 22 23 24 26 27 30 33 34 35 36 37 39 40 40 39 38 38 40 41 43 45 47 49 51 54 55 57 59 61 62
34 30 31 30 31 30 28 28 22 21 27 26 25 25 26 27 29 31 33 35 37 35 37 37 39 40 39 39 40 42 45 46 48 50 52 54 56 58 60 62 64 65 67
37 32 31 32 34 33 29 27 28 22 29 29 27 28 29 30 32 35 38 41 43 40 40 38 39 39 40 42 43 46 49 51 52 54 56 59 62 64 67 68 68 69 67
38 32 33 33 36 35 28 36 28 30 30 29 30 31 31 32 35 38 42 46 47 46 43 40 37 39 42 44 47 49 52 53 55 58 60 62 64 65 65 67 64 63 60
38 34 35 36 38 32 30 35 34 38 27 29 32 32 33 35 38 42 45 49 50 51 48 41 41 42 45 47 50 53 54 57 60 61 62 61 60 60 59 58 56 56 54
39 35 36 37 37 35 35 32 37 38 25 30 33 33 35 37 41 45 49 50 49 50 51 48 47 48 48 49 52 55 58 61 62 60 58 56 54 54 53 50 49 46 45
38 38 37 38 37 37 32 32 35 28 30 33 33 35 36 40 45 48 51 49 48 48 50 51 51 51 51 52 55 56 58 58 55 51 51 48 46 46 45 44 44 43 40
36 36 36 37 36 36 44 37 31 31 31 34 35 36 40 45 48 52 49 48 47 47 50 53 53 52 53 55 57 57 54 51 49 46 44 40 40 42 41 41 42 43 42
38 35 36 36 38 38 29 30 33 30 33 34 37 40 45 48 51 50 48 47 47 48 49 52 54 55 56 53 54 52 49 45 42 38 34 36 38 39 39 40 43 43 41
35 36 34 39 37 45 27 31 32 33 33 37 42 43 45 50 50 48 47 47 48 48 49 52 55 56 54 51 48 47 42 39 36 34 33 36 36 37 38 40 42 41 42
33 37 37 37 41 28 30 26 29 32 36 42 43 44 49 47 46 46 47 48 49 49 52 53 53 53 49 44 42 41 39 37 35 32 33 36 33 35 33 36 37 39 40
35 37 36 39 30 29 30 27 29 34 42 42 44 47 44 44 44 45 46 48 50 50 50 51 51 48 43 40 39 38 38 37 36 31 34 33 32 35 35 37 36 36 38
40 43 39 28 32 23 19 27 34 39 40 43 44 42 41 43 44 45 46 48 48 46 45 47 47 42 40 38 38 38 36 37 37 35 37 39 37 37 34 34 33 33 34
37 32 24 18 14 17 27 30 33 38 41 40 40 40 41 42 43 45 47 47 47 45 43 41 38 36 37 36 36 37 36 39 38 37 35 42 38 38 37 35 31 31 30
10 8 11 14 20 22 26 32 36 36 37 38 39 41 42 42 43 44 46 47 45 41 39 35 32 32 34 33 34 36 36 39 39 38 32 39 38 40 40 37 30 27 28
6 8 13 17 21 27 28 31 33 34 35 37 39 39 40 43 43 44 44 45 43 38 33 27 27 28 29 29 30 34 37 39 39 36 33 42 43 43 46 43 35 31 28

GFSMA_700_spd_021.txt.gz
Wind_Speed
19 18 18 17 15 16 14 14 14 14 14 16 17 18 20 19 18 17 18 17 16 16 15 15 16 16 16 16 16 17 17 18 18 19 19 19 19 21 22 23 23 24 23
22 21 19 19 19 19 18 17 16 15 16 18 20 20 20 19 18 18 18 17 16 15 15 15 16 18 19 19 19 19 20 21 21 22 22 23 23 23 24 25 25 26 26
23 22 21 20 21 21 19 18 18 17 18 20 21 21 20 19 18 17 17 16 16 16 17 17 18 19 20 22 23 23 23 25 25 26 27 27 27 28 28 28 29 29 29
24 23 22 23 22 21 19 19 19 19 20 22 22 21 19 17 16 15 15 15 15 16 17 18 20 21 23 25 26 28 29 29 30 31 32 32 32 32 32 33 33 33 33
22 21 22 21 21 21 19 20 19 21 22 22 22 20 18 16 15 14 13 14 14 16 17 19 21 23 24 26 28 29 31 32 33 32 34 35 36 37 36 36 37 37 38
22 22 22 20 21 21 21 21 22 22 23 22 20 19 18 16 14 14 13 15 17 19 20 22 24 26 27 28 30 31 33 34 35 35 35 35 36 36 37 37 38 38 39
25 25 23 22 22 23 25 24 24 24 22 21 20 18 18 16 15 15 15 17 19 21 23 25 27 28 29 31 32 34 35 36 37 38 37 38 38 38 38 37 38 39 39
27 27 25 24 24 25 26 24 24 23 21 20 20 19 19 18 17 17 18 19 21 23 26 29 30 31 32 34 35 35 36 37 37 38 38 38 38 39 39 39 41 42 42
30 28 27 25 25 26 25 25 23 23 20 20 20 20 20 20 20 20 21 22 24 26 28 31 34 35 36 37 37 38 38 38 38 37 37 38 40 41 42 43 45 46 48
33 32 30 27 26 25 26 25 24 22 20 19 21 22 23 23 23 23 23 24 26 29 31 34 37 38 40 40 39 39 39 38 37 38 39 41 43 45 47 48 49 51 53
34 33 31 30 28 26 28 28 27 25 21 20 22 25 25 26 26 26 27 27 29 31 34 38 40 42 43 42 42 41 40 39 40 42 43 45 47 49 51 52 54 56 58
36 34 34 33 31 30 27 31 29 27 25 24 24 28 29 29 29 29 29 30 31 33 37 40 43 44 44 43 43 42 42 43 45 46 48 50 51 53 55 57 59 61 63
39 34 32 33 33 31 28 36 31 30 28 26 31 29 31 32 31 31 32 33 35 36 38 41 44 46 46 44 43 44 46 48 49 50 51 52 54 57 60 63 65 68 69
38 36 35 34 36 35 31 34 37 35 31 35 32 34 31 35 34 33 34 36 39 42 43 45 44 44 44 44 45 47 49 50 52 53 55 57 59 61 63 65 66 65 65
39 38 36 35 38 38 36 39 34 34 33 39 34 37 35 36 34 35 36 39 42 49 50 48 46 44 44 44 47 50 51 53 55 58 60 61 61 61 60 59 57 55 54
39 39 39 38 39 39 38 38 38 35 37 40 39 43 36 35 37 36 38 41 46 53 57 54 48 45 46 46 49 52 54 57 59 60 61 60 57 55 53 51 50 47 46
44 42 38 37 41 41 40 40 40 40 37 44 38 38 30 36 36 37 41 45 51 54 58 53 50 49 50 50 51 54 56 58 58 56 53 50 48 47 47 46 46 46 46
43 42 40 40 41 41 42 40 50 46 34 37 33 33 34 37 36 41 47 51 51 55 53 52 51 51 51 52 56 58 57 56 54 48 44 44 43 44 45 46 46 46 47
39 40 38 40 35 41 41 41 46 44 30 38 31 33 32 37 41 46 48 51 54 50 49 51 52 52 53 54 56 56 55 50 45 41 39 39 40 43 43 44 45 46 48
38 39 38 34 40 39 42 45 52 45 35 37 37 31 35 39 46 47 49 50 48 47 48 50 51 54 55 54 55 55 49 42 40 37 36 38 40 40 40 41 43 45 45
39 36 33 37 39 38 43 50 42 36 35 35 28 32 38 45 46 47 46 46 46 47 49 51 53 54 53 52 50 48 45 42 38 36 35 35 37 37 35 38 40 41 43
43 32 35 32 34 41 51 48 38 39 33 25 29 37 43 45 45 44 45 46 48 49 50 53 54 53 50 47 46 42 42 41 40 35 33 34 37 36 37 38 36 36 37
30 30 29 37 37 46 38 34 33 28 26 29 35 41 42 41 42 44 45 46 47 48 51 52 52 49 48 44 42 40 40 38 37 36 37 37 38 37 34 34 34 35 36
21 26 32 34 32 23 21 18 20 24 30 35 38 38 39 40 43 44 46 48 49 49 48 47 45 43 42 38 38 40 38 38 38 37 37 40 37 38 38 38 36 34 33
23 18 22 12 13 13 12 17 24 29 32 35 37 39 40 42 44 44 47 49 50 47 45 43 40 38 35 35 36 37 37 39 39 38 36 41 38 41 42 41 38 32 30
14 13 8 8 9 14 18 22 25 30 32 34 37 40 41 44 45 46 48 50 47 44 42 36 32 29 30 31 32 36 38 40 41 42 36 45 42 45 49 44 41 37 34

GFSMA_700_spd_024.txt.gz
Wind_Speed
18 18 18 18 16 15 16 15 14 14 14 13 13 16 18 19 18 16 16 15 15 15 14 13 13 14 14 14 15 16 17 17 17 17 17 17 18 19 20 20 20 20 21
21 21 20 21 20 19 18 18 17 16 16 15 16 18 19 18 17 15 14 14 14 14 14 14 14 14 15 16 16 17 19 20 19 20 21 21 21 22 23 23 24 24 23
22 23 23 22 23 22 21 20 19 18 18 18 18 20 19 17 16 15 14 13 13 12 12 13 15 15 16 18 19 19 20 22 23 25 25 26 26 27 27 27 28 28 29
24 23 23 24 25 25 23 22 20 19 19 20 20 20 19 17 15 14 14 13 12 12 13 14 15 16 18 19 21 22 23 23 24 26 27 29 30 30 31 31 32 32 32
23 23 24 25 26 25 24 23 21 20 21 22 22 21 18 16 14 14 13 12 12 12 14 16 17 19 20 22 24 25 27 28 28 28 28 30 30 31 31 32 32 32 33
24 23 24 24 24 24 24 22 22 22 23 24 24 21 18 16 14 14 14 14 14 15 16 17 19 21 23 25 27 29 30 32 32 33 32 32 32 33 33 32 33 33 33
27 25 24 25 24 24 24 24 23 24 25 25 23 21 18 16 16 16 16 15 16 17 18 19 21 23 25 27 29 31 33 34 35 36 36 35 34 33 33 33 33 33 33
30 27 27 27 27 27 26 25 26 25 24 23 22 21 20 19 18 18 18 18 18 20 20 21 23 25 27 29 31 32 34 35 36 37 36 36 35 34 34 34 34 35 36
31 31 29 30 31 29 28 27 27 25 24 23 22 22 22 21 20 20 21 21 22 22 23 24 26 28 30 32 35 35 36 36 36 37 37 36 36 37 38 38 39 40 41
38 35 33 34 33 31 29 28 27 26 24 23 23 21 21 23 24 24 24 25 25 25 26 27 29 31 34 36 38 40 40 39 38 37 36 37 38 40 42 43 44 45 46
38 37 34 34 34 32 31 30 26 30 26 25 23 21 22 24 26 28 28 28 27 27 28 30 32 35 38 41 42 42 42 41 40 39 39 40 42 44 45 46 47 49 49
41 40 37 35 34 34 32 30 29 30 31 29 25 24 26 28 28 30 31 31 31 30 31 32 34 37 40 44 46 45 43 42 41 42 43 44 46 47 48 50 52 54 55
46 44 41 38 36 33 34 34 31 30 34 39 29 29 26 31 34 36 34 33 33 33 32 33 36 40 43 46 48 47 45 44 43 45 46 47 48 50 52 54 56 58 61
41 45 43 39 36 34 33 33 36 31 31 37 31 35 31 34 38 38 37 36 35 37 36 36 38 43 47 48 49 48 46 46 46 47 48 49 51 54 56 58 60 61 61
42 40 43 43 38 36 35 34 37 36 34 38 36 46 41 37 30 37 39 37 39 41 40 37 42 46 47 48 47 47 47 48 48 50 51 53 55 57 59 59 58 57 53
42 42 40 42 40 35 36 38 38 39 40 39 44 42 43 40 37 40 46 37 38 42 45 44 46 47 49 46 46 47 48 49 50 52 54 55 57 58 58 56 54 50 46
37 38 39 37 40 40 38 39 39 40 43 42 46 42 45 42 40 40 40 40 38 42 48 48 50 49 47 46 46 47 49 51 52 53 54 55 55 54 53 50 47 45 44
30 37 40 40 40 42 40 38 39 39 45 45 46 49 51 42 41 34 37 38 39 44 47 50 49 47 47 46 48 50 51 51 53 53 53 51 49 48 46 45 45 43 42
34 34 40 41 40 41 44 42 43 41 45 47 46 46 55 40 45 38 38 37 41 45 49 50 47 47 48 47 49 51 52 51 51 50 47 45 45 43 42 42 41 41 43
34 33 38 39 38 43 47 42 40 44 48 45 52 51 48 41 39 36 35 38 44 47 45 45 46 48 48 49 51 52 53 50 49 43 41 41 39 38 38 39 40 43 44
33 33 33 34 36 37 31 33 38 37 42 49 48 41 41 34 32 33 37 42 45 44 43 44 46 47 48 49 49 51 52 51 45 38 37 34 32 34 35 37 39 40 40
29 30 31 33 29 32 28 31 31 37 44 42 39 36 30 30 34 38 39 42 42 43 43 45 46 48 49 48 49 49 49 47 43 35 33 31 32 34 37 36 34 34 36
24 26 31 25 32 26 22 31 36 37 30 30 27 28 31 35 37 39 40 41 42 44 45 47 49 48 49 48 49 47 44 40 39 33 34 34 34 36 34 31 32 34 36
26 26 20 23 21 24 30 29 20 22 23 25 27 30 36 37 38 39 42 43 45 44 46 46 45 45 45 45 44 43 40 39 35 34 34 37 36 38 36 33 33 34 34
15 9 16 14 17 7 8 9 13 19 25 27 28 33 35 38 40 43 46 48 46 44 44 43 43 43 41 39 37 37 36 35 35 35 32 42 38 40 40 35 34 32 31
8 9 7 7 6 5 7 12 18 24 25 28 31 34 38 41 43 44 45 46 46 45 44 39 37 36 34 32 32 33 34 35 37 39 35 45 40 42 47 34 32 30 29

GFSMA_700_spd_027.txt.gz
Wind_Speed
20 19 18 19 18 18 18 18 17 16 15 14 13 13 14 16 17 15 14 12 11 10 10 10 10 10 10 10 11 11 12 12 14 14 15 15 16 17 17 17 17 17 18
23 22 22 22 21 21 21 21 20 19 18 17 15 15 16 18 18 15 13 12 10 9 8 8 9 9 10 10 11 13 14 15 16 17 18 19 20 21 21 22 22 22 21
24 24 25 25 25 24 24 23 23 21 20 19 17 17 18 19 18 16 14 12 10 9 8 8 8 9 10 11 12 13 14 16 17 19 20 22 23 24 25 26 26 26 27
27 26 27 27 27 26 25 25 24 23 22 21 19 19 19 20 18 16 14 12 11 10 9 9 10 11 12 14 15 16 17 18 18 20 22 23 24 25 26 27 28 28 29
30 29 29 29 27 26 27 27 26 25 23 21 21 21 21 21 19 16 15 13 12 12 11 11 12 13 15 17 18 19 20 21 22 23 23 25 26 26 27 27 28 29 29
31 30 30 28 27 27 28 27 27 26 24 23 23 23 23 22 20 18 16 15 15 14 14 14 14 14 16 18 20 21 22 24 25 27 28 28 28 28 28 28 28 29 29
30 33 31 30 29 27 27 28 28 27 26 25 25 25 24 22 21 19 18 18 18 17 17 17 16 16 17 19 22 24 25 27 28 29 30 30 30 29 29 29 28 29 29
32 34 35 32 31 28 28 28 29 29 28 27 26 25 24 22 21 21 21 21 21 21 20 20 19 19 20 22 24 25 28 29 31 31 32 32 31 31 31 30 30 31 31
34 34 34 34 33 32 30 30 32 31 30 29 27 26 24 24 22 22 22 24 24 25 24 23 22 22 23 24 26 28 30 32 34 34 34 34 33 33 33 33 34 35 36
42 39 37 34 34 37 35 33 34 34 33 30 29 26 25 25 23 23 24 26 27 28 28 27 27 26 28 29 30 31 33 34 36 36 36 36 35 35 35 36 37 38 40
49 44 40 38 39 38 38 35 34 33 33 32 29 28 27 26 24 24 26 27 29 31 32 31 30 31 32 33 33 35 37 38 39 39 38 37 38 38 39 40 41 42 43
48 50 48 45 43 38 38 36 35 34 32 30 30 31 33 26 25 27 28 31 31 33 35 34 34 35 35 36 38 39 42 43 43 41 39 39 40 41 43 43 44 46 47
41 41 44 46 43 41 39 37 35 36 36 30 31 34 36 33 30 35 29 34 36 39 36 36 37 37 38 39 41 43 45 45 45 43 42 42 42 43 44 46 47 48 51
43 38 39 43 45 43 40 40 37 37 36 34 32 34 37 44 37 36 34 35 40 38 41 39 39 39 39 41 43 46 49 48 47 44 43 45 46 46 47 49 50 51 52
45 45 40 40 40 43 44 41 41 37 36 35 36 36 39 38 40 41 50 38 40 38 41 42 42 40 42 42 46 50 50 50 47 46 46 46 49 49 49 50 52 53 54
33 38 40 39 37 39 42 45 46 40 39 37 38 39 43 45 43 45 47 42 48 44 47 44 44 41 42 46 48 51 51 48 47 47 47 48 51 51 51 52 53 54 51
30 31 36 39 38 38 38 41 47 33 36 38 39 43 44 53 40 46 41 52 52 49 50 41 40 41 42 46 48 50 48 47 47 47 48 50 51 51 52 52 52 50 50
32 35 32 35 37 37 38 38 39 40 39 37 44 49 45 53 44 48 44 51 54 49 47 40 42 42 44 45 46 46 46 48 48 48 48 50 50 51 50 49 48 48 46
32 31 37 35 36 37 37 36 36 37 37 42 43 55 51 46 54 50 51 51 52 43 39 40 42 42 43 44 45 46 47 47 47 47 47 48 48 47 45 45 45 43 40
34 31 30 36 37 37 37 37 39 39 41 44 47 48 49 52 45 48 45 46 42 38 40 44 46 43 44 44 46 48 48 48 46 43 44 45 43 41 41 42 40 38 39
32 32 29 30 34 34 34 35 36 36 43 46 47 42 46 43 40 38 38 40 39 42 46 45 43 44 45 46 46 48 49 48 45 42 40 39 38 35 34 37 37 37 38
27 26 25 26 28 30 32 29 26 30 33 43 44 36 34 31 34 36 37 40 44 44 39 41 43 45 45 45 45 46 46 46 45 40 39 35 31 30 33 33 33 33 35
22 23 22 23 24 28 28 22 22 24 24 26 29 27 27 30 32 36 41 42 40 40 42 43 44 42 43 44 46 45 44 44 44 36 36 32 28 28 30 30 31 32 35
19 18 19 24 29 25 28 27 24 23 23 19 20 22 28 32 36 39 41 41 41 40 40 41 43 43 44 43 43 43 41 40 35 29 30 30 29 31 35 31 30 31 32
12 16 19 16 13 20 9 6 9 10 11 16 24 28 30 31 36 40 42 44 42 40 42 41 42 41 40 39 38 38 34 33 31 28 26 35 31 35 35 28 26 25 26
12 5 10 11 9 8 5 2 7 12 18 23 26 29 32 35 39 42 46 45 43 41 38 34 33 32 32 31 30 29 29 29 30 29 31 38 34 37 39 26 26 26 25

GFSMA_700_spd_030.txt.gz
Wind_Speed
23 24 23 22 21 20 20 20 19 19 19 18 17 16 16 15 16 18 17 14 12 11 10 8 8 6 6 6 7 8 8 10 11 12 13 13 14 15 15 16 16 17 17
28 28 27 26 26 24 23 23 22 23 22 21 20 19 17 17 18 18 17 15 12 11 10 8 7 6 6 6 7 8 9 10 11 12 14 15 16 17 19 20 21 21 22
29 30 30 29 29 28 27 26 26 26 25 23 22 21 20 19 19 20 18 16 13 12 11 10 8 8 7 8 8 9 11 12 14 14 15 16 17 18 19 21 22 23 25
31 31 31 31 31 31 30 29 29 28 27 25 24 23 22 21 21 21 19 17 15 14 13 12 11 11 10 11 12 12 12 13 14 16 18 18 19 20 21 23 24 25 25
34 34 33 32 33 33 33 32 32 31 29 28 27 25 23 23 24 23 21 19 17 17 16 16 15 14 13 13 14 14 14 15 16 17 18 20 21 22 22 23 24 25 26
37 36 35 34 36 34 34 33 33 32 31 29 28 26 25 25 26 24 22 21 20 19 19 19 18 17 17 16 16 17 18 19 19 20 21 22 23 24 25 25 25 26 26
35 37 37 36 35 34 33 34 33 33 32 30 29 28 27 28 28 26 24 23 22 22 22 22 21 21 20 19 19 20 21 22 23 24 25 26 26 27 27 27 26 26 26
36 36 36 36 37 36 35 35 34 33 32 31 31 31 31 30 29 27 26 25 25 25 25 25 25 24 24 24 24 24 24 25 26 27 29 30 30 29 29 29 28 28 28
37 37 37 37 37 37 38 37 34 34 32 31 32 34 34 33 29 28 27 26 26 27 28 28 28 28 28 28 29 29 28 29 29 30 32 32 33 33 33 32 32 32 31
44 44 43 43 41 39 37 39 38 36 36 34 35 36 36 34 32 31 29 27 27 27 29 31 32 32 32 33 34 34 33 33 33 33 35 36 37 37 37 35 35 35 36
51 50 49 48 45 43 41 38 40 41 40 39 35 36 37 35 34 32 31 28 27 28 30 33 34 35 36 37 38 39 38 37 38 37 38 40 40 40 40 39 39 39 39
40 44 49 52 51 50 46 43 43 43 41 42 37 33 35 36 34 33 32 32 30 30 33 34 35 38 38 41 43 43 42 42 41 41 41 43 44 44 44 43 43 43 43
46 42 40 46 49 49 49 49 46 43 43 41 38 41 46 37 38 36 40 38 39 35 38 38 40 40 42 44 46 46 46 45 44 43 44 46 48 47 47 45 45 45 46
45 47 50 47 45 47 47 50 48 45 43 44 41 39 40 40 37 41 39 45 43 39 45 46 44 46 48 46 49 50 50 47 46 47 48 48 51 51 49 48 48 48 49
40 41 44 47 49 47 46 47 50 46 44 44 43 43 44 42 40 41 39 42 47 45 46 47 50 49 49 51 52 53 54 52 49 50 50 51 51 50 50 50 50 50 50
35 35 38 45 47 47 46 46 46 48 47 45 47 48 50 43 42 42 45 49 51 48 49 50 48 51 54 57 55 55 55 51 50 51 51 52 51 51 51 52 52 52 52
33 32 32 32 37 43 45 45 44 44 43 46 50 55 49 41 41 44 47 52 56 49 52 53 51 51 55 55 57 53 51 50 50 52 51 53 54 53 52 52 52 54 54
34 33 34 34 34 35 39 42 43 43 43 43 44 51 48 42 49 42 47 58 57 52 52 55 52 53 54 53 52 49 51 53 50 50 51 52 53 53 53 52 53 53 53
36 34 34 34 38 39 37 38 41 40 42 42 42 40 45 40 45 49 38 48 47 48 46 47 49 50 49 48 49 51 53 50 47 48 48 51 52 53 51 52 52 52 51
40 37 36 36 35 33 37 38 37 39 40 39 36 37 38 44 40 46 43 45 40 42 44 45 46 47 49 50 53 52 47 46 48 47 47 49 50 50 49 49 49 48 46
33 34 36 38 33 33 32 35 35 35 38 36 33 35 38 47 50 43 39 38 38 39 40 43 46 49 48 48 48 47 48 49 48 46 45 47 48 46 44 45 43 41 39
29 26 25 30 30 32 30 29 29 28 31 29 32 36 36 36 36 34 32 30 33 37 42 46 45 45 46 46 47 48 48 47 46 42 43 42 38 37 36 37 34 34 36
15 18 21 22 24 27 25 21 23 27 29 28 27 25 28 28 27 26 30 34 37 41 43 44 44 44 46 47 49 47 45 44 43 38 38 37 29 30 30 28 28 32 36
13 15 17 19 19 19 21 24 26 25 20 22 24 23 21 23 27 30 35 38 41 41 42 46 46 46 45 44 42 41 38 36 33 27 27 31 24 26 27 26 26 28 32
11 10 16 17 20 19 20 16 22 21 17 12 14 20 24 29 33 35 36 40 41 42 45 43 40 37 33 31 30 29 26 25 23 20 23 28 24 30 29 23 23 24 25
5 7 8 5 4 9 8 6 7 10 13 16 20 24 27 30 35 36 39 41 39 35 28 23 22 22 22 21 22 22 22 22 24 21 26 25 25 32 33 21 23 24 25

GFSMA_700_spd_033.txt.gz
Wind_Speed
25 25 25 24 23 22 22 22 21 21 21 21 20 19 19 18 18 19 18 19 17 15 13 12 10 9 8 8 7 7 7 8 8 9 10 11 12 13 14 15 15 16 16
28 29 28 28 27 26 26 26 25 24 24 25 24 23 22 21 21 20 20 20 18 16 15 12 11 10 9 9 8 8 8 8 9 10 11 11 12 14 15 17 18 19 20
30 31 33 30 30 30 30 29 29 28 28 27 27 26 25 24 22 22 22 20 19 18 17 14 13 12 11 11 10 10 10 11 11 12 12 13 14 15 17 17 19 20 21
33 33 33 32 31 34 34 33 32 32 31 30 30 29 28 26 24 24 23 23 21 19 19 17 15 15 14 13 13 12 12 12 13 13 14 15 16 17 18 20 21 22 23
34 34 35 38 35 34 36 35 34 34 34 34 32 31 30 29 27 26 25 24 24 22 21 20 19 18 18 16 16 15 14 15 15 15 15 16 18 18 20 21 21 23 24
33 36 37 39 38 38 37 37 37 36 36 36 34 33 32 31 29 28 28 26 25 24 24 23 22 21 21 20 20 19 18 18 18 19 19 19 19 20 21 22 23 23 23
36 36 37 39 41 40 39 37 37 36 36 37 37 35 34 33 31 30 29 28 27 26 26 25 25 24 25 24 23 22 22 22 22 22 23 22 22 22 23 24 24 25 25
39 38 38 38 40 40 40 39 38 36 35 37 37 37 37 35 33 32 31 30 29 28 28 28 28 28 28 28 27 27 26 26 27 27 27 27 27 27 26 26 27 27 27
44 43 42 39 39 40 40 40 38 38 37 36 36 38 38 36 33 34 33 32 31 30 30 30 30 30 31 32 31 30 30 31 32 33 33 33 32 31 31 31 31 31 31
45 46 47 47 43 44 44 42 41 39 39 40 37 38 38 38 35 37 36 34 33 32 31 30 30 31 33 35 35 35 34 35 36 36 37 38 38 37 36 35 34 34 36
43 47 51 51 51 50 49 47 46 44 43 42 41 39 38 39 39 40 40 37 35 33 33 31 32 34 35 36 38 38 38 39 41 41 42 43 43 42 40 40 40 40 39
41 40 42 50 53 55 54 52 50 48 45 45 43 42 42 44 41 40 40 39 35 37 34 35 41 36 36 40 41 40 41 44 45 45 46 47 49 47 46 44 44 45 44
44 44 42 42 44 47 50 51 52 52 50 50 49 45 42 43 43 39 37 40 46 43 40 45 43 42 43 40 44 44 46 48 49 48 52 52 52 51 49 49 49 49 49
43 43 43 47 49 49 48 48 51 53 51 52 51 49 46 45 45 45 43 50 53 48 52 43 43 48 41 45 48 47 49 50 50 53 56 54 54 55 54 54 53 51 51
44 43 42 42 43 44 47 52 51 53 51 51 51 50 48 47 47 53 45 51 59 47 47 38 46 45 50 50 49 47 45 50 52 56 57 58 58 58 56 54 54 54 53
42 41 40 40 42 44 45 45 50 51 51 51 51 51 49 47 47 51 50 54 60 50 47 42 48 46 50 50 48 49 49 49 55 56 57 57 59 57 56 54 57 54 53
39 36 35 36 37 37 35 36 40 44 48 48 47 47 48 49 49 59 53 61 46 44 47 43 51 47 50 51 50 50 51 54 57 56 55 53 54 54 54 57 57 55 54
39 36 35 34 35 34 33 33 34 34 39 43 44 43 44 45 50 53 57 52 48 44 46 41 43 47 48 47 45 48 51 51 53 53 51 52 56 56 54 53 53 54 52
37 37 36 35 36 36 34 36 35 37 36 35 38 40 40 40 45 42 53 52 47 42 42 43 44 43 41 42 45 47 48 49 51 53 53 50 51 50 51 52 53 52 50
33 38 43 34 31 38 37 36 36 35 36 36 34 36 37 36 41 41 32 32 34 39 39 38 38 38 40 41 43 45 48 50 50 48 46 49 50 48 49 49 50 49 48
26 23 27 29 33 35 36 40 36 33 33 34 33 32 32 30 33 36 34 38 37 35 34 33 36 37 39 43 46 48 49 47 47 45 47 48 47 47 45 44 43 42 41
19 26 26 27 29 27 25 30 27 29 31 26 25 25 29 26 37 34 30 32 33 32 32 33 35 39 42 43 45 46 47 51 47 39 44 38 37 36 35 32 29 29 30
14 14 13 14 18 21 21 21 23 26 22 21 22 22 26 33 33 31 32 33 28 30 34 38 38 38 42 44 43 40 35 32 30 28 31 25 25 23 21 20 22 26 30
13 13 13 15 16 18 19 20 21 22 23 23 23 26 25 28 29 28 26 28 31 34 35 38 41 40 36 29 26 23 22 22 20 19 25 19 20 19 17 18 22 25 29
6 10 10 13 15 17 20 18 20 22 15 18 23 26 24 22 23 26 28 31 35 38 39 35 28 21 18 19 20 19 19 19 17 16 22 22 20 24 19 17 19 22 25
13 8 7 6 9 9 6 8 10 11 9 15 18 20 24 28 29 30 34 36 37 33 24 18 16 17 18 19 19 19 19 19 20 18 24 22 22 29 29 16 19 22 24

GFSMA_700_spd_036.txt.gz
Wind_Speed
23 23 25 25 25 24 24 22 23 21 20 20 20 21 21 22 24 21 19 19 19 19 18 16 15 13 11 10 9 9 9 8 8 8 9 9 10 10 11 12 13 13 14
27 26 26 27 27 28 28 27 27 26 25 24 24 24 24 24 25 24 22 21 21 21 20 17 16 14 12 10 10 9 9 9 10 10 11 11 11 11 12 12 13 14 15
27 28 29 28 28 30 31 31 30 30 30 28 28 28 27 26 27 29 24 23 22 21 21 19 18 17 15 13 12 12 11 11 11 12 13 13 13 13 13 14 15 15 16
30 31 33 31 30 30 29 30 31 31 32 32 32 31 31 31 29 29 29 25 24 23 23 21 20 19 17 16 15 15 14 13 13 13 14 14 14 15 15 15 15 16 17
33 34 34 35 32 33 32 33 33 31 32 32 32 33 34 34 32 31 30 29 26 24 24 22 22 22 21 20 19 18 17 17 16 16 16 16 17 17 16 16 17 17 18
34 33 32 33 36 35 35 35 35 34 33 33 34 36 35 36 33 33 31 31 30 27 25 25 24 24 24 23 22 21 21 20 20 19 19 19 19 19 20 20 19 19 19
38 35 34 33 40 37 35 36 37 36 35 35 35 35 35 35 35 34 34 33 31 30 27 25 26 26 26 26 25 25 25 24 24 24 24 23 23 22 22 22 23 23 22
42 42 40 38 39 43 39 39 38 37 36 37 36 34 37 37 36 35 35 35 32 31 32 27 28 27 28 28 28 28 28 28 28 28 28 28 28 28 28 27 27 26 26
46 46 46 47 43 42 45 41 40 38 37 37 36 36 40 40 37 36 36 35 34 33 32 32 30 30 29 30 31 31 31 32 33 32 32 33 33 33 32 33 33 32 32
35 40 45 47 48 45 45 47 44 43 41 40 39 38 39 41 40 38 36 35 34 35 35 34 33 32 33 32 33 33 33 35 36 36 36 36 37 37 37 37 38 38 38
36 37 37 40 47 48 49 50 50 50 48 46 45 43 42 42 42 40 38 34 35 38 39 36 34 34 34 32 33 35 34 35 37 37 37 39 40 40 40 42 42 43 43
39 35 37 37 39 42 44 49 54 55 55 53 51 48 46 45 42 43 41 43 41 39 40 40 38 35 36 39 41 39 38 42 41 39 38 42 43 44 44 44 46 46 45
36 34 38 38 40 42 43 43 44 47 51 53 52 50 49 49 46 45 44 44 45 45 42 43 41 43 47 43 42 49 44 41 42 42 43 45 43 44 45 49 48 48 48
37 38 39 39 39 41 45 49 50 49 47 48 47 48 50 50 51 48 46 46 47 47 46 51 49 49 50 51 44 49 44 35 43 45 46 41 42 44 47 51 52 54 54
42 42 41 42 41 41 42 43 43 44 45 47 49 47 47 48 47 49 49 51 50 55 54 54 50 51 57 56 43 51 45 44 46 41 45 45 48 47 48 51 52 52 52
43 42 40 41 41 39 38 39 42 43 43 42 44 43 47 45 45 45 47 52 60 55 57 56 49 51 48 52 44 40 42 37 45 46 47 48 49 50 50 50 50 50 50
38 36 37 37 36 36 35 34 30 30 30 32 35 36 39 43 43 43 44 49 53 54 49 54 51 44 40 41 40 36 38 40 45 44 44 44 46 46 46 47 48 50 51
31 32 33 33 34 35 36 35 32 31 31 26 30 32 31 33 37 38 39 43 44 40 38 35 38 37 37 33 34 37 37 38 40 41 40 42 44 46 48 49 50 48 48
28 29 29 30 33 36 38 42 46 44 33 30 31 32 32 30 34 38 40 39 36 25 33 27 30 32 33 37 33 33 35 37 37 38 40 45 47 49 50 50 50 49 49
23 20 21 22 24 28 31 30 33 33 28 31 31 28 31 33 30 31 25 26 17 22 29 29 32 29 28 30 31 32 33 36 39 41 44 47 48 50 50 49 48 48 47
10 12 15 17 21 26 26 27 28 28 27 27 27 28 28 27 25 26 27 25 25 28 28 27 28 26 27 28 32 36 38 40 42 43 47 41 41 38 35 33 32 32 33
10 12 14 16 19 20 21 21 23 22 20 21 25 26 23 22 24 27 29 36 27 27 29 26 25 27 30 33 36 38 41 37 30 26 27 22 26 21 21 19 19 20 21
10 11 12 13 14 16 17 17 18 19 20 23 23 21 18 19 22 29 30 28 28 29 29 26 27 31 33 34 29 22 20 18 19 21 22 18 23 18 17 17 19 21 23
10 11 11 14 15 18 18 16 17 18 18 19 22 22 21 21 22 23 28 24 23 25 27 30 31 30 23 16 15 16 18 18 20 21 25 21 21 19 17 17 21 22 25
10 14 13 12 13 15 13 10 11 11 10 11 14 19 20 19 21 23 25 26 28 31 32 30 23 12 12 14 16 18 20 19 19 20 25 27 23 23 18 16 19 21 25
15 14 11 11 14 14 16 15 15 14 17 16 17 19 21 23 26 28 31 32 32 32 26 16 10 12 13 15 17 17 19 20 22 20 25 26 22 27 23 13 16 20 24

GFSMA_700_spd_039.txt.gz
Wind_Speed
20 19 20 21 22 23 23 24 23 23 23 22 22 22 23 24 21 22 23 22 21 21 21 19 18 16 15 14 12 10 9 9 9 9 9 9 9 10 10 11 11 11 12
24 25 24 25 25 25 25 25 25 26 26 26 25 25 25 27 24 23 24 24 22 21 22 21 19 18 16 15 14 13 11 11 10 10 11 11 11 12 12 12 13 13 13
26 26 27 26 25 27 28 29 28 28 28 28 28 28 27 29 29 25 25 26 25 23 22 22 20 19 18 18 16 15 14 14 13 12 12 12 12 12 12 13 13 13 14
26 28 29 28 29 30 29 30 29 29 28 27 28 29 29 29 32 29 28 28 27 25 24 23 22 21 21 20 19 18 17 17 16 15 14 14 14 14 14 14 14 14 14
31 32 30 28 29 31 31 31 32 32 31 29 30 30 30 30 31 34 32 30 29 28 27 25 23 22 23 22 22 22 20 19 19 18 17 16 16 16 16 16 16 15 16
34 33 33 33 31 30 31 31 32 32 32 31 32 33 33 33 33 33 35 32 30 30 29 27 26 24 24 24 24 24 23 23 22 22 21 21 20 19 18 18 17 17 17
38 38 35 35 37 35 33 33 34 35 33 31 34 36 36 34 34 33 34 34 31 30 30 29 29 27 26 26 27 27 26 26 25 24 24 24 24 24 23 23 22 22 21
41 41 41 38 39 41 39 40 39 39 36 35 36 36 38 36 35 33 34 34 34 34 32 31 31 30 29 28 29 29 29 29 28 28 29 28 28 28 28 28 27 27 26
37 40 42 41 42 42 43 42 43 40 41 39 39 40 40 40 36 33 34 35 35 36 34 33 32 33 32 31 31 32 32 31 32 30 31 32 32 31 31 31 31 31 32
32 34 36 39 41 40 41 42 43 44 43 44 43 43 42 42 41 41 37 36 36 35 34 33 32 33 33 33 34 34 35 32 35 33 34 35 34 34 33 33 32 33 33
32 32 33 36 39 40 38 39 41 44 46 46 48 46 45 45 46 45 45 41 40 37 39 37 40 36 38 39 39 39 39 36 36 36 37 37 37 36 34 35 36 37 38
33 33 33 34 34 35 36 35 37 40 41 42 47 47 49 48 47 47 47 46 44 42 41 44 40 39 42 45 44 42 42 42 42 51 46 44 47 38 38 37 38 39 41
38 37 33 29 33 33 34 37 41 44 44 46 45 42 45 48 41 45 46 47 46 45 46 50 47 43 46 48 49 46 47 46 47 47 46 50 45 40 40 39 39 40 40
38 39 36 34 35 35 37 39 40 41 42 42 43 44 46 45 38 42 40 43 46 46 47 52 54 46 52 51 51 51 45 47 53 50 45 34 39 41 40 38 42 42 43
38 38 37 37 39 39 38 38 39 40 43 44 43 41 39 41 41 41 42 40 40 46 48 51 55 53 52 52 47 50 45 42 44 41 41 43 37 40 41 44 45 48 47
33 31 31 35 37 37 37 36 35 35 36 40 42 40 36 38 39 38 39 39 39 41 46 43 53 47 46 52 48 41 37 37 42 39 33 34 38 43 44 43 41 43 42
28 28 29 31 32 32 31 31 31 33 32 31 30 30 27 23 29 42 32 35 36 37 40 44 43 39 32 34 29 29 30 33 27 32 35 38 42 39 39 40 41 40 42
25 26 26 26 25 25 27 28 30 30 33 36 40 40 42 47 22 29 38 26 30 36 35 39 34 20 18 21 22 29 31 33 30 30 32 34 34 35 36 38 42 45 47
23 23 20 20 21 21 22 24 25 27 28 33 28 22 26 26 25 27 32 29 30 24 30 27 20 24 21 25 24 26 27 28 25 27 30 32 37 39 40 43 46 48 50
15 15 16 16 17 17 18 19 21 24 25 26 25 26 23 24 28 29 29 25 24 20 17 15 20 18 19 22 20 22 23 26 27 32 36 37 40 41 43 43 41 39 38
11 11 12 12 14 16 18 20 21 23 23 21 17 20 25 26 26 21 22 22 17 20 24 21 17 18 18 19 20 23 26 30 31 35 36 34 30 27 27 26 26 26 25
10 10 11 11 12 13 14 15 17 18 18 18 20 23 24 24 22 23 20 24 21 23 23 19 19 21 20 22 24 27 29 30 25 22 18 20 22 22 24 23 24 24 23
10 10 9 9 13 15 17 16 18 18 17 17 18 19 20 19 18 22 20 22 18 18 19 19 20 20 23 26 26 21 15 13 15 19 17 17 22 21 22 22 23 24 25
6 5 7 10 13 16 13 10 11 13 16 16 15 16 17 16 19 20 20 21 20 22 22 23 25 27 27 22 13 12 13 13 15 18 19 16 21 20 20 21 22 24 27
10 9 11 11 12 13 13 11 12 17 16 14 13 14 14 15 18 20 21 23 25 27 29 29 28 25 17 13 13 12 12 13 15 19 23 22 21 20 19 18 21 24 27
12 8 7 9 11 14 15 16 17 18 18 18 19 21 22 24 25 27 27 27 27 27 27 23 18 13 14 13 13 13 14 16 17 18 23 24 22 22 17 13 16 21 26

GFSMA_700_spd_042.txt.gz
Wind_Speed
18 18 17 18 19 19 20 21 22 23 23 24 25 25 25 23 22 22 21 21 21 22 21 20 20 18 17 17 15 14 13 12 11 10 9 9 10 9 9 9 9 9 10
21 21 21 21 21 21 22 23 23 24 25 26 26 27 27 27 26 25 24 24 24 23 23 23 21 20 19 18 17 16 15 14 13 12 11 11 11 11 11 11 11 11 11
22 23 23 23 23 25 26 26 26 26 25 25 26 26 28 29 28 27 26 26 26 25 25 25 24 22 20 19 18 18 18 17 15 14 13 13 12 12 12 11 11 11 11
24 25 25 25 26 26 27 28 29 30 30 28 27 28 28 29 29 28 28 27 27 28 27 27 26 25 23 21 21 20 20 19 18 17 16 15 14 14 13 13 13 12 11
27 28 29 29 28 28 28 28 29 29 29 29 30 30 30 31 32 31 30 30 29 29 29 28 27 26 26 24 23 23 23 23 22 21 19 18 17 17 16 16 15 15 14
30 31 30 30 30 31 30 29 30 31 32 30 33 33 32 32 34 33 32 32 31 29 28 29 29 28 28 27 26 25 26 26 25 25 24 23 22 21 20 19 18 17 16
33 34 35 36 36 36 34 34 34 35 35 34 35 37 37 35 35 34 34 33 31 29 29 29 30 30 30 30 29 29 29 29 29 28 27 27 26 25 23 23 23 23 22
36 38 38 38 39 38 38 38 38 38 38 38 39 38 42 41 38 35 35 35 33 32 31 30 31 32 32 33 32 32 32 32 32 32 31 30 29 29 29 27 28 27 27
36 37 36 39 39 38 39 38 38 38 39 40 40 42 45 46 43 39 36 36 36 35 32 32 33 32 33 34 35 35 34 35 35 35 35 34 34 32 34 33 31 32 31
34 35 35 36 37 38 38 39 39 38 39 40 42 42 44 46 47 47 45 40 39 40 39 36 34 35 33 35 39 37 36 36 38 39 39 40 39 35 38 37 34 35 34
31 31 33 32 34 37 37 38 40 41 41 40 41 41 44 46 46 49 50 50 44 43 42 41 39 37 39 42 45 40 41 41 39 43 44 46 44 41 42 40 38 37 37
31 31 32 32 33 35 33 35 36 37 37 38 39 39 40 41 48 45 48 54 55 44 43 45 45 42 43 48 42 43 49 41 42 49 49 51 49 48 50 51 46 44 44
35 35 34 34 35 35 34 36 37 36 38 39 38 40 40 41 41 44 46 51 46 48 52 47 45 42 46 47 44 51 47 49 50 56 54 52 52 57 54 48 44 51 45
36 37 36 35 35 34 34 36 37 39 40 40 41 41 41 41 40 39 40 42 45 45 45 49 39 39 42 45 45 45 46 43 45 45 57 52 55 58 55 46 46 43 35
35 34 35 33 33 35 35 35 36 36 36 37 37 38 39 39 40 41 41 39 41 45 44 46 46 38 39 44 43 46 44 45 39 41 39 46 40 37 38 47 43 39 37
29 29 27 28 30 31 32 32 32 33 34 33 32 32 33 34 34 33 35 37 36 41 54 54 40 36 40 35 41 38 31 21 20 28 30 34 30 33 38 35 36 38 40
26 27 29 28 28 29 29 29 29 29 27 28 30 30 32 35 39 41 40 37 39 42 39 41 36 37 38 30 31 29 18 19 24 25 30 28 28 29 33 36 38 37 36
27 29 29 27 26 26 26 25 25 25 24 24 25 27 29 32 37 29 25 32 34 35 32 31 19 30 29 35 27 27 24 25 29 29 28 27 31 32 32 33 33 35 37
28 26 25 24 22 22 21 21 22 22 22 22 23 25 28 28 24 26 30 32 33 32 25 26 18 11 18 20 18 21 24 25 26 25 27 27 29 29 31 33 35 38 40
21 20 18 17 17 18 18 20 21 22 23 23 25 26 26 23 22 25 30 32 26 24 19 16 17 20 20 18 17 19 23 25 23 26 26 28 30 32 33 33 31 28 27
12 13 13 13 15 16 18 19 19 19 20 21 21 22 23 22 24 27 27 20 21 17 19 27 21 19 20 20 20 21 22 24 27 29 30 31 29 26 23 21 22 24 25
12 11 11 11 13 15 17 17 17 17 20 21 22 23 23 24 24 22 18 18 21 20 24 23 21 19 18 20 21 24 27 29 31 31 25 21 19 20 21 21 23 24 25
11 10 8 8 10 8 6 5 6 8 13 14 16 18 20 19 17 17 20 19 19 19 19 19 20 20 21 23 26 28 29 28 23 20 15 19 21 21 21 23 23 24 25
6 6 3 5 5 7 8 8 11 14 14 14 15 14 15 15 14 14 17 20 21 22 23 23 25 27 27 27 26 24 19 16 17 19 18 18 22 20 21 23 23 23 25
3 8 8 2 3 7 8 10 11 12 13 14 16 16 17 18 19 20 22 22 23 25 26 26 27 27 25 22 18 16 16 18 19 21 20 19 20 20 22 23 22 22 26
6 5 4 5 6 9 10 11 12 13 14 16 17 18 19 20 21 21 22 23 24 24 25 24 24 23 19 16 16 18 18 18 18 19 22 22 21 22 20 22 22 23 27

GFSMA_700_spd_045.txt.gz
Wind_Speed
18 17 17 17 18 18 20 20 20 20 21 22 23 23 23 23 24 24 23 23 23 22 22 21 21 21 22 21 19 17 15 13 13 11 10 10 10 10 9 10 10 10 10
19 19 19 19 19 19 20 22 22 23 23 23 23 24 24 24 25 25 25 25 26 25 24 23 23 22 22 22 21 19 18 16 14 13 13 13 11 11 11 10 11 11 10
21 21 21 21 21 22 22 24 25 26 26 26 25 26 26 26 27 26 26 27 27 27 27 26 25 24 23 23 22 21 20 19 18 17 16 15 14 13 12 11 11 11 11
22 22 23 24 25 26 27 27 27 27 26 26 27 27 28 29 29 29 28 28 27 27 28 29 28 27 26 24 24 23 22 22 21 20 19 19 18 16 15 14 13 13 12
25 27 27 27 28 29 29 28 28 28 28 27 29 30 31 31 31 30 29 29 29 29 29 30 30 29 27 27 26 26 25 24 24 24 23 22 22 21 19 18 16 15 15
29 30 31 30 30 31 31 31 32 31 32 31 32 33 34 35 34 31 31 31 31 31 31 30 29 30 30 29 29 29 28 27 27 27 27 26 25 24 23 22 20 19 18
30 32 33 33 34 36 36 36 35 35 34 34 36 37 38 37 39 36 34 33 33 32 32 31 31 31 31 31 32 32 31 31 30 31 31 31 29 28 27 26 25 24 23
33 35 35 36 37 39 39 39 39 38 37 36 37 39 43 42 39 37 35 35 35 34 33 32 32 32 33 34 35 34 35 35 35 34 35 34 34 32 31 31 30 30 28
34 36 37 39 38 39 39 38 38 37 36 37 35 37 42 45 45 44 39 37 38 37 36 35 35 37 36 35 34 37 38 39 40 39 38 38 37 36 36 36 35 34 32
33 34 35 36 37 38 38 37 38 38 38 38 38 37 39 43 46 49 44 44 41 40 42 39 41 43 40 38 38 39 42 44 46 44 44 44 41 40 40 40 40 40 39
32 31 31 32 32 32 33 34 34 34 35 37 37 36 37 38 41 39 47 46 41 42 41 41 42 51 48 41 38 42 45 46 50 50 51 46 45 44 43 43 44 45 44
32 32 33 32 33 33 34 35 35 34 34 33 34 35 36 38 40 42 45 46 46 45 43 44 45 48 43 45 40 46 45 43 51 48 42 37 54 49 48 46 45 45 48
32 33 34 34 34 36 37 37 38 35 35 37 36 37 38 38 38 39 40 42 42 42 40 38 40 40 42 42 49 50 43 36 35 34 37 36 41 48 55 53 52 50 51
36 36 37 36 36 36 36 38 38 37 37 37 37 38 37 36 36 36 36 36 40 41 41 37 37 40 42 43 44 49 46 28 31 29 35 36 42 38 39 45 52 56 55
34 35 35 35 35 35 35 36 36 35 35 34 34 34 33 33 33 33 33 34 37 41 42 41 39 36 43 44 47 44 41 28 29 30 35 33 31 34 32 34 37 38 41
31 31 30 29 29 29 31 32 32 32 32 32 30 29 30 30 30 32 33 35 38 42 45 45 45 44 37 40 41 41 27 29 27 31 26 30 26 27 26 30 34 35 35
29 29 28 27 26 28 29 29 29 29 29 28 27 27 29 28 28 30 33 36 33 29 32 34 32 34 34 33 26 29 23 25 27 26 29 27 26 28 29 27 27 26 29
28 27 27 28 28 29 28 29 28 26 26 25 25 27 28 27 28 32 32 28 29 31 34 35 33 31 28 18 17 19 26 25 23 25 28 29 31 30 28 28 31 31 31
27 28 28 27 25 25 25 24 23 22 23 23 25 27 27 28 29 29 28 28 28 31 36 26 25 22 20 23 21 17 15 17 22 23 27 29 30 28 30 29 28 30 30
20 20 20 19 19 19 18 19 19 20 22 23 24 25 25 26 26 24 24 26 30 30 21 19 23 24 29 23 22 20 19 21 22 23 26 27 28 28 29 30 31 33 33
13 13 14 15 15 16 18 18 19 18 19 20 22 22 23 25 24 26 28 26 22 21 21 24 23 25 24 23 24 22 22 23 23 26 28 29 31 32 33 31 26 23 22
11 12 12 13 14 15 18 19 19 16 14 13 13 15 16 16 18 19 18 19 21 21 21 22 24 25 24 22 22 23 24 25 27 30 31 31 33 26 22 19 21 21 22
11 11 10 8 8 4 4 4 2 5 8 9 10 10 11 13 15 17 18 18 19 21 23 24 25 27 28 27 27 28 30 32 33 35 30 21 20 19 20 22 23 23 24
8 7 5 5 2 5 5 7 7 9 10 11 12 13 14 15 17 18 20 21 23 24 24 26 27 29 30 30 30 31 32 31 28 25 19 17 21 22 24 26 25 24 26
4 6 7 2 3 5 8 9 11 13 14 16 17 18 18 18 18 20 22 23 24 24 24 25 25 26 27 27 27 27 26 22 19 21 20 20 23 23 26 28 28 28 29
2 7 3 5 7 9 10 12 14 15 16 18 20 21 21 22 22 23 25 25 25 25 25 25 25 25 25 24 24 22 22 21 21 23 24 24 24 27 27 27 29 28 28

GFSMA_700_spd_048.txt.gz
Wind_Speed
15 15 16 16 16 17 19 20 20 20 21 22 22 22 22 21 21 21 22 23 24 24 24 23 23 22 21 21 20 18 17 16 15 15 13 12 11 10 10 10 10 9 9
17 16 17 18 18 19 20 21 21 22 23 24 24 24 23 22 23 23 23 24 24 25 26 26 25 24 24 23 22 20 19 17 16 16 15 15 14 13 12 12 12 11 10
18 18 19 19 20 22 23 23 23 24 25 25 23 24 24 25 24 25 25 25 25 25 25 26 26 26 26 25 24 23 22 20 19 19 18 18 17 16 15 13 13 12 12
20 20 20 21 23 25 26 26 27 27 26 26 26 26 26 25 25 25 25 26 26 26 26 26 28 28 27 28 27 26 25 25 24 23 22 22 21 20 18 17 15 15 14
22 24 24 25 27 28 29 29 30 30 30 29 30 29 30 31 29 28 26 26 27 27 27 27 28 29 29 28 29 28 29 28 27 26 25 25 25 24 22 21 20 18 17
26 28 29 29 31 31 31 32 34 34 35 34 33 33 33 33 33 33 31 29 29 29 29 29 29 30 31 30 30 30 30 31 30 30 29 29 29 28 27 26 24 23 21
28 30 30 31 32 34 34 36 37 37 36 36 38 38 38 37 36 35 33 33 30 29 31 31 31 32 32 32 31 33 34 33 34 33 33 33 33 32 31 30 29 27 26
31 32 32 33 35 37 37 38 39 40 39 36 36 36 40 37 35 35 34 34 33 34 34 34 34 34 35 36 36 35 33 34 37 39 37 36 38 37 37 35 33 32 31
33 34 35 35 36 38 38 38 37 38 38 36 35 36 40 42 40 38 38 36 36 37 34 35 37 39 39 40 38 40 37 39 38 42 43 44 41 42 41 39 38 37 36
33 34 35 35 36 37 37 37 36 36 36 35 35 34 36 39 40 42 41 38 38 34 36 36 36 37 38 43 48 46 36 44 45 44 46 47 51 45 43 44 43 42 40
33 33 33 32 32 33 33 33 31 33 33 35 35 36 35 33 34 38 44 43 42 42 42 41 37 36 37 40 43 41 42 46 50 44 43 43 40 42 42 52 48 47 48
33 33 33 34 34 35 35 33 34 34 34 35 33 34 33 35 37 38 42 44 44 42 39 36 35 35 36 36 38 35 40 38 41 48 43 40 34 40 38 28 36 53 46
33 34 35 36 35 35 36 36 36 32 30 33 35 32 34 34 36 37 39 40 40 37 34 31 29 29 31 34 35 39 37 39 37 34 39 40 37 32 31 30 28 30 40
32 34 35 35 36 36 37 37 36 34 36 37 35 34 33 34 33 35 35 34 35 35 32 30 31 33 33 34 34 38 39 42 38 41 39 35 41 33 32 31 34 34 35
32 32 32 32 32 34 35 36 35 35 35 34 33 32 31 31 31 29 29 31 33 36 34 30 29 27 29 27 30 36 40 41 33 34 34 31 36 27 29 32 36 33 32
30 30 30 29 28 28 28 28 28 29 31 31 30 30 30 29 27 26 28 30 31 32 32 27 29 29 32 30 29 28 33 26 26 31 27 26 26 27 29 29 27 26 27
28 28 27 27 26 25 25 26 28 28 27 28 28 28 26 25 24 26 28 29 30 30 28 28 30 34 32 25 26 27 26 19 20 25 24 27 27 26 25 23 25 26 27
28 27 26 26 26 25 26 26 25 25 24 24 24 23 22 23 24 25 27 27 25 24 26 28 31 27 23 21 22 27 28 22 18 21 23 25 23 23 25 24 26 28 28
27 27 25 25 24 21 21 20 20 19 20 20 20 21 22 23 23 24 23 23 23 26 29 29 24 22 22 21 24 28 21 21 17 16 17 19 21 21 23 25 25 26 28
19 20 20 19 17 15 15 16 16 18 18 18 19 21 22 21 21 22 23 24 26 26 24 23 24 24 23 23 23 24 21 21 22 21 19 20 20 21 23 26 26 27 30
16 15 13 12 11 12 13 15 16 17 16 17 19 20 21 20 20 22 22 21 21 20 22 24 23 23 23 24 24 23 23 21 22 23 24 24 25 25 27 29 30 32 34
13 11 10 10 9 10 12 13 11 9 7 6 11 13 12 10 12 15 16 18 19 20 21 23 25 25 26 26 26 27 27 28 29 28 29 29 31 31 32 31 27 22 20
10 9 8 7 6 2 3 4 3 5 6 7 10 12 14 15 17 18 19 20 21 21 23 24 25 26 26 27 27 28 28 29 29 30 29 29 31 28 23 21 20 21 22
8 6 5 4 2 4 5 5 6 7 9 11 13 15 16 17 19 20 21 22 22 22 22 23 24 25 25 26 26 26 26 27 26 27 25 22 23 21 21 22 22 22 24
4 5 5 6 4 6 8 9 10 12 14 15 17 18 18 19 20 22 23 24 24 24 24 24 25 25 26 26 24 25 25 24 23 24 21 19 22 23 24 25 25 26 27
5 8 8 5 6 9 11 13 15 16 17 18 19 21 21 21 22 23 25 25 25 25 25 25 25 25 25 25 24 23 23 23 22 24 24 22 23 27 26 26 27 29 30

GFSMA_700_spd_051.txt.gz
Wind_Speed
14 14 14 14 14 15 17 18 18 19 20 20 21 22 23 23 22 22 23 23 22 22 22 23 22 22 21 20 21 20 19 18 17 16 16 15 14 13 13 13 12 12 11
16 17 16 16 17 19 20 20 21 21 22 22 23 23 23 24 23 23 24 23 23 24 24 24 24 24 23 23 22 23 23 21 20 19 19 18 18 16 15 14 14 13 13
18 18 18 19 19 21 21 22 23 23 25 25 25 25 25 26 24 24 23 22 22 24 25 26 26 26 25 25 25 25 25 25 23 22 21 20 20 20 19 18 16 15 14
18 19 20 20 22 22 24 24 26 27 27 28 27 28 29 28 27 26 25 24 25 25 25 26 27 28 28 27 28 28 27 26 26 25 25 24 23 23 23 22 20 18 17
20 21 22 22 24 26 27 28 29 31 31 31 32 32 33 32 31 31 29 27 26 27 27 28 29 29 29 30 30 29 30 29 28 28 28 27 26 26 26 25 24 23 21
23 24 24 25 28 29 30 31 32 34 35 35 36 36 34 34 35 34 33 32 31 30 30 29 30 31 31 31 32 32 32 34 33 31 31 31 30 30 30 29 28 27 26
27 27 27 28 29 31 32 33 35 36 37 37 41 39 37 34 33 33 33 32 32 32 31 31 32 33 34 35 35 34 34 34 37 37 35 32 35 34 34 33 32 32 30
30 30 31 30 31 32 34 34 36 38 39 38 40 39 40 35 33 33 31 31 31 31 32 34 35 36 36 37 38 38 37 37 36 36 36 41 37 38 39 38 37 36 35
31 32 32 32 32 35 35 36 36 38 39 38 37 37 38 38 36 33 31 31 29 28 29 32 32 32 33 38 40 41 40 41 40 38 33 34 38 43 43 43 41 41 38
33 34 34 34 34 35 35 35 36 36 36 35 34 32 34 37 38 39 35 31 29 31 32 33 33 33 34 37 36 37 38 41 42 43 43 40 26 28 33 36 47 43 40
33 33 34 34 33 33 33 33 33 33 33 33 33 34 35 36 34 37 37 36 34 32 35 34 32 31 30 30 32 34 35 37 39 38 33 32 27 29 37 39 24 29 35
34 34 34 34 34 33 34 34 34 34 33 34 34 35 34 32 36 34 36 35 34 32 28 28 26 24 23 24 27 30 33 36 37 36 33 34 36 35 32 30 33 32 37
32 33 34 35 35 34 35 35 36 37 36 35 34 34 32 36 35 34 33 34 33 28 22 20 22 21 21 20 21 25 31 34 35 37 34 33 32 32 30 24 30 42 39
32 33 33 34 34 34 35 34 34 34 34 34 34 31 31 31 31 31 31 29 28 27 22 20 18 20 20 22 24 26 23 26 32 38 40 26 27 31 28 30 35 35 39
31 32 32 33 32 31 31 30 29 30 28 28 27 28 29 28 28 28 27 24 25 27 26 21 21 19 21 23 27 28 25 27 31 31 28 28 33 35 37 37 29 31 31
31 31 31 29 28 28 27 26 26 25 24 25 26 27 27 27 26 25 23 23 23 25 24 21 19 21 23 26 23 21 21 22 29 27 19 23 26 33 33 31 28 36 33
31 30 28 27 26 24 24 24 24 24 25 25 25 25 25 24 23 22 21 21 22 22 20 21 22 24 24 21 21 20 19 24 25 22 18 21 25 29 29 25 29 26 24
29 28 27 26 25 25 24 24 24 23 22 21 21 20 20 20 20 21 21 21 20 20 21 23 24 25 22 23 21 20 21 21 20 18 15 16 19 22 22 23 24 24 23
28 27 27 26 25 23 22 20 19 18 17 16 16 16 17 18 19 19 19 19 20 21 22 23 23 21 21 22 21 21 21 19 18 16 15 16 15 16 18 20 21 23 22
25 24 22 19 19 17 15 14 14 14 15 14 13 14 16 17 18 17 17 19 20 20 20 21 22 22 22 22 21 21 21 21 21 20 19 17 16 16 19 20 20 22 23
18 17 16 14 12 10 10 12 13 14 13 12 9 6 10 11 10 10 11 13 16 18 20 20 21 22 22 22 22 22 22 23 23 23 23 23 23 23 23 23 24 26 28
15 13 11 10 9 8 8 6 3 1 1 3 7 7 8 9 11 12 13 15 17 18 20 21 22 23 23 22 23 23 23 23 24 23 25 26 25 27 27 27 27 27 26
12 11 9 8 7 6 5 3 1 2 3 6 8 9 12 13 14 15 16 17 18 19 20 21 22 22 22 22 23 24 24 24 24 23 22 24 25 25 24 22 20 18 18
11 10 9 9 9 8 3 1 3 4 7 9 12 13 14 15 17 17 18 19 20 20 20 21 22 23 24 24 24 24 24 24 24 24 22 21 22 22 20 18 18 19 19
9 10 11 11 9 6 3 6 7 8 9 13 14 15 17 17 18 20 20 21 21 21 21 22 22 23 24 23 23 24 24 24 24 24 22 20 21 22 22 21 20 21 22
8 9 10 10 6 4 9 9 10 10 11 13 15 17 18 19 20 20 21 22 22 22 22 22 22 22 23 24 23 23 24 24 24 24 24 21 21 23 22 23 22 25 26

GFSMA_700_spd_054.txt.gz
Wind_Speed
15 15 15 16 16 17 17 18 19 19 20 21 21 21 22 24 24 24 24 25 25 25 25 25 25 24 24 23 22 23 22 22 21 20 20 19 18 17 16 16 16 15 15
17 18 18 18 19 20 20 20 21 22 22 23 23 24 25 25 24 25 25 25 24 25 26 26 27 27 27 27 26 25 24 24 24 23 22 22 21 20 19 18 18 17 17
17 18 19 20 21 22 22 22 23 23 24 25 26 27 28 27 27 28 28 27 27 27 27 27 28 29 28 28 29 28 27 26 26 26 25 25 25 24 23 22 21 20 19
17 17 19 21 22 23 23 24 26 27 27 29 29 30 31 31 31 32 31 29 29 30 30 31 31 32 32 31 31 32 31 29 27 27 28 27 27 27 26 26 25 24 22
20 21 21 22 24 25 26 27 29 30 31 32 33 32 34 35 34 34 34 34 32 32 32 32 33 34 34 35 34 33 34 35 31 28 28 30 29 29 30 29 29 28 26
25 25 25 25 27 28 29 30 32 33 33 35 36 36 37 36 37 36 35 33 32 32 33 35 35 34 34 34 35 35 36 36 37 34 31 30 30 31 32 32 32 32 31
28 28 28 29 30 31 32 32 34 34 36 36 39 39 40 38 35 33 33 31 32 32 32 33 34 35 35 36 37 37 37 36 35 35 37 38 36 32 35 36 36 35 35
29 30 31 32 33 34 33 33 35 36 37 38 39 39 40 37 37 31 30 29 28 29 30 31 32 33 34 35 36 37 38 37 37 34 36 35 38 35 36 37 38 42 38
31 32 33 33 34 34 34 34 35 37 38 37 36 36 37 36 35 34 30 29 29 30 27 26 28 30 32 33 35 34 36 37 37 33 33 33 26 31 32 32 36 34 36
32 33 34 35 35 35 34 34 35 36 36 36 34 33 33 35 35 38 33 27 28 27 29 30 30 31 32 33 33 34 34 34 33 34 34 35 36 39 40 38 36 34 27
34 35 35 35 34 33 32 31 32 33 33 34 34 34 33 34 34 36 34 34 28 25 28 29 29 26 25 27 28 28 27 28 30 32 32 32 32 35 33 35 28 24 28
37 37 36 35 34 33 33 33 33 34 34 34 34 34 35 34 34 34 34 35 33 26 25 25 24 23 23 24 24 23 24 22 25 27 29 29 31 34 33 33 30 32 33
38 37 36 35 34 34 34 34 34 34 34 35 35 35 32 34 36 34 35 34 31 26 23 22 21 22 23 22 21 21 22 23 24 24 24 26 32 37 38 33 32 31 29
35 35 35 34 34 34 34 34 33 33 33 34 33 32 33 35 30 30 32 31 29 26 19 22 19 19 22 19 20 20 25 27 27 25 27 28 31 35 28 28 35 31 33
34 33 34 34 33 33 33 32 31 31 30 29 28 27 27 26 29 29 28 28 26 25 21 18 18 17 17 18 21 24 23 21 20 21 25 28 23 19 33 28 35 33 37
34 34 34 33 32 32 31 30 29 28 27 26 25 25 25 26 26 26 26 25 23 23 24 18 16 17 18 19 20 20 22 21 20 22 24 22 20 15 29 36 39 39 40
34 34 34 33 32 31 29 29 27 27 26 25 25 25 25 24 24 24 24 22 22 22 21 19 19 19 20 20 19 20 20 21 23 23 24 20 16 15 22 29 33 37 36
34 33 33 32 31 30 29 28 28 27 26 24 22 21 20 20 20 21 21 21 21 20 19 20 21 19 18 19 20 20 20 21 22 20 19 18 17 15 16 20 23 26 26
32 31 30 30 29 29 28 27 26 22 20 18 17 16 16 17 19 20 19 18 18 17 18 19 17 19 19 20 21 21 21 21 22 22 22 20 18 18 18 17 18 20 21
30 29 28 27 27 26 23 21 18 16 16 15 15 13 13 10 9 10 10 11 13 13 13 15 16 18 19 21 21 21 22 22 22 22 21 21 21 20 19 19 20 21 21
28 27 26 23 21 19 17 15 14 14 14 13 11 8 7 8 8 8 8 10 12 13 15 17 18 20 21 21 22 22 22 22 22 23 24 24 24 24 23 23 23 24 25
24 22 21 19 17 15 14 13 13 10 7 6 7 6 7 8 9 11 13 14 15 16 17 18 20 21 21 22 22 23 23 23 23 23 25 25 24 25 25 25 25 25 26
20 19 17 16 14 13 11 10 9 7 7 7 6 7 9 10 12 13 15 15 16 18 19 20 21 21 22 23 23 24 24 23 24 23 24 25 25 24 25 24 24 23 21
18 17 15 14 13 13 12 10 8 7 7 7 9 11 12 12 14 16 17 17 18 19 20 20 21 21 22 23 24 23 24 24 24 24 24 24 25 25 23 23 22 22 22
16 16 14 14 14 13 11 9 7 7 9 10 12 13 13 14 16 16 17 18 19 19 20 21 21 22 22 22 23 23 24 24 25 25 24 24 24 25 24 23 23 24 24
14 13 14 15 13 12 9 9 10 11 10 12 14 14 15 15 16 18 18 19 20 20 20 20 21 21 21 21 22 23 24 25 25 26 26 24 25 25 24 25 24 26 27

GFSMA_700_spd_057.txt.gz
Wind_Speed
15 16 16 17 18 18 18 19 19 20 21 21 21 21 23 23 24 24 24 25 25 26 27 27 27 27 26 26 26 26 26 26 25 24 23 22 21 21 20 19 18 17 17
16 17 18 18 19 20 20 21 22 22 22 22 23 24 25 26 26 26 26 28 27 29 29 29 29 30 29 29 28 27 26 26 26 26 24 24 23 22 22 21 20 19 19
16 17 18 19 20 21 22 22 23 23 24 25 26 27 28 29 30 29 30 30 31 30 31 32 32 32 32 32 32 32 30 28 27 26 26 25 25 24 24 24 23 22 21
18 19 19 20 21 22 23 23 24 25 26 27 29 31 31 32 33 32 32 33 33 33 34 32 34 35 34 33 33 33 34 31 28 28 26 27 26 26 24 24 25 25 24
22 22 22 23 24 25 26 26 28 28 29 29 31 33 34 34 36 35 34 35 35 33 31 34 32 34 35 34 34 33 32 34 35 31 29 27 27 26 26 25 26 27 27
25 26 26 26 27 27 28 29 29 29 31 33 35 36 37 37 37 36 34 32 32 32 32 31 33 31 32 34 34 33 32 32 33 34 33 29 28 29 29 29 28 29 30
28 28 28 29 29 30 31 31 33 35 35 36 36 36 38 37 38 35 32 29 28 29 29 29 29 30 32 30 32 34 33 31 31 32 33 32 31 30 32 31 34 33 32
30 30 29 30 31 33 34 35 35 36 36 36 37 37 39 35 36 35 28 28 28 29 30 28 28 29 29 30 32 32 33 33 31 30 30 30 32 30 38 37 31 29 30
31 32 32 33 34 35 35 35 36 37 38 38 36 36 38 34 34 34 32 29 29 29 29 29 28 29 30 32 33 33 32 33 32 31 31 32 29 30 32 36 35 37 40
34 34 35 35 35 36 36 36 36 36 36 36 34 31 31 33 33 34 33 30 27 25 30 30 30 30 30 31 32 30 31 29 29 27 27 27 27 27 32 37 39 40 34
36 36 37 37 37 38 37 36 34 33 33 33 33 34 32 32 32 34 35 31 30 27 30 32 29 30 28 27 28 28 26 25 23 25 25 25 26 25 29 35 34 35 30
37 38 38 39 39 38 36 35 34 33 33 33 32 33 35 34 33 31 32 33 34 32 29 30 27 26 26 26 24 25 23 22 22 22 23 23 24 26 26 31 36 37 32
38 38 38 39 38 36 35 34 34 33 32 33 33 33 34 34 34 28 35 34 31 30 27 29 23 22 24 26 23 22 20 21 21 23 24 24 22 21 22 29 30 31 26
39 39 39 38 37 36 35 34 33 33 32 32 32 32 32 32 31 31 33 29 33 29 25 28 19 22 22 23 21 20 21 22 24 21 21 18 20 23 24 29 30 32 28
40 40 38 37 36 35 35 34 34 32 31 31 31 31 30 30 28 29 28 30 29 29 24 21 21 20 21 18 19 20 22 21 20 20 19 20 24 22 22 25 25 30 30
39 38 37 37 36 35 35 34 33 31 30 29 29 29 28 27 27 28 27 27 27 26 24 20 18 19 18 18 19 19 19 19 19 19 21 22 22 21 20 17 19 26 29
36 37 37 36 36 36 35 34 32 31 30 29 28 28 27 27 26 25 25 24 23 23 22 20 19 18 18 18 17 17 19 20 20 19 20 19 19 18 18 16 17 23 27
35 35 35 35 35 36 35 33 31 30 30 28 28 27 24 24 22 21 21 21 21 21 20 19 17 18 17 17 17 17 18 20 21 21 21 21 20 19 18 17 16 19 23
35 35 36 36 35 33 33 32 31 30 28 27 25 22 20 19 18 18 20 19 18 17 16 17 16 14 16 17 18 18 20 21 21 22 22 21 21 21 20 19 18 17 19
36 35 36 36 35 33 32 31 29 27 25 23 21 19 18 16 13 9 8 7 8 9 11 13 13 15 18 20 20 21 21 22 22 23 23 23 23 23 23 22 20 22 23
35 35 34 34 32 31 29 27 24 22 21 19 19 18 16 13 11 10 9 9 11 13 15 16 17 19 19 20 21 22 23 23 23 24 25 25 25 24 24 24 23 23 24
33 32 31 28 26 24 22 21 19 19 18 18 16 13 11 10 10 11 12 14 15 16 18 18 20 21 21 21 22 23 23 24 25 23 25 25 25 25 24 24 24 25 25
29 27 25 23 21 19 18 17 16 14 11 10 9 9 10 10 12 14 15 17 18 19 20 21 22 22 22 22 22 22 23 23 23 23 23 24 25 25 26 26 26 25 24
25 22 20 19 18 16 16 15 13 11 10 9 9 10 10 12 14 14 17 19 20 22 21 23 23 23 23 22 22 22 22 21 21 22 23 23 25 25 25 25 27 27 26
22 18 17 18 16 16 16 15 12 11 10 10 11 11 12 14 15 16 17 18 20 20 22 23 24 23 22 22 22 21 21 21 22 22 23 24 24 25 24 24 24 26 26
20 18 17 17 17 16 16 14 12 11 10 11 11 13 13 14 15 16 17 19 19 20 21 22 23 23 22 22 22 21 21 22 23 23 24 24 25 25 25 25 25 26 26

GFSMA_700_spd_060.txt.gz
Wind_Speed
14 13 14 14 15 15 17 17 18 19 19 20 20 20 21 22 23 23 24 24 25 27 27 28 27 26 26 25 24 23 22 23 24 23 22 21 20 20 19 19 18 17 16
13 13 14 16 16 17 18 19 19 20 20 21 21 23 24 25 26 25 26 27 27 28 29 30 30 29 29 28 27 26 25 24 23 24 22 22 21 20 20 19 19 18 18
13 13 15 15 17 17 18 19 20 21 21 23 24 26 27 27 27 29 28 31 32 29 29 30 30 30 30 30 30 28 28 27 25 22 20 23 23 22 21 20 20 19 19
14 15 17 18 19 19 20 21 22 23 24 25 26 26 27 30 32 34 34 34 34 34 31 28 27 28 28 29 29 26 27 28 26 27 25 22 23 24 22 21 22 21 20
16 18 20 21 21 22 24 23 24 25 27 27 28 29 30 33 32 32 33 33 32 32 30 28 26 25 27 28 28 28 26 25 26 27 26 26 24 23 23 22 23 23 23
19 21 22 24 24 26 26 26 27 28 30 30 33 33 32 34 34 33 33 31 30 27 26 27 26 26 26 27 28 28 27 26 23 26 27 27 25 24 25 25 22 24 22
23 24 26 26 27 27 27 28 30 32 32 33 34 34 33 32 33 33 34 29 27 27 25 27 27 27 28 28 27 27 27 26 26 25 26 24 28 27 27 27 28 25 25
27 27 27 27 28 29 30 31 32 33 35 35 36 38 39 34 34 32 29 28 26 27 29 28 26 27 26 28 28 27 28 30 30 28 26 27 26 27 28 31 29 28 25
27 28 28 30 31 33 33 33 33 35 37 37 35 35 37 36 32 32 32 28 26 28 31 29 26 28 28 28 27 28 28 28 27 27 25 25 26 27 27 28 33 30 37
30 31 31 33 34 35 35 35 36 37 38 36 34 31 31 33 33 34 30 31 30 27 30 31 29 29 28 27 27 26 25 25 24 22 22 21 21 22 18 21 26 30 32
30 32 33 34 34 36 37 38 38 37 36 35 34 33 32 32 32 34 34 30 31 30 28 30 29 28 27 25 24 24 24 24 23 21 21 21 21 21 21 19 22 26 31
34 34 33 34 36 36 37 38 37 36 35 35 33 32 33 33 32 32 32 30 29 27 28 27 28 26 27 23 23 24 21 22 20 19 20 20 21 20 19 19 24 26 30
34 34 33 36 37 38 38 37 35 34 34 33 32 32 32 32 32 31 31 29 27 28 34 26 25 23 23 22 23 22 19 19 17 18 20 19 19 18 16 19 22 23 26
36 37 38 39 39 38 38 36 35 33 32 32 32 31 31 30 31 30 25 29 25 31 28 29 24 21 22 21 21 20 19 17 17 17 16 16 15 15 17 19 22 26 26
40 41 42 41 40 38 37 36 35 33 33 32 31 30 29 29 28 26 29 26 29 29 27 25 23 20 20 20 20 19 18 18 15 15 15 15 15 15 17 18 20 19 22
42 43 43 41 39 38 37 37 36 34 33 32 31 30 29 28 27 26 25 25 26 26 26 23 20 19 20 19 19 19 19 18 17 17 17 17 15 14 14 16 17 16 17
42 39 38 38 37 37 37 37 36 35 33 31 30 30 28 28 27 26 25 24 22 23 22 20 18 19 17 18 18 18 18 17 17 17 17 17 17 17 16 16 16 15 14
38 37 38 38 38 37 38 38 35 36 34 31 29 29 28 27 26 23 22 21 21 22 20 18 16 16 16 17 16 17 16 17 18 18 19 18 18 18 17 17 17 16 15
37 38 38 37 37 37 37 37 36 33 33 31 29 28 27 25 22 19 18 19 20 18 15 13 14 13 13 14 14 16 18 19 19 19 19 19 19 19 18 18 18 18 18
35 35 35 36 35 35 35 34 34 31 30 30 28 26 23 20 18 16 14 11 9 9 10 11 12 13 14 17 17 18 18 20 20 20 20 20 20 21 20 20 19 19 19
33 34 34 35 35 34 33 32 31 30 28 26 24 20 18 17 15 13 12 10 11 12 13 14 15 16 17 18 19 20 21 23 21 21 22 22 21 21 20 20 20 20 21
32 32 33 33 32 31 30 28 27 25 22 21 19 18 17 16 13 12 12 12 13 14 15 16 17 18 19 21 21 21 23 23 22 21 21 21 20 20 20 21 21 22 22
31 31 31 30 28 25 23 23 21 19 17 18 18 15 13 12 12 12 13 14 15 15 17 17 19 20 20 22 20 21 22 22 21 19 19 20 20 20 20 21 22 22 23
30 30 28 26 23 21 18 17 16 14 12 11 11 11 11 12 12 13 15 15 16 17 16 17 20 21 21 22 21 21 22 21 20 19 18 18 19 20 21 21 22 22 23
28 27 24 21 18 18 15 14 14 14 12 11 12 12 12 13 14 14 15 15 15 16 15 17 20 21 21 21 20 21 21 20 20 18 19 19 19 20 21 22 23 24 24
24 22 19 18 16 16 15 14 14 15 13 12 13 13 13 14 15 15 15 15 14 15 16 18 20 21 21 21 20 20 20 19 19 19 20 20 21 21 21 22 23 24 25

GFSMA_700_spd_063.txt.gz
Wind_Speed
12 10 10 10 10 11 12 13 14 14 15 15 16 17 17 19 20 21 21 22 23 25 26 26 26 25 24 22 21 19 19 19 19 19 19 18 17 16 15 15 14 14 14
14 12 12 11 11 12 13 14 14 15 15 17 17 19 20 21 21 20 24 23 24 25 25 26 28 27 25 22 20 19 20 19 18 18 18 18 17 18 17 16 15 15 15
15 13 12 12 13 14 15 15 16 18 19 20 21 23 23 23 23 27 29 28 27 29 28 25 24 25 25 24 22 18 19 21 21 21 18 18 19 18 17 17 17 16 15
16 14 14 13 15 16 17 18 20 20 21 22 22 24 25 28 28 28 29 29 30 29 29 28 24 24 23 23 23 20 17 20 23 23 21 20 20 19 18 16 16 16 16
17 15 15 16 18 19 20 20 21 22 22 23 25 26 27 28 28 26 27 28 29 30 28 24 23 23 23 24 24 23 21 19 21 21 22 22 21 21 21 18 18 18 18
18 17 17 18 20 22 22 23 22 24 26 27 28 29 29 29 30 29 29 30 32 27 25 27 24 25 25 23 23 23 21 19 19 19 21 22 25 22 22 21 21 20 20
20 19 18 21 23 23 24 25 26 28 29 30 32 31 32 31 28 27 28 30 28 28 28 26 26 27 24 22 23 23 23 22 22 22 22 23 22 24 25 22 21 21 24
19 20 22 23 23 24 25 27 29 31 32 31 35 36 36 33 28 28 27 26 27 29 31 28 27 27 25 25 24 23 23 23 24 24 23 23 23 25 25 25 27 24 24
22 23 24 25 25 26 28 29 32 33 34 34 35 36 37 36 31 29 29 29 29 29 32 31 27 25 24 28 26 24 23 21 20 21 21 20 20 20 21 24 27 26 24
23 24 25 27 27 30 31 32 34 34 36 36 36 34 33 33 33 33 30 29 31 31 33 31 27 24 23 24 24 23 21 20 19 19 19 18 18 17 17 18 19 21 20
26 26 28 28 30 32 34 34 35 35 36 36 35 33 31 31 32 33 33 28 33 33 33 32 28 25 24 25 24 21 21 20 19 18 17 17 17 17 16 17 16 19 21
28 30 32 32 32 33 34 35 36 36 36 36 34 33 31 32 31 32 33 30 29 29 32 27 28 26 23 24 23 19 20 19 17 16 16 16 17 18 18 18 17 20 24
31 32 34 33 34 34 35 37 36 37 37 35 34 33 32 32 32 30 30 29 28 27 25 28 27 25 24 24 22 19 19 17 15 15 16 16 15 15 15 15 16 18 20
43 34 35 37 38 38 38 38 38 38 37 35 34 33 32 32 32 30 28 28 26 22 28 29 27 23 23 23 21 20 19 17 14 14 13 12 11 12 12 16 16 16 18
40 40 38 41 41 41 41 40 39 39 38 36 35 34 33 31 30 28 28 24 24 29 29 28 26 23 22 20 19 19 18 18 17 16 14 13 12 12 13 14 14 13 14
35 37 39 41 41 41 39 38 38 37 37 37 35 34 33 31 29 27 26 25 25 26 27 25 23 23 21 19 19 18 18 19 16 15 14 13 13 14 15 15 16 14 13
34 34 35 35 39 38 38 37 37 37 38 35 35 34 31 30 28 26 25 25 25 24 24 24 22 22 19 19 17 18 18 17 16 15 15 14 14 14 14 14 14 14 13
37 37 44 33 40 37 37 37 36 35 37 35 34 33 30 30 27 26 25 24 22 21 22 22 21 20 16 17 17 17 15 15 16 17 16 16 16 15 15 15 15 16 15
42 40 39 39 41 39 37 37 36 34 34 34 31 31 30 29 27 26 23 21 18 19 18 16 14 14 13 14 14 15 16 17 17 17 17 17 17 17 16 16 16 17 17
38 38 38 37 38 37 36 36 36 34 33 32 31 29 28 27 26 23 19 16 15 12 10 9 9 11 12 14 16 16 16 17 17 18 17 17 17 18 17 17 17 17 16
34 35 35 34 34 34 34 34 34 32 31 29 27 27 25 22 21 19 18 16 14 12 11 10 11 12 14 15 16 17 17 17 18 19 18 16 18 17 16 16 16 16 16
32 33 33 33 32 33 33 32 31 29 27 25 24 22 19 18 17 17 15 15 13 13 12 14 14 15 16 16 16 16 18 17 17 20 18 16 16 17 16 16 16 16 17
30 31 31 32 32 32 31 29 25 24 23 20 18 17 17 17 16 15 14 14 14 14 15 16 16 16 16 16 16 16 17 17 18 17 17 16 16 16 16 17 16 16 17
29 30 30 30 31 29 26 24 22 19 17 16 16 15 14 14 13 13 12 13 14 15 15 16 16 15 15 17 17 17 17 17 17 16 16 16 16 16 16 17 17 18 18
29 29 29 29 27 24 20 18 16 15 13 12 12 11 12 13 12 12 12 13 15 15 15 16 15 15 17 17 17 18 18 17 16 17 16 17 17 17 18 18 18 18 19
28 29 28 26 22 19 17 15 14 14 13 12 12 11 13 12 12 12 13 14 14 14 15 15 16 17 18 17 17 17 17 18 17 17 18 18 18 19 18 19 19 19 21

GFSMA_700_spd_066.txt.gz
Wind_Speed
11 11 10 9 9 9 9 10 11 12 13 13 14 14 15 16 17 17 17 20 22 23 22 23 23 23 21 19 17 17 16 17 17 16 16 16 15 13 13 13 13 13 12
14 13 12 11 9 9 9 10 11 12 13 14 15 16 17 18 17 17 18 22 21 22 22 21 20 23 22 20 18 16 17 16 17 16 17 16 15 15 15 14 14 15 14
17 15 13 13 12 11 11 12 13 14 15 16 17 18 19 21 22 23 23 23 24 24 24 28 25 22 21 19 18 16 16 17 19 19 20 18 17 16 15 14 13 13 14
20 17 16 14 13 13 14 15 15 16 17 17 19 20 22 23 24 24 25 26 26 26 25 26 25 23 22 20 20 18 16 16 18 20 21 20 19 18 17 15 15 13 15
22 20 18 16 15 15 16 17 17 18 18 20 21 24 24 24 25 26 26 28 29 28 26 23 24 23 22 21 22 20 18 18 18 19 19 22 21 20 19 18 16 14 16
24 22 20 18 17 18 19 19 19 20 21 24 25 26 26 26 27 25 27 28 28 27 25 23 23 22 21 22 21 21 20 19 18 17 18 19 22 23 21 19 20 19 18
24 22 20 19 18 20 21 21 22 23 24 26 29 29 30 31 31 27 25 26 27 26 27 25 23 24 23 23 22 22 22 21 21 19 20 21 24 24 22 23 20 17 16
25 23 21 21 21 21 21 24 25 26 27 28 32 34 35 33 32 29 26 24 25 27 26 25 26 27 27 25 25 23 22 21 21 21 20 20 21 23 25 24 24 20 20
23 23 23 22 23 22 24 26 26 29 31 30 32 35 38 37 35 32 29 27 28 29 28 28 28 28 26 25 25 22 21 20 20 19 18 19 19 18 20 24 25 25 24
22 23 23 23 25 25 24 27 29 30 33 32 33 34 36 37 35 34 29 29 30 30 30 30 31 29 27 20 21 21 20 19 18 18 18 18 17 16 15 16 18 18 21
25 27 25 24 25 26 27 30 30 32 34 34 35 34 34 34 33 34 33 28 31 32 32 32 31 29 22 18 20 21 21 19 18 18 17 16 15 13 12 13 16 18 21
37 30 23 24 29 28 27 31 33 35 36 37 36 36 34 34 31 33 34 31 30 33 32 31 28 28 23 22 22 21 20 18 17 16 17 15 15 14 13 14 16 17 18
28 21 24 27 27 28 35 36 39 40 40 39 37 37 36 34 33 32 32 31 31 30 34 32 27 22 27 24 24 22 19 17 17 15 14 14 13 12 12 13 13 15 15
24 30 35 40 50 44 36 40 39 41 41 40 39 37 36 35 35 35 33 31 30 30 32 29 26 28 26 24 24 22 19 18 15 15 14 13 12 12 12 13 12 14 15
29 33 34 32 34 34 38 42 41 41 40 39 38 36 36 34 34 34 32 31 30 30 29 26 32 31 26 24 23 21 19 19 16 15 16 15 15 14 13 14 13 14 15
46 40 36 37 35 35 35 38 36 36 38 36 36 35 34 33 32 32 31 30 29 28 31 28 30 27 25 22 22 20 18 18 15 15 14 13 14 13 14 14 14 14 14
34 33 39 37 43 43 41 42 38 36 41 38 36 34 33 32 32 30 30 29 28 28 28 29 25 24 23 21 20 18 15 16 16 13 12 14 14 14 14 14 13 13 14
34 38 36 36 37 41 42 40 39 42 40 38 37 34 33 32 30 29 28 28 28 27 28 26 23 22 21 19 16 15 15 14 12 12 13 15 14 15 16 14 14 15 15
36 37 38 42 42 40 40 40 41 40 40 37 38 35 33 32 30 28 28 28 27 25 25 22 22 19 15 14 12 11 13 13 13 14 15 15 14 15 17 16 16 16 17
36 38 39 37 36 36 38 38 38 39 37 36 36 35 33 31 29 28 27 26 24 21 20 18 15 13 12 12 13 14 15 15 16 16 16 16 15 15 17 17 16 15 15
31 32 33 34 34 34 34 34 35 35 35 34 33 31 32 30 28 26 24 22 20 19 16 14 13 12 12 14 15 17 16 17 18 17 17 17 16 15 16 16 15 15 15
28 29 30 31 31 32 32 33 32 33 33 31 31 29 27 25 25 23 20 19 19 18 15 15 14 14 15 16 17 18 17 19 19 18 17 16 16 15 15 14 14 15 15
26 27 29 30 31 32 32 32 32 31 30 27 27 25 23 21 20 19 18 18 17 16 15 14 15 15 16 16 18 18 18 19 19 19 17 16 15 16 15 15 15 16 16
26 29 30 30 31 32 32 32 31 28 26 23 19 18 19 19 18 17 17 16 15 14 14 15 15 15 15 15 16 17 18 19 19 18 17 17 16 16 17 16 17 17 17
28 28 29 29 30 30 30 29 26 23 19 16 14 13 13 13 13 12 12 14 14 14 14 14 14 13 14 15 16 17 18 18 18 18 17 18 17 17 18 18 18 19 19
27 26 27 27 28 28 26 24 21 17 15 14 12 11 11 11 11 12 11 13 14 14 13 13 12 13 14 15 16 16 17 17 17 18 18 19 19 19 20 20 19 20 20

GFSMA_700_spd_069.txt.gz
Wind_Speed
10 10 9 10 10 9 9 9 10 10 11 12 13 14 15 16 16 17 17 19 21 21 21 19 18 20 19 19 16 16 16 16 17 16 15 14 14 14 13 13 13 12 13
14 13 12 13 12 11 10 10 10 10 12 13 14 14 15 17 17 18 19 20 20 21 21 22 23 21 19 17 16 14 14 17 17 17 17 16 15 14 14 14 13 12 13
17 17 16 15 15 13 12 12 12 12 14 14 15 15 17 19 21 21 21 22 23 24 23 23 25 24 18 17 16 17 17 17 17 19 19 19 18 16 14 14 13 12 12
22 21 20 18 17 15 14 14 14 15 15 15 15 17 19 20 22 23 24 26 26 25 25 23 24 23 21 18 17 18 19 18 18 19 18 20 19 18 17 15 15 14 14
24 24 22 21 20 18 16 15 16 16 17 17 19 20 20 21 22 23 24 27 27 25 24 23 23 22 22 21 21 20 18 17 18 18 18 18 20 20 19 18 17 15 15
26 25 24 23 22 19 17 17 17 18 19 20 21 22 24 24 26 25 24 26 27 26 24 22 22 22 21 22 23 23 21 20 19 19 18 20 20 17 19 18 18 18 18
27 27 26 25 23 20 19 19 19 19 21 23 25 26 26 28 28 30 28 27 26 26 24 23 23 23 22 22 24 24 23 22 20 19 19 20 21 24 25 20 21 21 20
29 28 26 25 23 21 20 21 21 21 22 24 29 31 31 29 30 29 29 27 27 25 24 24 24 24 24 26 24 26 24 22 20 19 19 19 18 20 23 26 26 22 20
28 26 25 25 23 22 21 21 21 23 23 25 29 32 36 35 33 32 31 30 29 29 27 25 25 26 25 25 24 25 23 21 19 19 18 18 17 18 19 21 23 26 24
24 24 25 24 24 23 20 20 22 24 25 25 28 31 35 37 35 35 30 31 31 31 30 29 28 27 25 24 21 18 18 19 18 18 17 18 17 16 17 16 18 18 21
27 23 22 23 28 27 26 25 25 24 26 27 31 34 35 37 36 36 34 31 32 32 32 32 30 28 28 25 19 20 21 20 18 17 18 16 15 15 14 14 16 16 18
34 33 32 28 36 37 27 24 27 27 31 34 36 36 38 38 37 36 36 32 32 33 33 33 32 28 29 28 18 23 22 21 18 17 17 15 14 14 14 14 14 16 16
33 37 33 29 25 19 23 31 35 39 42 45 40 39 42 40 39 37 35 33 33 34 34 34 32 28 26 24 21 25 22 21 19 16 16 15 14 13 12 11 12 11 13
34 28 30 23 21 27 31 34 36 37 36 38 42 42 40 38 37 36 35 32 33 35 34 32 33 29 25 21 26 27 24 20 18 17 16 15 14 14 12 11 11 10 10
24 22 23 24 27 32 39 35 36 35 38 38 39 37 37 36 36 35 34 32 31 33 34 34 33 28 24 29 27 26 23 20 18 17 16 16 15 14 13 12 12 12 11
25 24 27 31 36 34 33 34 38 38 42 43 43 40 37 36 35 36 34 33 31 30 33 31 31 26 29 29 27 24 21 20 18 16 15 14 13 13 13 12 13 12 12
25 25 24 27 29 33 38 36 38 37 40 38 39 42 41 36 36 36 34 32 31 29 29 31 32 29 29 27 24 22 20 18 17 15 15 13 13 14 15 14 14 13 13
27 29 29 29 32 33 37 37 42 40 39 37 36 37 40 37 36 36 34 32 30 30 29 29 29 27 27 25 22 21 18 16 16 14 13 13 14 15 15 15 16 14 14
34 35 36 35 35 37 37 38 37 36 37 37 36 36 36 38 36 35 34 32 31 29 28 30 27 25 24 23 21 17 16 14 13 14 13 15 16 16 17 16 18 17 17
40 38 36 35 35 35 34 34 34 35 35 35 35 35 35 36 36 34 33 31 29 28 27 26 24 22 19 16 15 14 14 14 15 15 15 16 17 18 18 18 18 18 18
35 33 32 31 30 30 32 32 32 33 34 34 34 35 34 33 33 32 31 30 27 27 25 22 20 17 14 14 14 13 14 15 16 15 17 18 18 18 19 18 17 17 17
29 28 27 27 28 29 30 31 31 32 32 33 33 33 32 31 30 29 27 27 25 23 21 20 18 17 15 15 15 15 15 16 15 16 17 18 18 19 18 18 16 16 16
24 25 26 26 27 29 30 31 32 32 32 32 31 30 29 27 25 24 22 21 20 19 18 18 16 16 15 16 16 16 16 15 15 16 17 17 18 18 18 17 17 17 16
25 25 25 26 29 30 30 30 31 31 31 29 27 24 22 21 19 18 16 16 17 17 14 15 15 16 17 16 16 15 15 16 16 17 17 17 17 18 18 18 18 17 17
26 27 26 27 29 29 29 29 30 30 28 24 21 18 17 16 15 15 14 13 13 14 14 16 15 16 16 16 15 15 16 17 17 17 17 17 18 18 18 19 19 18 18
29 28 27 27 27 27 28 28 28 27 23 19 17 15 13 11 9 9 10 11 13 14 14 14 14 15 15 15 15 15 15 16 16 16 16 18 18 19 19 19 20 20 19

GFSMA_700_spd_072.txt.gz
Wind_Speed
11 10 9 9 9 9 9 8 9 9 9 10 11 12 13 14 15 15 17 19 20 20 20 20 19 18 18 17 15 16 14 15 17 16 15 14 13 13 12 11 11 11 12
14 13 12 12 12 12 11 9 9 10 10 11 12 13 14 15 16 17 18 19 19 20 20 20 21 20 18 16 18 17 17 15 16 17 17 16 15 14 13 12 11 10 11
18 18 17 15 15 15 14 12 11 11 12 12 13 13 14 16 17 18 19 20 22 22 21 20 22 21 19 16 18 19 18 18 17 18 18 17 17 15 14 12 12 11 11
23 21 20 19 19 18 16 14 13 12 13 13 13 14 15 17 18 18 19 21 23 24 22 21 22 22 19 18 19 19 18 18 17 16 18 17 19 18 17 15 13 12 12
26 25 23 23 22 22 19 17 15 15 14 14 14 15 16 18 19 20 22 23 23 24 22 22 21 22 20 19 19 20 20 18 17 17 16 18 17 16 18 17 16 15 14
27 27 26 26 25 24 22 20 18 17 16 15 16 16 17 19 21 23 24 24 24 23 21 21 21 23 23 20 20 20 22 20 19 19 18 18 19 19 18 18 17 16 16
27 26 26 27 26 25 25 24 20 18 17 17 17 19 20 21 23 24 26 27 26 24 22 22 22 24 24 20 21 22 22 21 19 19 18 19 19 19 21 23 23 21 19
27 28 28 27 26 27 26 24 21 19 18 18 21 22 23 22 24 27 27 28 28 26 24 23 23 23 24 23 23 23 24 24 19 18 18 18 18 18 19 21 24 27 24
27 26 28 28 27 26 24 22 22 21 19 17 20 24 28 27 29 30 30 30 31 30 28 27 24 24 24 25 25 23 22 20 20 20 18 17 16 16 18 19 20 22 22
23 24 24 26 24 22 22 23 23 23 20 18 21 22 27 31 33 34 31 32 32 31 30 29 27 26 25 25 24 24 23 18 18 18 18 17 15 15 16 17 18 18 17
21 20 21 24 27 29 30 28 22 27 27 33 26 27 28 32 36 38 35 34 34 33 31 30 30 29 28 29 24 22 23 20 20 18 17 16 14 15 15 15 14 15 15
29 29 25 28 33 34 31 25 33 38 33 28 30 36 39 36 35 38 42 36 36 35 34 32 30 30 29 29 26 23 17 20 20 19 18 14 15 15 14 13 13 13 14
29 32 33 34 32 31 30 24 18 21 27 32 34 35 35 34 36 38 39 37 36 35 35 33 31 30 30 24 25 27 20 22 22 20 18 15 15 14 13 11 11 11 11
28 30 29 28 33 24 18 17 22 27 31 36 34 34 34 34 34 35 36 35 36 36 36 35 31 30 25 26 25 23 23 22 24 21 19 17 16 15 14 12 11 12 11
31 34 33 33 21 15 19 26 29 35 34 32 35 37 37 41 42 42 36 35 36 36 36 35 33 28 24 30 24 22 27 24 24 22 18 18 17 16 16 14 12 12 12
27 23 23 24 16 17 21 27 24 26 31 32 35 34 35 36 39 38 37 35 35 35 36 35 32 30 28 25 21 30 28 25 23 20 19 18 17 16 14 12 11 12 12
24 18 26 23 22 20 25 25 28 31 32 35 38 35 34 35 35 34 37 36 34 33 33 34 33 28 27 31 30 29 25 24 21 19 17 17 17 15 13 13 12 12 13
25 27 23 23 27 28 29 31 33 36 37 39 35 34 34 34 34 34 35 34 33 33 32 32 32 31 28 28 28 26 22 23 20 18 17 16 14 14 13 14 14 14 14
31 32 30 29 31 35 33 37 37 36 38 35 34 34 33 33 33 32 33 33 32 32 31 30 30 30 29 27 25 23 24 20 18 17 16 15 15 15 14 15 15 16 16
36 36 37 38 39 37 36 36 36 35 33 34 33 33 33 33 33 33 33 33 31 31 30 30 29 28 28 25 23 23 20 17 15 15 15 14 15 15 15 16 16 16 17
39 41 42 40 37 34 34 33 31 31 31 32 32 32 32 32 32 32 32 32 30 29 28 28 27 27 24 21 19 17 15 15 14 14 14 15 15 16 16 16 17 17 17
35 34 33 31 30 29 29 28 28 29 31 32 32 32 32 32 31 31 30 29 27 26 26 24 23 21 20 17 15 14 14 14 14 15 15 16 16 16 16 16 16 16 16
29 28 28 28 27 27 27 27 28 29 30 31 31 31 31 31 30 28 26 25 23 22 21 20 18 17 17 15 16 15 15 15 14 15 15 15 16 16 16 16 16 16 15
26 26 26 26 26 26 26 27 27 28 29 29 29 29 27 26 24 23 22 20 18 18 16 16 16 16 16 15 15 15 14 14 14 15 15 15 16 15 16 16 16 15 16
30 28 28 27 26 27 27 27 26 26 27 28 27 25 23 21 19 18 17 17 16 15 15 15 15 13 14 14 13 13 13 13 15 14 14 14 14 14 15 16 16 16 16
34 33 30 29 28 28 29 27 26 25 26 27 24 21 20 18 14 12 10 10 11 11 12 12 13 12 13 14 12 11 12 13 12 12 12 12 14 15 16 16 16 17 18

GFSMA_700_spd_075.txt.gz
Wind_Speed
17 15 13 13 12 11 11 10 7 6 6 7 8 9 10 10 11 12 14 15 16 17 18 18 18 16 16 15 17 16 16 15 14 14 14 13 11 11 11 10 10 10 10
18 16 15 14 13 13 13 12 10 8 7 8 8 9 9 10 11 13 14 15 16 16 17 18 17 18 16 17 17 17 16 16 16 17 15 16 14 13 13 11 11 10 10
21 20 18 17 17 16 15 15 13 11 9 9 10 10 10 11 12 13 15 16 18 19 20 20 18 18 18 17 18 18 18 17 17 17 15 13 16 17 15 12 12 10 11
24 23 21 20 20 19 19 18 17 15 13 11 11 12 11 12 13 14 15 17 18 20 21 22 20 20 20 19 19 19 18 18 18 17 17 16 15 16 17 16 14 12 12
26 25 25 24 23 22 22 22 21 18 16 15 14 13 12 12 13 15 16 18 20 21 22 22 22 21 21 20 20 20 21 20 19 19 19 18 17 16 16 15 15 14 13
23 27 26 26 26 25 26 25 24 22 20 18 16 14 14 13 14 15 17 19 20 21 22 22 22 23 23 23 19 19 21 21 20 19 20 19 18 18 18 18 17 15 15
24 24 24 26 27 26 28 28 27 25 23 22 19 17 16 15 15 16 18 20 22 22 21 21 21 22 23 23 20 19 20 22 21 21 19 18 18 18 19 20 22 21 18
25 26 27 28 28 29 29 29 29 27 25 23 21 21 19 16 15 17 20 23 25 26 25 24 22 22 23 23 23 21 20 22 22 20 18 17 17 18 18 19 21 23 24
31 26 28 30 30 31 29 27 28 25 24 22 20 21 22 23 22 22 21 25 27 27 27 27 26 24 24 24 24 23 23 23 23 19 20 18 17 18 17 18 19 19 20
27 26 23 24 29 27 24 25 26 26 25 23 21 18 24 26 29 30 31 34 29 30 30 28 27 27 26 26 25 24 24 25 24 17 18 19 18 18 17 17 18 17 18
27 28 24 25 26 28 28 29 30 35 31 30 35 30 29 28 32 35 35 32 32 33 32 31 29 29 29 28 29 27 24 22 20 18 17 17 18 18 17 18 17 16 16
17 21 26 21 22 26 28 30 32 36 37 38 30 33 31 32 34 35 35 30 32 32 33 32 31 30 30 29 30 29 24 25 22 20 20 17 17 18 18 17 16 15 15
24 28 21 24 29 30 34 37 34 32 31 26 23 26 31 33 36 34 35 35 35 34 32 32 31 31 30 30 30 30 25 26 20 24 22 19 18 18 17 16 14 13 13
26 25 31 30 28 33 22 24 30 26 22 20 24 29 33 34 35 37 38 38 37 39 36 32 30 30 29 28 28 28 29 24 20 27 22 21 19 19 17 16 14 14 13
26 26 27 29 29 34 29 21 22 23 22 26 30 29 29 30 33 33 34 36 38 37 33 32 32 30 27 27 24 25 30 24 21 28 26 21 21 19 18 17 16 16 15
27 28 26 25 23 20 17 15 16 19 21 23 26 29 29 32 34 31 32 33 33 32 33 35 32 31 29 26 25 30 23 23 28 28 26 23 21 20 18 17 16 16 15
27 28 24 22 18 16 19 19 20 22 24 26 30 32 34 36 33 31 32 32 32 32 32 33 32 32 29 30 24 24 28 27 28 27 25 23 21 20 18 18 17 15 15
24 23 23 22 19 20 20 24 24 27 28 32 34 35 35 33 32 32 33 32 31 31 32 32 32 31 30 28 26 28 28 27 26 24 23 22 21 19 18 18 16 15 15
24 25 26 28 27 26 25 26 28 33 35 34 34 34 33 33 32 32 33 32 31 31 31 31 31 30 30 29 27 27 27 26 25 23 22 20 20 18 17 16 15 15 15
25 27 31 33 33 33 32 33 35 37 34 33 32 32 32 32 32 32 32 32 31 31 31 31 30 29 28 26 25 25 26 25 24 21 18 17 17 17 16 17 16 16 15
29 31 34 37 38 38 38 38 36 33 31 31 31 31 31 32 32 32 32 33 33 32 32 30 29 28 26 25 24 23 22 20 18 17 16 16 16 17 17 17 17 16 16
32 33 34 36 38 38 38 35 32 30 29 29 30 31 32 33 33 33 34 34 33 32 30 28 26 26 25 23 21 19 16 15 14 15 16 15 17 17 16 17 17 17 17
31 31 31 32 33 34 33 31 29 27 28 29 30 30 31 31 30 30 30 29 28 27 26 24 23 21 19 18 18 16 15 14 14 15 16 16 17 16 16 16 16 16 16
30 30 30 30 31 30 29 28 28 28 28 28 28 28 28 29 27 24 24 23 22 20 19 18 17 17 16 15 15 14 14 13 15 15 15 15 15 15 16 16 15 15 15
30 30 31 31 30 30 30 29 28 28 27 27 27 26 25 25 22 21 20 19 18 17 15 14 14 14 13 12 13 13 14 13 13 13 12 13 14 14 15 15 15 15 15
31 33 33 32 31 30 30 30 28 28 27 26 25 25 24 21 20 19 16 14 11 11 11 11 11 11 11 11 12 12 12 11 10 11 9 10 11 11 13 15 15 15 15

GFSMA_700_spd_078.txt.gz
Wind_Speed
24 22 19 17 15 15 14 13 11 10 9 8 8 8 7 8 8 8 10 11 12 13 15 17 18 17 17 19 18 17 16 16 15 15 14 14 13 13 12 12 12 11 11
25 22 21 19 18 17 16 15 15 13 12 10 10 10 9 9 9 10 11 12 13 14 15 16 17 17 17 18 19 17 15 16 17 17 16 15 15 15 14 13 13 13 12
27 25 23 21 19 19 18 17 17 16 15 13 12 12 11 11 11 11 11 12 14 14 16 17 18 18 19 19 21 21 19 20 19 18 18 16 15 16 17 15 14 14 13
28 26 24 23 22 21 20 20 20 20 19 17 15 15 13 12 13 12 12 12 14 15 16 17 18 18 19 19 19 20 20 20 20 20 19 18 17 16 17 15 14 16 16
30 28 26 25 25 24 23 23 24 24 23 21 19 17 16 15 15 14 13 13 14 15 16 18 18 18 18 20 20 19 20 21 21 20 20 19 19 18 17 16 16 16 16
32 32 28 28 29 27 26 25 26 27 26 25 22 21 18 18 17 15 15 15 15 17 19 20 20 20 20 21 21 19 20 21 22 21 20 21 20 18 18 19 19 18 17
29 31 28 29 28 30 29 28 28 30 30 27 27 24 21 20 18 17 16 15 17 18 21 21 22 22 22 22 22 20 21 22 22 21 20 19 19 19 19 19 19 21 21
31 33 30 29 26 27 29 30 30 31 31 31 30 28 22 21 19 17 18 18 20 23 26 24 25 25 24 24 24 23 23 22 22 22 21 20 18 19 20 19 19 20 22
40 38 37 35 32 30 29 28 30 30 29 28 29 28 23 22 22 21 20 23 26 29 27 26 26 27 28 28 27 26 25 26 24 23 22 22 19 19 20 20 20 20 20
54 49 51 43 42 29 29 29 30 31 30 31 30 29 23 22 22 25 28 28 30 31 31 29 30 28 28 29 30 29 27 27 27 25 21 20 20 21 20 20 21 21 19
55 60 48 40 21 29 30 40 31 30 33 33 34 34 38 36 29 30 34 36 33 33 33 31 31 31 29 29 29 30 31 30 28 26 24 19 18 21 21 22 20 20 19
24 18 34 17 21 33 34 32 30 31 33 36 36 34 41 46 37 31 32 33 37 38 34 34 35 34 33 32 30 30 31 30 30 28 25 22 20 20 21 23 21 18 18
15 20 23 16 20 23 23 25 27 29 31 38 35 34 23 20 23 30 34 36 39 39 38 33 32 35 34 33 31 30 30 30 28 24 26 22 22 22 21 22 20 17 17
19 21 22 21 23 22 22 22 27 37 34 39 30 29 22 23 27 31 35 34 35 32 31 28 30 31 29 30 30 29 28 29 28 27 25 20 23 22 20 21 20 19 18
26 25 25 23 23 23 25 25 26 26 26 24 32 24 22 26 28 29 29 33 36 35 33 34 30 29 31 30 29 27 27 24 25 29 23 24 24 22 20 22 21 19 18
28 27 27 26 24 24 23 22 22 20 19 14 18 22 22 24 26 30 32 34 33 34 35 34 32 30 32 32 30 27 24 26 31 26 26 28 29 25 19 22 22 20 20
29 28 27 26 25 23 21 18 17 17 17 16 19 21 24 27 30 32 32 32 33 33 34 34 34 33 33 32 29 28 29 25 26 28 28 30 27 24 22 22 21 19 21
27 28 27 26 24 22 18 17 17 19 19 21 22 26 30 33 32 32 31 32 33 33 33 34 34 34 34 32 29 27 27 25 31 33 29 26 25 22 21 22 19 17 19
22 23 25 26 27 27 25 22 23 24 25 27 29 32 34 33 32 30 31 31 32 32 33 34 33 33 33 32 30 28 30 30 29 26 26 24 23 23 20 19 18 17 18
29 26 26 27 29 31 32 30 30 29 31 33 34 35 32 31 30 30 31 31 32 33 33 34 35 34 33 31 29 28 28 27 27 26 24 23 21 20 19 17 16 17 17
34 33 31 32 33 35 37 37 36 37 37 38 35 31 30 30 30 30 31 33 34 34 35 35 35 33 31 29 27 26 26 25 24 23 22 19 17 18 16 17 17 18 18
33 35 34 34 37 39 41 42 40 40 40 35 30 29 28 29 29 30 31 31 31 33 34 33 32 29 27 25 24 24 23 22 21 18 16 15 16 16 16 17 18 19 18
34 35 35 35 35 36 37 37 37 36 33 30 28 27 27 28 29 31 31 31 31 30 29 28 26 24 23 22 21 20 19 18 16 15 15 14 15 16 16 17 17 18 18
34 36 36 36 36 35 34 34 33 32 31 29 28 28 28 28 28 28 28 28 26 26 25 24 20 19 18 17 16 15 15 14 14 14 15 14 14 15 15 16 15 16 17
35 35 37 37 36 35 35 33 33 31 30 29 29 28 28 28 27 27 26 25 24 23 22 19 16 15 14 13 12 12 12 13 13 13 13 13 13 13 13 14 15 16 17
35 36 37 38 37 36 35 34 33 32 31 30 30 29 28 28 26 24 22 23 22 20 17 15 13 13 12 12 12 12 13 12 12 13 12 11 11 12 10 12 15 15 16

GFSMA_700_spd_081.txt.gz
Wind_Speed
31 28 26 23 20 17 16 14 13 13 12 11 10 10 10 9 9 9 9 8 10 10 12 13 15 15 15 17 18 17 16 16 17 16 16 16 15 15 14 14 13 12 12
33 30 26 24 21 19 18 16 16 15 15 14 13 12 12 11 11 11 11 11 10 11 13 15 16 18 18 17 17 17 18 17 17 17 17 17 16 15 15 15 14 13 12
33 30 27 25 23 20 19 18 18 18 18 17 16 15 14 13 12 13 12 12 13 12 14 16 17 17 18 19 19 18 20 19 19 19 18 18 17 16 16 15 16 14 14
31 29 27 25 24 22 21 21 20 21 21 21 19 18 16 14 15 14 13 13 14 14 15 14 16 17 18 19 19 19 21 20 21 20 19 20 19 18 16 16 16 15 16
31 29 28 27 25 25 23 23 23 23 24 24 23 22 21 17 17 16 15 15 14 15 15 18 17 19 20 20 20 20 20 21 21 21 21 20 20 19 18 16 16 17 17
31 31 30 30 28 27 27 26 25 26 26 26 27 26 24 21 21 18 17 17 15 15 16 18 19 20 22 23 23 23 22 22 22 22 23 22 21 20 19 17 18 19 19
33 32 32 31 31 31 28 29 29 28 28 29 30 30 28 25 25 21 19 18 17 17 18 21 26 26 25 25 25 25 25 25 24 23 24 22 20 20 19 18 18 19 22
29 28 29 31 31 32 28 29 30 30 31 32 31 30 31 29 26 22 20 19 19 20 22 24 26 29 27 27 27 28 27 26 27 25 24 23 23 22 21 19 19 19 20
32 33 31 34 34 34 31 34 29 30 31 32 30 30 29 29 28 25 21 21 21 23 26 26 29 29 28 29 29 30 30 28 29 28 26 24 24 23 22 21 21 20 20
37 41 42 43 43 40 40 44 38 33 33 33 32 31 29 33 29 26 29 27 25 27 29 31 31 30 29 30 31 30 30 30 30 29 26 24 22 23 22 22 22 22 21
47 50 53 50 52 50 50 50 37 38 35 38 33 34 35 32 32 36 34 38 39 36 30 33 33 34 31 31 31 30 31 30 30 30 28 24 21 22 22 22 24 22 21
17 46 65 48 49 52 53 52 62 31 28 33 32 32 34 37 33 30 36 36 33 29 33 30 30 31 30 30 33 31 31 30 30 31 30 25 21 24 21 21 23 20 18
9 9 12 13 17 41 50 39 29 30 30 35 32 35 37 37 35 23 21 21 28 29 32 30 25 26 28 30 32 29 30 30 29 29 30 25 21 22 21 22 22 21 18
13 15 17 17 13 15 20 21 18 18 19 16 17 25 26 26 19 27 24 25 28 29 25 33 28 26 29 31 30 29 30 30 29 28 27 27 24 24 23 23 23 22 19
19 21 20 20 18 19 18 19 20 23 23 24 21 22 21 24 21 21 23 25 27 29 30 30 32 26 28 29 29 31 32 32 30 29 25 26 28 22 25 22 21 21 20
25 23 22 23 23 22 21 19 21 22 24 25 26 25 22 20 20 19 23 26 30 31 33 31 32 31 29 29 30 32 33 32 30 26 26 30 25 26 23 28 23 21 19
25 27 27 25 25 24 24 23 23 23 23 22 19 17 18 19 19 23 27 29 31 31 31 32 32 32 33 32 31 32 33 32 30 27 26 27 27 26 28 26 21 20 21
24 26 27 28 27 25 25 24 23 21 21 20 20 20 21 21 22 27 31 31 30 30 30 31 32 32 33 34 33 33 32 29 30 27 25 31 31 30 25 23 21 19 21
25 24 23 24 25 26 26 26 26 23 22 22 24 25 26 26 29 31 32 30 30 29 30 32 33 33 34 34 33 33 32 30 29 28 28 27 26 26 23 22 21 18 18
32 32 31 29 27 27 28 29 30 29 27 27 28 28 29 30 32 31 30 29 29 29 30 33 34 35 35 35 35 34 32 30 29 28 26 25 25 24 22 21 18 17 17
33 34 34 33 33 32 31 31 34 36 35 33 32 33 34 34 34 31 29 28 28 30 31 33 33 33 34 34 33 32 29 28 27 24 24 23 23 21 19 18 17 15 16
34 34 33 34 35 36 36 34 37 40 41 40 39 38 39 37 33 30 29 28 29 30 31 31 32 32 29 29 28 27 26 24 24 21 21 18 17 15 15 15 16 14 15
36 36 35 35 35 37 37 39 41 43 44 44 43 43 41 35 32 29 28 27 28 29 28 28 27 28 26 26 23 22 21 21 21 15 16 13 13 12 13 13 14 15 15
35 35 37 37 37 37 37 38 40 42 43 44 42 40 36 32 29 28 27 26 27 29 28 26 26 26 23 23 19 18 17 16 14 13 12 11 12 11 13 13 13 15 15
35 35 36 38 39 38 37 38 39 39 39 38 36 34 32 29 28 28 26 27 26 27 27 26 26 25 21 16 15 14 14 14 13 13 12 11 11 12 12 11 11 12 13
35 36 36 37 38 39 39 38 38 38 36 34 33 32 31 31 29 28 28 27 26 24 25 25 23 21 18 17 14 14 13 13 12 13 12 12 11 11 12 11 9 8 9

GFSMA_700_spd_084.txt.gz
Wind_Speed
34 32 30 27 25 21 18 16 14 13 12 12 11 11 10 10 10 9 8 7 9 9 9 10 12 13 14 15 15 16 16 17 17 17 16 17 16 14 14 14 13 12 11
33 31 30 28 25 22 18 17 16 15 14 14 13 12 12 11 11 11 10 9 9 9 10 11 13 15 16 16 16 16 17 18 18 18 18 18 17 16 15 15 14 13 13
36 34 31 28 25 23 21 19 18 17 16 16 16 15 14 14 13 13 13 13 10 10 11 13 14 15 16 17 18 18 19 19 19 19 18 17 18 18 18 16 16 14 14
35 34 32 29 26 24 22 20 19 18 18 18 19 18 18 17 15 15 15 14 13 12 12 13 15 16 17 19 19 20 20 20 21 21 20 20 19 19 19 18 16 15 15
36 34 32 30 28 25 23 22 21 21 19 20 21 21 22 22 19 17 17 16 15 14 14 15 14 16 18 21 22 22 22 22 22 22 20 20 19 19 18 18 17 16 17
34 34 32 30 29 28 26 24 23 22 22 22 22 23 26 27 21 23 21 19 18 17 17 17 17 19 21 23 23 23 23 23 23 23 22 22 22 21 19 18 18 17 18
33 34 32 30 30 29 28 28 26 26 24 25 26 27 29 28 26 25 24 22 21 19 18 19 19 20 22 24 24 24 23 23 23 23 22 22 22 23 22 20 19 18 18
34 32 34 32 32 31 31 30 27 29 28 29 28 29 31 28 29 28 26 24 23 22 21 21 23 23 23 23 24 25 25 25 25 25 25 24 23 23 23 21 19 18 18
32 30 27 26 26 27 28 32 32 32 29 28 26 27 30 33 31 32 28 26 25 24 23 21 23 25 28 25 27 28 28 29 28 27 26 25 25 25 25 23 21 19 18
34 33 32 35 34 33 33 31 34 36 45 33 40 29 35 34 34 34 29 27 27 27 26 25 31 31 31 30 30 29 28 29 30 28 28 26 25 25 26 25 21 20 18
34 38 35 39 39 40 47 52 44 43 45 45 43 41 47 38 34 32 29 31 32 35 36 39 41 40 29 29 28 27 26 29 29 29 28 26 24 24 24 22 22 22 17
37 44 42 36 36 46 51 51 56 54 55 51 54 52 39 40 40 40 36 32 26 29 28 19 22 24 22 24 24 23 26 28 26 26 28 26 25 24 22 22 22 20 19
4 4 13 20 36 24 32 50 67 69 40 45 50 55 52 29 34 33 29 32 19 22 22 25 24 22 24 24 24 25 26 27 27 28 29 27 27 27 22 22 22 20 19
10 13 11 14 20 14 17 21 12 23 21 25 26 16 16 20 16 14 25 14 20 24 24 26 28 24 25 26 27 27 27 28 28 28 29 29 29 25 21 22 21 20 20
14 15 17 18 18 19 19 20 16 17 22 23 22 18 16 20 21 22 21 24 21 22 23 23 29 28 25 25 27 28 28 28 29 30 30 30 31 27 26 27 23 18 20
18 19 20 19 18 19 19 20 20 20 25 23 23 23 22 26 26 24 21 20 19 21 25 26 28 29 27 26 27 29 29 29 28 29 30 30 29 29 28 22 20 21 23
20 21 21 21 22 23 23 24 24 24 24 20 26 25 25 21 20 19 18 20 22 26 28 27 28 28 29 28 28 28 29 29 30 30 30 30 27 27 28 24 21 22 20
20 21 21 21 22 25 26 27 27 24 23 23 24 23 20 19 18 19 20 23 25 27 28 29 29 28 29 28 29 30 30 29 30 30 30 29 27 27 26 23 23 21 19
26 25 24 24 24 23 23 25 26 27 26 26 25 24 23 23 22 22 23 25 28 29 29 29 29 28 29 30 32 32 31 32 32 32 30 29 26 24 22 22 21 20 19
28 30 29 31 31 30 29 27 27 29 29 30 29 27 27 26 25 26 27 29 31 29 29 29 28 29 31 31 32 32 33 34 33 31 28 26 25 23 22 22 21 19 19
31 33 31 31 32 34 34 33 30 31 33 35 35 32 31 29 28 30 32 33 33 30 29 28 28 29 30 31 31 32 32 32 29 27 27 23 22 22 20 20 19 17 17
32 32 32 33 33 32 33 34 34 33 38 37 39 40 37 34 34 34 34 33 31 31 28 27 29 29 29 30 29 30 28 26 24 24 23 21 20 18 16 15 14 12 13
31 32 34 33 33 33 33 33 35 37 37 39 42 42 42 40 39 38 36 34 31 30 28 29 28 28 27 28 26 26 25 23 21 19 18 16 16 12 12 11 10 10 11
31 31 32 32 34 35 35 32 33 37 39 40 43 45 45 44 41 38 35 33 31 29 29 29 28 28 25 26 24 24 23 19 16 15 15 14 12 11 11 10 10 10 11
31 31 32 33 34 34 35 35 35 37 39 40 42 42 42 43 37 36 33 32 30 29 28 29 27 25 24 23 21 21 18 17 13 14 13 12 12 11 11 11 12 10 12
32 31 30 31 32 35 36 35 35 36 37 37 37 38 40 39 35 35 33 30 30 29 28 28 26 23 23 21 20 18 16 14 13 12 11 13 12 11 12 12 11 10 9

GFSMA_700_spd_087.txt.gz
Wind_Speed
34 31 32 31 28 25 23 20 16 13 12 11 10 11 10 10 9 8 8 6 6 7 6 7 8 10 12 13 14 15 16 18 18 18 17 17 17 16 16 14 14 12 12
34 32 33 32 29 27 24 21 18 16 14 13 12 12 11 10 11 10 9 8 7 8 7 7 8 10 11 12 13 15 16 17 17 18 18 17 15 16 16 15 14 14 13
35 34 35 34 30 27 26 23 20 18 16 15 14 14 14 13 12 12 12 10 9 9 9 8 9 10 11 13 14 15 17 18 18 18 18 17 16 16 17 16 17 15 15
37 36 37 34 32 30 28 25 22 19 17 16 16 16 15 16 16 15 14 13 12 10 11 11 10 11 12 12 15 16 18 18 17 18 17 18 18 17 18 17 17 16 15
38 39 38 36 35 32 29 26 23 21 19 17 17 16 18 18 19 19 18 17 16 15 14 14 14 13 15 16 16 17 18 18 18 19 19 19 20 20 19 18 17 17 15
37 38 38 38 36 33 30 27 25 23 21 19 19 17 18 21 24 22 21 22 19 18 18 18 18 17 16 17 18 19 20 20 20 22 21 21 21 22 22 21 20 18 17
36 37 37 37 35 33 30 28 26 24 22 22 22 23 24 24 25 25 27 27 23 22 22 21 21 20 21 20 21 21 22 23 23 24 24 23 23 24 23 22 21 19 17
32 33 34 34 33 32 30 29 28 27 24 23 24 26 26 27 27 25 28 27 26 26 27 25 23 22 19 20 22 24 25 25 26 26 25 25 25 25 24 23 22 20 19
33 32 32 31 32 31 29 28 31 28 25 25 26 25 26 26 25 26 30 29 28 27 27 28 27 26 24 24 26 29 31 30 29 26 25 25 25 26 26 25 23 22 19
32 39 30 31 31 29 24 26 29 33 32 23 26 29 35 35 30 27 30 37 36 33 31 30 28 29 30 34 36 36 31 28 26 24 26 21 23 24 24 24 24 22 22
28 32 37 29 31 28 32 31 34 37 37 46 47 39 42 39 37 40 41 39 39 36 34 32 31 35 30 29 24 25 24 23 23 25 24 20 21 22 23 23 24 23 24
34 33 34 36 35 37 43 46 36 36 39 55 52 55 59 52 46 48 47 41 40 37 35 36 33 26 18 20 23 24 23 24 24 25 24 22 22 24 23 22 24 22 22
13 40 49 39 39 38 47 39 39 40 44 46 53 57 60 47 48 47 56 41 38 33 36 20 23 23 21 21 24 24 24 25 24 25 24 23 24 23 23 24 21 21 23
12 11 15 12 14 15 14 21 16 23 26 20 27 37 47 38 27 26 34 36 24 18 17 25 29 24 20 23 25 24 24 24 24 25 25 26 25 25 26 25 22 22 22
13 16 16 16 19 20 22 24 22 29 24 20 18 16 22 16 18 14 16 18 18 20 24 27 22 21 24 26 26 24 25 25 25 26 26 27 26 26 27 27 27 24 21
14 19 21 22 22 23 26 27 27 29 23 23 23 22 26 18 23 20 24 23 26 28 25 22 22 24 25 26 27 26 26 26 26 26 26 26 27 28 27 27 26 24 22
19 21 23 25 26 26 27 29 28 27 26 26 25 23 24 27 27 26 29 27 26 25 22 23 25 27 28 27 26 26 26 26 26 26 26 27 27 27 26 25 24 22 21
19 22 24 25 26 28 29 30 31 29 28 28 27 28 24 28 24 23 23 23 22 24 24 25 28 29 28 27 27 27 27 28 28 30 30 29 29 28 27 25 23 23 22
25 26 27 27 27 27 27 25 26 28 31 31 32 25 31 26 24 23 22 22 23 25 25 27 29 29 29 28 28 28 28 29 30 30 31 31 30 29 27 24 23 24 21
30 31 31 31 33 34 33 31 30 28 28 29 35 30 30 27 27 27 27 25 25 26 27 28 29 30 29 29 30 30 30 29 29 28 27 27 26 26 25 25 23 22 21
33 33 33 34 34 34 34 34 34 31 32 30 29 34 33 33 31 31 29 27 27 29 30 31 31 30 28 30 31 31 29 28 27 26 26 26 25 25 23 22 23 21 19
32 33 34 34 33 33 33 34 34 34 35 32 35 32 37 35 38 36 34 32 32 32 33 33 32 30 29 30 30 30 29 26 26 26 26 24 22 21 20 20 19 16 15
28 30 32 34 35 34 32 32 33 35 36 36 37 36 39 37 39 39 44 41 35 37 35 34 32 31 30 29 29 27 26 25 25 23 22 21 19 18 15 14 13 12 13
32 32 32 33 33 33 35 34 33 34 36 37 37 38 40 42 39 45 41 44 42 36 37 34 32 32 29 28 26 25 25 25 23 20 19 16 15 15 14 12 12 12 13
33 33 32 32 34 35 35 34 35 36 36 37 38 39 39 40 43 45 45 44 42 41 36 34 31 30 28 25 24 23 24 23 21 17 14 13 13 15 14 12 12 12 12
37 37 36 36 35 33 33 35 36 37 38 38 37 38 39 39 39 39 39 39 38 35 34 33 31 29 26 25 22 22 23 20 18 15 14 14 14 14 14 12 12 12 11

GFSMA_700_spd_090.txt.gz
Wind_Speed
39 43 32 30 31 30 27 25 22 18 16 14 13 11 10 10 9 10 9 8 8 7 6 6 5 5 6 8 9 11 11 11 13 14 14 14 15 15 16 16 16 15 14
43 35 30 30 34 32 29 26 23 20 17 16 14 13 13 12 11 10 9 9 10 9 9 7 6 6 7 9 10 11 12 13 14 15 16 17 16 16 16 17 17 16 15
35 36 36 34 35 34 31 29 27 23 21 18 16 15 15 14 13 12 11 10 10 10 10 9 9 8 9 9 10 12 14 16 17 17 17 17 17 17 17 18 18 18 17
46 35 32 34 37 36 34 31 29 25 22 19 18 18 17 16 17 15 14 12 11 11 11 12 12 12 12 12 13 14 15 16 18 19 18 18 19 19 19 18 18 19 18
50 41 38 37 40 38 35 34 31 27 25 22 20 20 19 18 18 19 18 16 15 13 14 15 16 15 16 16 17 18 19 19 20 21 21 21 21 22 21 21 20 19 19
40 44 39 33 40 40 38 37 33 30 26 24 23 22 20 19 19 18 20 19 17 19 18 19 20 19 20 20 20 21 20 21 22 23 23 23 23 25 23 23 21 21 20
37 37 42 40 42 41 39 37 34 31 28 27 25 23 22 21 22 24 26 23 22 23 23 24 24 23 22 22 22 22 21 22 24 26 27 26 24 25 24 23 21 21 20
37 37 39 41 42 42 41 38 35 31 30 28 27 25 24 23 22 24 27 25 25 26 26 26 28 25 25 25 24 23 24 25 27 30 31 27 23 25 25 23 22 21 20
33 33 35 37 38 39 38 36 34 32 32 29 27 26 25 21 19 19 20 25 27 27 28 28 29 29 30 30 30 29 31 33 35 32 30 24 22 24 23 23 22 22 21
41 38 35 36 37 36 36 36 35 35 33 32 31 26 24 22 22 30 28 31 33 35 35 31 36 34 33 33 32 32 33 33 29 25 23 23 21 22 20 21 21 23 22
37 38 39 40 39 38 34 33 32 31 31 34 38 38 40 42 44 41 36 40 45 38 40 42 36 37 36 32 35 37 30 27 25 25 24 24 23 23 22 21 23 23 21
31 31 38 43 36 38 32 40 35 35 36 36 42 40 38 41 50 50 53 53 51 55 51 39 49 41 42 36 29 25 25 24 24 24 24 24 22 24 22 22 22 21 21
31 30 34 32 41 41 38 38 39 41 43 38 47 47 45 50 51 45 45 46 45 43 44 53 44 39 41 24 24 24 24 24 24 24 24 24 22 23 24 24 23 21 20
28 20 19 25 45 42 47 46 50 47 49 43 40 37 35 39 42 47 43 41 50 46 47 40 42 36 26 28 24 24 24 24 24 24 24 24 24 24 23 23 23 23 22
34 28 20 15 18 23 25 25 24 22 25 28 26 26 23 24 24 22 20 22 24 25 26 33 31 27 26 23 23 25 25 25 25 25 24 25 25 24 23 22 23 23 23
15 19 19 20 23 26 25 25 27 28 29 28 30 29 26 28 24 20 18 21 20 22 24 23 24 25 23 23 25 27 26 25 25 26 25 25 26 25 24 23 24 24 24
16 18 20 23 24 25 26 27 30 30 30 31 30 31 30 30 30 24 28 28 26 27 28 28 28 26 24 25 26 28 27 26 26 26 26 27 27 27 26 26 26 25 23
19 23 25 27 28 29 30 31 31 32 33 33 33 33 33 31 29 30 31 29 30 30 30 32 28 27 25 26 27 27 28 27 27 28 29 29 28 29 29 29 29 29 26
24 26 27 28 29 30 31 31 33 34 35 37 38 37 35 32 30 31 33 27 30 29 27 27 27 27 26 27 28 27 27 28 28 28 28 28 28 28 28 29 29 27 24
30 31 32 33 33 33 34 35 36 36 36 35 33 34 36 33 30 38 29 28 28 28 27 28 28 27 28 29 29 28 28 28 28 27 28 28 27 28 29 28 26 24 21
35 36 37 38 38 38 39 39 39 38 38 39 40 37 32 30 31 37 31 31 32 31 33 29 30 29 29 30 30 30 30 28 27 27 27 26 28 29 27 24 22 20 20
34 35 35 36 36 37 37 38 39 38 38 37 38 39 39 33 38 34 35 38 37 38 33 31 32 32 31 32 31 29 29 29 28 27 27 27 26 24 22 20 18 18 18
34 34 36 37 37 36 36 36 37 38 38 37 36 36 38 38 45 40 43 40 44 42 35 41 34 32 34 34 33 30 29 28 28 28 27 26 23 20 20 17 15 15 15
36 37 38 39 40 40 40 39 37 38 38 38 38 38 38 39 42 44 41 44 48 42 39 36 38 35 34 35 33 30 29 29 28 28 26 24 20 19 17 14 13 13 13
38 40 40 41 42 41 41 41 41 41 40 38 39 40 41 40 41 41 43 46 43 41 38 41 37 37 35 34 33 30 29 28 27 26 24 22 19 16 14 13 13 14 13
44 44 44 45 46 46 44 43 43 42 41 41 40 41 42 42 42 42 43 43 44 45 41 43 41 36 36 33 31 29 30 27 26 26 23 21 19 15 14 14 14 15 14

GFSMA_700_spd_093.txt.gz
Wind_Speed
36 36 38 36 43 35 34 30 27 24 21 18 15 13 12 12 10 11 11 10 10 10 9 8 8 7 6 5 6 7 8 9 12 14 15 16 16 17 16 16 17 16 16
35 38 42 42 44 37 35 33 28 26 23 21 18 15 14 13 12 12 12 12 12 12 11 10 9 9 8 8 8 9 10 12 14 14 14 15 16 18 18 17 17 17 17
46 39 44 42 40 42 37 36 32 30 28 25 21 17 16 15 15 15 14 13 13 14 12 12 11 11 11 11 11 12 13 14 14 16 16 17 18 18 19 19 19 17 16
56 45 44 43 45 37 42 37 35 32 29 26 22 19 18 18 18 18 17 15 14 13 12 12 14 14 14 14 15 15 15 16 17 17 19 19 20 20 21 21 21 19 18
45 42 49 46 43 43 42 40 39 34 31 28 25 23 21 21 21 21 20 18 18 16 13 14 15 16 18 19 19 19 18 19 19 19 20 21 22 23 24 24 23 21 20
49 54 54 47 36 40 43 42 38 36 33 30 28 26 25 24 24 22 22 21 18 18 19 17 19 20 20 22 23 23 22 22 22 22 22 23 24 27 27 25 22 22 20
47 46 48 52 40 40 42 42 39 39 36 33 32 30 28 27 25 24 24 23 22 23 24 22 23 25 23 25 26 26 24 25 25 25 26 28 30 30 28 24 22 22 21
36 46 47 44 36 36 37 37 41 39 36 36 34 31 31 29 26 26 27 25 24 24 24 23 27 26 26 28 30 29 29 29 29 30 32 34 34 29 24 23 21 20 22
32 48 48 38 34 35 38 41 43 39 36 37 35 34 34 33 29 28 27 24 22 22 24 27 25 30 29 29 32 33 33 33 33 32 34 35 28 22 21 20 19 19 20
39 49 53 41 39 37 36 37 36 36 38 37 37 36 35 32 31 31 26 23 30 29 30 29 32 30 36 32 35 37 37 36 35 35 33 26 25 20 21 20 19 20 21
32 38 43 49 40 36 36 37 38 39 39 41 39 38 37 36 33 34 32 43 37 41 41 42 45 44 43 45 42 37 42 43 40 33 29 25 27 21 23 21 20 20 19
32 34 44 44 41 40 43 43 43 44 43 40 41 44 41 41 36 40 41 45 48 49 50 49 47 45 42 39 45 45 45 37 32 27 26 25 25 21 24 22 22 22 21
23 23 37 39 46 45 47 42 44 47 48 51 40 40 38 37 46 56 57 55 51 50 48 51 41 39 40 41 38 39 43 31 27 26 25 24 24 23 24 22 22 23 22
16 30 26 28 30 35 41 37 55 34 50 49 42 50 55 53 40 37 44 55 53 50 45 43 41 40 44 49 40 36 34 28 24 25 24 24 24 23 23 23 25 25 24
15 24 25 27 17 25 28 41 42 48 49 46 53 49 51 47 39 47 35 39 42 46 41 39 45 50 41 39 32 24 28 26 24 23 25 24 25 25 25 24 24 23 24
14 8 12 25 20 21 23 22 26 28 32 24 27 31 32 33 30 31 32 23 29 29 26 17 19 20 29 25 23 20 23 24 24 24 25 26 26 25 25 24 26 25 26
10 11 11 9 22 18 23 22 24 27 26 30 32 35 34 33 34 34 35 32 30 27 27 28 24 23 22 23 26 25 25 25 25 26 25 25 25 25 25 27 28 28 27
14 17 20 21 22 24 30 29 27 29 32 35 35 36 34 34 35 36 36 32 33 31 33 38 29 29 27 30 27 25 25 26 27 26 26 25 25 26 27 27 26 26 25
20 21 23 26 28 29 31 34 34 35 36 37 38 39 38 38 38 38 36 35 33 38 33 31 35 29 32 32 25 26 26 27 27 27 27 26 26 28 28 26 26 26 25
27 28 29 30 32 34 36 37 38 38 38 39 38 38 36 36 35 39 38 35 35 41 39 33 38 33 28 27 27 25 26 27 27 27 27 28 28 28 27 27 26 26 25
32 33 33 34 34 35 37 38 40 40 40 41 41 41 41 40 39 38 36 39 33 39 36 30 31 30 30 30 28 26 27 27 27 27 27 27 28 28 27 27 27 26 24
34 36 37 38 37 37 38 38 39 40 40 40 39 40 40 41 41 40 34 34 36 41 41 33 35 36 34 34 29 28 27 26 27 27 28 26 27 26 27 27 28 26 22
37 38 40 41 42 42 43 41 40 39 39 41 41 41 41 40 41 39 41 40 39 43 39 39 41 40 41 35 32 28 28 29 29 28 27 27 26 26 27 27 27 25 21
41 42 43 44 44 44 46 46 45 44 43 40 40 41 42 42 42 41 42 40 41 43 39 40 40 48 43 38 31 29 31 31 29 27 27 27 27 27 26 26 26 24 21
46 49 49 49 50 49 49 50 50 49 47 45 43 42 42 42 42 42 44 46 46 43 53 44 43 40 40 38 30 31 32 30 31 27 27 27 26 27 25 24 23 22 19
52 54 54 54 54 54 52 52 52 52 51 49 45 43 42 43 42 43 45 44 47 46 41 43 41 38 34 32 37 34 34 31 32 29 27 28 26 26 25 22 22 21 19

GFSMA_700_spd_096.txt.gz
Wind_Speed
30 34 34 36 35 33 33 33 33 30 27 24 21 18 16 15 14 13 12 12 12 12 12 11 10 9 8 7 7 6 6 8 9 11 12 13 14 15 15 15 16 15 15
39 38 40 39 40 40 37 36 36 34 30 26 23 21 18 17 15 15 14 13 13 13 13 12 12 11 10 9 8 9 8 9 10 11 12 13 15 17 18 17 18 18 17
38 45 43 42 44 42 45 44 41 39 33 31 27 24 21 19 17 16 16 15 14 15 14 13 14 13 13 12 11 12 11 12 13 14 15 15 16 18 19 20 21 21 19
38 39 41 50 52 46 53 53 51 42 37 34 29 25 23 21 20 19 18 18 17 15 15 16 16 15 15 15 15 15 15 15 17 17 18 18 19 20 20 22 23 23 21
41 44 49 54 55 56 50 44 51 44 39 35 32 28 25 24 23 22 20 21 20 18 17 17 17 18 17 18 19 18 20 19 21 21 22 21 21 21 24 26 27 25 21
39 42 53 56 54 51 51 48 50 46 40 37 34 33 30 28 27 24 23 24 23 23 22 21 21 20 20 21 22 22 23 23 24 23 25 24 25 26 29 31 30 25 22
37 37 47 55 55 53 54 47 51 44 43 41 39 36 35 32 30 27 26 26 25 24 22 24 23 22 25 25 27 25 26 27 25 26 28 29 30 30 31 32 27 22 21
37 35 34 47 52 53 50 54 54 54 45 39 41 37 38 35 32 29 29 28 27 27 26 25 23 23 21 23 25 27 29 31 28 29 33 33 32 32 31 25 20 20 19
36 33 29 39 51 47 52 47 48 40 38 40 41 40 40 38 32 32 33 31 30 29 28 26 24 22 24 23 26 24 31 34 33 37 37 37 35 33 26 21 20 20 20
35 38 34 31 34 37 34 50 50 46 44 42 40 43 41 38 37 37 35 34 34 32 28 23 24 25 28 31 31 34 36 39 38 35 38 40 39 32 24 22 21 21 20
40 41 33 33 35 39 32 27 33 43 41 43 46 43 41 39 38 38 38 36 35 32 29 32 33 36 40 41 44 45 44 40 36 37 38 38 35 26 22 23 21 20 20
36 31 38 41 41 42 36 32 36 42 41 41 40 41 42 40 40 39 41 36 34 35 43 43 41 42 46 44 43 44 42 45 37 36 37 32 26 27 23 24 21 22 21
32 27 31 32 33 38 46 46 39 39 40 43 46 48 51 45 45 48 43 45 43 42 47 53 50 54 48 49 50 45 44 40 40 39 39 24 27 25 25 23 21 22 22
6 25 22 28 34 31 33 39 44 43 41 44 52 55 48 42 45 53 48 41 48 46 54 48 51 53 54 56 51 43 48 41 40 36 23 23 26 26 24 24 22 21 21
11 11 12 15 21 23 29 28 40 41 46 39 40 49 50 39 45 52 39 48 49 46 43 49 42 37 37 40 47 44 42 40 37 25 23 22 25 25 24 23 23 21 21
6 11 5 10 13 20 18 20 23 30 41 46 51 51 54 44 58 49 50 54 46 42 41 29 31 34 30 32 38 39 36 34 23 24 21 23 24 24 24 23 23 23 24
10 10 11 10 12 18 24 22 16 19 22 25 30 34 39 34 32 34 33 39 38 37 36 34 26 25 17 14 22 30 32 24 20 17 18 21 23 25 25 24 24 25 25
15 14 14 16 17 19 19 23 25 24 26 24 24 28 31 33 33 33 33 32 35 34 31 31 34 30 29 25 25 25 22 24 19 19 21 23 24 24 23 24 25 25 25
19 21 22 24 26 26 26 27 30 32 32 31 33 35 37 39 38 37 37 37 36 34 32 34 34 35 38 38 32 31 32 24 21 22 24 24 23 24 24 24 25 25 25
24 25 25 26 27 30 33 35 36 36 35 36 37 37 38 39 40 40 39 38 38 39 37 35 34 42 36 37 34 27 29 24 23 24 24 24 23 23 24 24 25 25 24
29 31 32 33 34 34 34 35 37 39 42 43 42 41 42 43 41 41 41 42 38 41 35 39 41 36 35 37 35 29 24 26 26 25 23 23 23 23 25 25 24 25 25
32 32 33 35 37 40 42 42 43 41 40 42 44 45 45 44 46 44 41 41 42 41 36 38 37 39 43 35 26 26 29 33 29 25 24 25 24 23 24 25 25 26 26
38 38 39 40 40 41 43 45 46 47 47 46 46 44 44 45 46 45 46 41 42 40 37 37 40 41 41 35 32 38 41 41 33 28 26 24 24 24 25 25 25 25 25
42 44 46 49 49 47 48 48 48 49 49 49 49 48 48 46 45 46 46 45 46 41 44 41 41 41 34 40 41 41 41 40 34 28 27 25 25 24 26 25 26 26 25
41 43 45 49 53 56 58 58 57 56 56 54 50 46 45 46 45 45 46 46 45 44 43 48 42 48 50 51 54 49 44 40 33 25 28 27 26 27 28 27 26 24 23
39 39 40 43 46 48 51 54 56 55 54 51 53 53 49 45 43 42 43 45 46 41 44 38 49 44 38 34 35 35 34 34 29 27 28 31 28 29 30 28 27 25 23

GFSMA_700_spd_099.txt.gz
Wind_Speed
21 18 24 27 31 30 31 31 31 30 31 28 26 23 20 19 18 17 16 15 14 14 14 14 13 12 11 11 9 8 7 6 6 7 8 9 11 13 14 15 15 16 17
28 27 28 26 34 34 34 34 35 35 35 33 30 26 24 22 20 19 18 17 16 16 15 14 15 15 13 12 11 11 10 8 9 9 11 12 13 15 17 18 17 17 19
33 32 30 34 31 39 40 38 39 42 39 38 35 30 30 25 23 21 20 19 18 18 17 15 16 16 16 15 14 13 13 12 13 14 13 15 16 17 19 19 20 21 21
34 35 35 34 34 39 41 47 49 42 44 39 38 36 32 30 26 24 23 21 20 19 18 16 18 18 18 17 17 16 16 15 17 18 18 17 19 19 20 23 24 25 25
35 37 38 36 36 38 44 51 52 53 44 50 47 41 37 36 29 28 25 24 23 22 21 19 18 20 20 19 19 18 19 19 20 20 22 20 22 23 22 25 28 29 27
32 37 38 37 37 41 45 51 57 54 45 41 53 60 48 40 36 33 29 27 26 25 25 23 22 22 22 21 21 20 21 21 23 23 24 24 26 26 27 28 30 31 25
34 37 36 34 36 41 44 52 58 56 51 40 48 56 54 41 40 36 31 28 28 26 27 25 25 24 24 24 23 21 22 21 21 24 25 25 27 30 31 31 31 30 22
36 38 37 35 37 41 42 48 54 55 46 42 46 54 50 44 42 39 33 30 28 29 28 27 27 26 24 24 23 19 19 19 20 19 23 29 32 32 32 33 36 26 20
40 38 37 36 38 38 43 43 48 55 51 46 52 53 50 52 42 38 34 35 32 31 30 30 31 30 28 26 20 22 21 25 25 27 33 32 34 34 30 33 32 24 21
38 38 35 33 33 37 37 46 46 50 49 49 56 55 55 48 42 44 40 38 36 34 33 33 32 33 28 25 24 25 28 34 35 35 34 32 34 32 31 29 26 24 22
41 42 41 34 36 34 37 36 47 51 55 46 57 57 51 45 43 41 39 38 36 33 35 41 38 34 31 27 32 33 36 36 38 37 36 35 36 31 30 25 24 24 21
29 27 28 33 36 37 38 31 38 29 34 43 51 49 49 44 42 39 42 40 40 42 42 40 39 38 38 38 39 44 42 38 43 42 39 36 36 31 31 22 24 23 21
21 16 21 26 29 31 36 33 28 24 39 36 41 49 45 42 44 50 51 46 46 49 44 43 43 43 43 43 51 49 48 49 46 46 40 38 35 25 30 24 23 23 21
6 3 9 16 21 23 24 29 40 39 24 31 34 37 39 44 49 52 49 51 50 54 54 55 52 51 46 52 54 45 47 47 51 45 42 45 43 36 26 25 25 23 21
19 9 8 14 20 14 25 24 21 31 25 35 33 36 43 43 49 49 50 48 43 39 46 41 43 42 46 46 47 44 47 45 41 43 44 38 36 31 25 23 24 24 22
10 4 6 5 14 15 20 26 23 24 28 30 33 43 39 40 39 42 40 43 45 45 52 51 50 52 51 48 36 38 34 38 45 41 37 34 27 25 24 24 24 24 23
11 12 15 14 10 10 10 16 19 21 17 18 18 19 26 29 34 42 51 54 57 35 37 41 35 32 33 37 34 28 31 41 39 35 35 32 29 24 21 25 24 24 24
14 14 14 14 14 15 16 19 20 22 23 24 24 23 22 25 29 28 25 29 33 29 32 38 31 35 35 29 21 20 24 32 30 34 33 22 19 20 23 24 25 25 25
16 17 18 19 20 21 22 23 24 25 26 28 29 30 30 32 35 35 36 36 34 32 33 33 31 29 33 30 29 28 28 30 32 24 25 21 20 23 22 24 25 25 25
20 21 22 22 23 24 25 27 28 30 31 32 33 35 35 35 37 39 40 42 40 38 38 35 34 38 36 31 32 32 32 31 33 36 29 23 23 23 24 25 25 26 26
23 24 26 27 28 30 31 32 32 33 35 36 38 39 40 41 42 42 43 43 42 43 41 40 42 36 38 38 39 35 39 37 37 34 33 30 25 25 26 27 27 26 25
33 34 35 35 35 36 37 38 40 40 41 42 42 42 44 44 45 45 45 46 45 45 45 45 42 42 38 38 37 36 28 37 37 38 35 29 28 27 28 28 27 26 25
37 39 41 42 42 44 46 47 48 48 49 49 49 48 47 47 47 48 47 48 48 46 45 46 46 45 44 41 38 37 45 44 45 33 32 35 32 28 30 29 28 27 26
37 37 37 38 38 40 44 48 51 54 55 55 54 54 53 53 51 51 51 49 48 48 45 50 45 46 44 38 39 47 37 34 37 37 42 40 33 31 32 29 28 28 26
35 35 36 36 38 37 40 41 44 46 49 52 54 54 55 54 52 53 54 55 51 48 46 43 41 45 40 35 42 44 47 42 47 44 46 42 41 34 31 30 29 28 26
36 36 36 38 38 38 38 39 41 42 41 39 38 40 43 46 47 44 48 50 52 51 45 46 53 36 47 40 51 46 47 48 44 40 43 44 41 33 31 30 30 29 26

GFSMA_700_spd_102.txt.gz
Wind_Speed
18 17 21 18 21 23 23 27 26 31 32 30 30 29 27 24 23 22 20 19 19 17 17 16 16 16 15 14 13 13 12 11 9 8 7 8 11 12 12 13 14 15 16
23 22 23 27 25 22 26 28 30 31 32 35 34 33 32 29 26 26 24 22 20 20 19 17 18 18 17 16 16 16 14 12 11 10 10 12 12 14 15 16 16 17 19
26 26 27 29 31 28 31 29 33 37 36 39 36 39 36 34 31 30 27 25 23 22 21 20 19 20 20 19 18 17 16 15 13 13 14 14 15 16 18 18 18 19 23
27 28 31 32 35 35 35 37 37 38 39 43 47 40 47 39 35 33 31 29 26 25 23 22 20 20 22 22 21 20 19 17 16 16 16 16 18 18 21 21 21 23 24
31 34 37 34 37 39 38 39 39 40 45 44 49 46 46 44 42 39 37 34 30 28 26 24 23 23 23 25 23 23 21 19 18 17 18 18 20 21 23 24 25 26 26
35 37 38 35 36 39 40 41 44 44 46 47 47 47 46 48 44 47 45 40 34 32 29 28 26 25 25 25 25 23 23 20 18 18 17 17 18 20 25 29 28 27 28
38 41 41 39 38 39 38 39 41 45 47 48 50 51 55 50 47 46 49 51 44 35 31 31 29 28 28 28 28 26 25 23 21 18 16 16 19 20 27 26 25 26 31
41 43 43 42 39 37 39 41 42 43 44 47 51 57 55 50 52 53 50 59 52 44 33 33 32 30 30 30 27 28 27 24 21 18 17 21 22 24 26 28 28 25 28
44 44 43 43 41 40 39 38 40 38 45 43 48 52 56 56 46 51 51 60 58 38 35 37 35 33 33 32 30 28 27 24 22 22 23 25 28 32 28 29 29 26 26
40 40 40 38 39 42 41 38 35 41 38 43 41 46 52 52 50 49 56 65 43 45 43 36 38 36 35 35 34 32 30 26 26 28 30 31 29 30 34 31 29 28 25
36 38 38 39 43 45 45 40 39 34 36 44 42 43 51 53 58 57 55 52 52 52 38 41 45 40 37 36 36 38 37 30 32 34 36 37 33 33 33 32 30 27 25
28 29 36 37 38 38 39 37 37 32 35 40 44 46 48 57 62 56 45 48 54 37 38 36 39 40 42 41 41 44 36 34 35 38 43 40 40 33 33 30 28 26 25
20 21 21 26 26 19 27 29 32 32 31 30 36 40 39 51 57 61 55 53 50 45 44 47 50 47 49 51 47 45 48 41 39 47 48 44 47 39 34 35 30 27 27
21 11 14 9 10 16 16 20 20 17 19 30 28 32 33 44 50 54 55 50 41 44 52 59 53 53 51 46 42 49 53 48 51 52 52 44 40 41 41 41 40 36 28
14 23 18 8 8 7 7 14 23 19 22 29 28 28 31 32 36 44 45 41 46 50 53 47 46 38 48 53 50 56 55 51 46 50 45 44 43 42 42 40 38 31 27
12 15 13 16 10 18 22 15 16 20 27 27 28 30 32 35 35 41 47 47 49 50 50 44 45 47 44 45 44 46 50 51 52 47 45 46 45 48 41 36 37 33 29
12 13 14 15 16 15 11 14 17 18 15 17 16 8 18 33 29 37 42 40 39 41 42 43 43 34 34 36 33 31 41 44 43 41 40 38 38 40 31 34 35 34 30
13 14 15 16 17 17 17 17 19 19 20 23 27 27 26 21 22 29 23 20 29 26 30 26 40 43 44 31 30 36 41 37 35 35 47 53 39 32 39 34 33 33 30
17 18 18 19 20 20 21 22 23 24 25 26 27 27 28 30 29 31 33 34 36 33 36 38 33 32 32 28 28 28 29 31 24 27 45 39 33 36 38 33 33 32 30
21 22 23 24 24 25 27 28 28 29 30 31 31 32 33 34 35 35 36 38 40 41 40 41 41 39 39 35 29 30 27 25 28 30 39 38 31 32 32 32 32 31 31
25 26 27 28 30 31 32 33 34 36 36 37 38 38 39 39 40 40 42 42 44 44 44 44 44 42 39 37 34 35 35 34 35 31 40 44 40 34 32 32 32 31 31
37 38 40 41 42 41 41 41 42 41 41 41 42 43 44 45 46 47 47 47 47 48 48 47 48 47 44 41 42 39 40 33 44 37 38 41 46 43 38 35 33 32 31
39 41 42 42 42 43 43 43 43 44 45 46 46 46 45 45 47 50 51 51 51 50 50 50 52 50 49 46 43 42 46 42 44 39 40 44 45 44 44 39 36 33 31
39 38 37 37 37 38 41 42 43 44 45 46 48 49 50 50 49 48 48 50 51 52 52 53 54 54 51 44 49 39 45 45 46 46 42 54 43 49 47 39 37 35 33
39 38 38 38 39 39 41 43 44 44 44 44 45 47 50 52 51 50 50 49 47 47 48 52 55 55 53 48 44 53 45 51 48 53 49 50 51 45 37 39 42 39 35
38 38 38 39 40 41 41 42 42 43 42 42 41 41 41 41 41 40 43 45 46 42 41 45 51 54 55 52 46 51 52 52 54 59 56 54 55 53 51 45 45 41 36

GFSMA_700_spd_105.txt.gz
Wind_Speed
28 19 20 20 23 22 23 25 24 27 27 27 28 28 30 29 27 27 26 23 21 21 20 19 19 18 16 16 16 15 14 14 12 11 10 8 8 9 10 11 13 14 16
26 27 25 25 25 25 25 22 25 27 29 28 30 32 31 34 32 31 29 29 25 24 22 21 20 19 19 18 17 17 16 15 14 13 12 11 11 11 12 14 15 16 17
26 26 26 26 24 25 26 30 33 29 31 31 34 34 38 35 36 35 35 33 31 28 25 24 21 21 21 21 20 20 18 17 17 16 14 13 12 13 14 15 18 20 21
30 30 28 26 24 27 29 30 34 36 36 35 36 38 39 40 36 41 40 37 37 32 30 27 25 22 23 24 25 22 21 20 18 18 17 15 14 14 15 16 18 21 23
31 32 30 29 32 34 35 35 35 38 42 42 42 42 44 43 46 43 44 46 40 35 34 32 30 26 25 25 26 25 24 23 21 20 19 17 16 15 15 16 20 25 24
33 33 34 36 36 38 41 38 39 38 41 43 46 46 47 46 45 46 45 42 48 44 38 38 35 32 27 27 26 26 26 25 24 23 20 19 18 17 16 19 22 23 22
33 36 37 41 42 42 42 42 40 40 41 41 43 46 50 51 50 50 49 51 49 45 43 43 40 35 34 28 28 27 28 26 25 24 24 23 20 16 19 19 21 25 23
35 39 43 44 43 45 45 43 42 38 40 41 42 42 48 52 54 51 52 54 52 47 52 45 46 43 39 29 29 30 30 29 27 28 27 24 21 18 20 22 27 26 26
39 43 46 47 48 49 48 43 42 41 41 40 41 44 47 52 50 54 52 55 53 50 50 50 50 51 48 33 31 33 32 29 29 29 29 26 24 23 24 27 27 28 27
44 45 47 47 46 47 46 42 41 44 44 43 41 45 43 45 50 57 50 45 47 49 53 55 56 53 57 37 32 32 34 32 32 31 32 31 28 27 26 29 29 29 28
43 45 44 42 43 43 43 44 43 44 45 44 44 42 45 45 47 53 45 45 47 47 47 59 56 54 64 38 37 35 37 35 39 39 35 33 32 31 32 32 30 28 28
45 32 34 35 35 36 41 41 42 43 44 44 44 46 41 40 47 48 44 52 53 52 55 51 62 54 41 41 42 42 43 40 41 41 40 36 37 35 35 36 36 35 28
33 29 31 25 28 32 34 40 39 40 38 40 40 40 46 38 37 36 48 50 56 57 55 57 59 57 49 51 43 44 48 42 44 46 43 40 41 37 37 40 40 35 29
26 28 29 33 15 25 15 26 23 32 35 27 32 32 32 28 33 41 41 44 53 51 57 51 48 58 53 53 55 51 51 48 53 49 43 44 43 41 44 43 39 35 37
8 15 21 27 24 20 16 10 17 16 19 30 17 23 26 28 30 29 36 36 47 51 55 52 45 41 43 52 56 52 55 55 54 47 42 47 51 49 47 44 41 38 40
11 12 17 20 18 27 22 23 16 13 16 15 21 21 22 25 27 29 35 34 35 42 50 45 37 40 44 42 40 50 48 44 45 51 49 55 53 47 45 46 44 38 45
15 18 20 20 19 20 20 21 20 25 22 20 19 20 17 13 21 32 32 31 31 32 41 38 39 44 44 43 49 43 46 42 39 44 47 50 49 45 42 43 46 50 44
20 22 22 23 23 23 22 23 22 20 22 22 23 24 26 26 22 20 20 28 34 30 27 43 39 36 33 32 32 36 31 37 39 36 32 38 38 39 39 45 45 43 38
21 23 25 26 25 26 27 28 28 28 28 29 28 29 29 31 31 30 33 31 27 29 27 30 36 31 32 31 31 33 29 32 38 34 35 39 39 34 37 50 40 35 37
25 27 29 30 31 33 33 33 33 33 34 34 35 35 36 36 35 35 35 33 33 37 37 37 37 38 39 37 39 36 34 33 31 28 29 26 31 33 46 46 33 32 37
27 28 30 31 33 34 35 36 36 37 39 39 41 42 42 41 41 40 41 40 40 42 43 44 45 46 46 43 42 39 40 34 34 32 27 28 28 34 41 37 33 39 39
33 34 35 35 36 36 36 38 39 38 37 37 37 38 40 44 46 46 47 46 45 46 47 48 48 49 49 47 45 44 42 39 38 37 34 38 35 34 42 42 37 33 35
39 39 39 39 39 40 40 41 41 42 42 42 42 41 40 40 40 42 44 47 49 51 52 50 50 49 49 48 49 49 47 45 46 40 36 41 43 41 37 38 40 44 41
39 39 39 40 41 41 42 43 44 44 43 43 44 45 47 45 44 44 43 43 42 43 45 48 52 55 54 51 49 49 49 50 51 48 41 44 42 48 45 44 42 47 45
40 42 42 41 41 40 42 43 44 44 45 45 45 45 46 46 46 47 48 47 45 40 38 40 42 46 48 50 50 48 49 49 52 50 48 53 47 49 49 39 52 46 49
43 41 40 40 41 42 43 43 46 47 48 47 46 45 45 45 44 44 46 48 49 48 47 42 38 38 40 45 47 48 47 49 49 54 52 48 52 53 48 45 56 49 48

GFSMA_700_spd_108.txt.gz
Wind_Speed
27 26 30 30 25 23 21 22 25 23 23 24 24 25 27 24 24 27 28 26 23 23 22 21 19 18 17 17 16 16 16 15 14 13 12 10 9 7 7 7 8 10 12
33 31 27 27 31 30 30 27 26 26 25 24 25 26 25 27 28 28 30 30 30 25 26 25 23 21 20 18 18 17 17 17 16 15 15 13 11 10 10 10 10 12 14
34 31 29 28 27 26 24 24 27 28 29 28 29 29 34 32 32 31 32 33 30 32 29 29 27 25 23 22 22 20 19 19 18 18 17 16 15 13 12 12 12 14 16
33 31 30 28 27 29 27 26 26 28 29 31 33 33 35 32 36 36 34 36 36 35 32 32 30 29 27 26 25 24 22 21 20 20 20 20 18 16 15 14 14 14 18
35 34 34 30 30 29 30 29 30 34 35 36 37 36 39 42 42 41 41 38 38 39 38 36 42 33 31 29 28 29 29 26 24 23 23 22 20 19 18 17 15 17 18
38 36 35 33 34 35 35 34 36 37 40 41 40 41 42 45 47 48 48 46 43 42 43 41 39 38 32 33 32 32 31 29 27 26 25 24 22 21 21 19 17 19 16
37 38 36 36 37 36 37 40 42 42 42 41 44 44 43 44 48 50 52 50 48 44 47 44 43 45 40 41 34 33 35 31 29 29 26 25 25 24 23 21 18 18 20
36 37 38 37 38 39 42 44 43 44 46 43 43 43 46 46 46 45 46 48 50 49 50 49 46 44 45 45 40 35 38 36 32 28 29 30 28 27 25 22 20 19 21
39 35 36 37 41 44 46 48 48 47 48 46 43 44 45 46 45 44 44 47 46 45 48 47 48 49 47 50 47 38 45 39 35 34 32 33 32 30 28 26 23 21 21
42 35 38 43 45 48 50 50 50 47 45 46 44 45 46 45 47 48 48 43 39 42 45 44 48 50 48 50 50 43 46 44 41 38 35 34 34 32 33 31 28 27 27
33 36 41 44 46 47 51 49 47 49 46 45 46 44 44 44 45 48 48 48 46 44 47 48 42 44 46 49 52 53 50 50 48 44 42 39 37 36 35 33 33 30 29
36 40 43 44 47 51 45 44 45 42 42 46 45 46 48 49 49 47 49 49 46 48 52 46 38 37 43 48 54 58 57 50 57 52 45 43 41 39 38 35 32 32 29
37 40 44 46 46 39 35 29 35 38 41 43 45 47 47 48 48 48 49 48 48 48 41 49 43 44 44 46 49 55 59 61 58 57 51 43 41 44 42 35 39 33 37
37 33 32 29 26 34 37 34 28 27 29 42 43 36 43 39 41 48 42 39 50 50 41 40 45 47 45 43 49 54 60 46 49 51 47 47 46 45 45 44 37 38 35
16 12 14 18 19 21 25 37 30 40 34 24 21 32 30 33 28 31 31 33 33 34 39 36 42 49 47 47 47 50 53 47 47 49 50 50 53 53 46 48 47 38 36
9 13 16 19 22 24 26 26 26 32 27 24 19 21 24 22 29 25 33 27 31 34 41 41 40 47 47 47 41 45 41 50 53 60 59 57 54 58 56 50 47 45 41
15 19 22 23 25 27 28 28 26 25 27 28 23 22 22 26 27 24 25 24 34 36 39 34 34 33 35 35 36 34 40 40 39 40 45 48 42 41 46 49 48 47 46
18 21 23 24 26 27 28 29 29 28 26 27 27 27 28 27 25 27 25 23 20 16 21 22 27 23 33 30 37 29 27 33 36 42 42 41 37 38 42 44 43 46 44
21 23 25 27 29 30 29 31 31 31 31 31 31 32 32 31 31 30 34 33 38 31 30 30 33 23 20 34 33 28 31 28 29 33 39 38 37 37 35 36 39 38 38
28 29 31 32 34 35 35 35 34 33 34 34 34 35 35 35 36 36 36 38 38 38 37 38 34 30 29 29 31 36 35 32 32 31 29 34 36 33 34 35 40 42 40
29 30 31 32 33 33 33 34 34 34 35 33 32 32 34 36 37 38 40 41 41 41 41 41 40 41 41 40 39 39 40 40 40 37 36 33 32 29 29 29 28 31 40
31 32 32 32 31 32 33 34 36 36 36 37 37 36 35 34 36 37 39 39 40 41 42 45 45 45 45 44 44 45 46 46 44 40 40 36 35 33 28 27 28 41 33
35 35 35 36 37 38 39 38 37 36 35 35 36 36 37 37 38 38 38 36 38 40 41 41 43 45 48 48 47 47 46 47 46 42 42 42 42 40 36 33 29 33 39
38 39 38 38 38 37 38 39 39 39 39 39 39 40 40 38 38 40 40 39 38 37 38 40 42 42 43 42 44 46 48 50 50 48 44 46 45 45 42 39 34 36 32
39 40 40 40 39 37 38 39 40 40 41 42 41 41 41 42 42 42 44 40 39 36 37 38 39 39 37 37 40 43 42 45 49 49 46 47 47 52 45 46 43 40 42
40 37 35 36 37 38 39 39 40 42 42 42 41 40 40 41 42 42 43 43 43 40 39 36 35 35 37 37 36 38 40 43 46 49 46 49 47 46 51 54 46 42 45

GFSMA_700_spd_111.txt.gz
Wind_Speed
31 30 31 27 25 25 22 23 20 23 21 24 24 24 23 23 23 24 24 24 23 22 22 21 20 20 20 19 19 18 17 16 15 15 15 15 13 12 11 10 10 10 10
33 32 32 29 32 27 26 26 27 25 24 24 26 25 25 26 25 26 26 27 26 26 24 23 23 23 21 22 20 20 19 18 17 17 18 18 17 16 14 14 13 13 13
35 35 36 35 33 31 30 30 27 27 26 26 26 29 26 26 28 31 29 28 27 29 28 27 26 28 25 23 24 23 23 21 21 20 21 21 21 20 18 17 16 15 15
36 37 39 37 32 32 31 31 30 29 29 26 27 28 30 31 31 33 34 33 29 32 33 32 33 31 28 28 26 26 27 26 25 24 24 23 23 23 22 20 19 18 16
39 37 36 35 33 34 34 34 34 33 31 30 32 33 34 36 36 37 38 39 38 39 38 38 35 34 35 34 32 30 29 29 29 27 26 26 25 25 25 24 22 21 19
41 39 39 36 37 37 36 35 34 35 34 34 36 40 42 41 41 42 42 43 45 46 43 42 40 40 40 40 37 36 32 32 32 32 31 30 29 28 26 25 25 23 20
43 42 40 40 40 36 35 35 37 40 40 40 45 45 46 46 47 45 45 46 47 50 50 49 47 46 41 39 42 40 33 36 35 32 32 33 32 31 29 28 27 26 23
38 41 39 37 36 36 36 37 38 41 44 45 47 47 51 52 50 46 45 47 47 46 47 47 49 48 49 43 41 43 43 41 39 36 34 34 36 34 31 31 29 27 25
35 37 34 36 34 34 36 37 39 43 48 48 51 52 53 52 50 47 44 44 41 42 43 43 43 45 47 46 43 44 51 43 40 42 38 36 36 38 35 32 32 30 29
32 31 39 39 36 36 38 40 44 47 49 52 52 51 51 51 51 52 49 48 46 44 41 42 42 42 42 43 43 45 49 47 45 43 44 40 41 38 38 36 36 35 34
32 31 35 40 38 35 40 43 46 49 53 54 52 49 48 47 49 51 53 51 49 46 43 40 41 40 37 37 41 43 50 51 50 47 50 43 44 47 39 42 42 41 39
25 23 25 28 33 38 41 44 48 52 54 52 47 47 47 45 50 51 53 53 53 51 48 45 44 42 40 43 40 40 43 50 46 51 47 51 52 53 47 47 41 40 40
30 23 27 32 36 38 39 42 41 45 39 37 35 35 41 47 45 48 53 55 55 51 52 49 46 41 41 38 38 34 38 44 54 57 56 55 55 51 55 51 46 41 39
25 28 31 35 36 36 38 32 29 29 36 38 29 31 35 51 51 53 58 44 51 45 48 44 41 42 43 40 35 38 35 46 46 45 48 51 60 58 60 58 57 56 49
22 27 26 22 19 17 21 28 29 27 31 30 41 37 44 38 33 35 35 41 43 26 28 31 37 29 36 33 32 36 38 36 38 39 48 52 53 59 51 53 58 43 40
12 12 13 18 22 23 24 25 29 30 32 32 32 33 38 32 22 21 35 26 28 30 31 34 30 27 29 29 41 44 47 48 40 42 42 49 51 47 50 60 61 49 48
17 18 20 23 24 26 27 29 30 31 31 31 31 31 30 28 28 30 30 29 35 34 35 34 33 32 33 35 36 43 50 50 44 50 48 46 45 47 49 51 51 54 54
19 20 22 25 27 28 29 31 32 33 34 34 34 35 33 31 29 30 29 29 32 29 29 29 23 21 19 27 35 37 34 31 38 44 40 43 44 43 46 54 58 57 49
22 24 26 28 29 31 31 32 32 32 33 33 33 33 33 34 33 33 33 33 33 33 36 30 28 28 26 26 29 29 30 38 37 38 37 40 39 38 45 43 45 44 42
27 29 31 32 33 34 34 33 32 31 30 30 31 31 32 32 32 32 33 36 36 37 37 37 37 36 36 35 38 32 32 35 28 37 39 32 33 36 41 40 41 39 36
29 30 30 31 32 32 34 33 33 34 35 34 33 33 32 32 33 33 33 33 33 35 37 39 41 39 38 38 39 42 36 36 38 36 35 33 34 32 31 36 39 36 37
30 31 33 34 35 36 36 35 35 33 33 35 35 35 34 33 33 32 32 32 34 35 35 36 37 39 40 43 42 42 42 43 47 41 40 37 37 37 35 31 30 31 30
34 34 33 33 32 33 32 31 31 31 31 32 33 33 33 35 36 37 37 34 32 34 36 37 37 37 37 39 41 43 45 47 46 45 44 44 42 42 41 37 35 32 27
34 34 35 35 34 34 35 34 34 33 31 31 32 33 34 33 34 36 39 39 36 35 35 36 38 37 38 36 39 42 44 46 49 48 47 50 45 43 41 40 40 33 31
36 35 35 33 32 32 34 34 35 34 33 33 33 33 36 38 38 39 41 42 37 33 36 38 38 38 36 37 37 40 40 45 46 44 44 51 48 48 45 44 43 44 40
35 34 31 31 32 32 31 30 31 34 35 36 37 39 40 39 38 37 39 42 44 39 36 35 37 37 36 37 37 39 39 41 43 45 41 46 47 49 50 47 46 47 46

GFSMA_700_spd_114.txt.gz
Wind_Speed
36 35 33 32 29 28 26 23 24 24 22 22 22 23 24 25 25 25 25 26 25 23 23 22 21 20 18 17 16 16 18 19 19 19 18 19 19 18 17 16 15 14 13
38 38 36 33 33 30 32 31 24 27 27 26 24 24 25 25 26 27 26 27 29 27 26 26 25 24 22 21 19 17 18 19 20 21 21 21 21 21 21 19 18 17 17
38 38 37 35 33 33 35 35 31 30 29 27 27 27 25 25 27 27 27 29 30 29 30 28 28 27 27 26 24 21 20 20 22 23 24 24 24 25 24 23 22 21 19
39 39 38 37 35 36 37 40 36 34 34 33 32 30 31 30 30 30 31 31 33 31 31 32 30 31 29 31 29 28 25 23 23 25 26 27 27 27 27 26 25 23 22
43 40 40 40 39 40 40 39 38 36 35 35 35 35 33 32 32 33 34 36 38 38 37 34 40 34 33 34 34 33 31 31 29 27 27 28 29 28 29 28 27 26 25
45 42 43 41 40 40 39 39 38 39 38 37 38 38 38 37 37 39 41 41 41 42 44 43 43 42 40 35 38 37 37 35 36 34 31 30 31 31 30 30 30 29 28
41 46 42 42 42 38 42 43 41 40 39 39 41 40 43 45 46 47 46 46 47 47 45 46 47 47 46 45 41 42 42 41 41 38 36 34 32 35 34 33 32 32 31
33 39 42 43 44 42 41 41 42 41 39 37 40 43 51 54 54 54 53 51 50 51 51 48 47 47 48 48 48 48 46 47 42 43 40 39 37 36 35 35 35 35 33
29 32 25 29 47 29 44 38 40 43 40 35 39 44 50 55 55 54 52 52 51 48 47 47 46 44 44 45 45 45 48 49 44 44 45 45 39 40 38 37 38 38 35
21 25 33 31 19 34 39 27 31 32 35 42 42 44 48 52 58 61 55 52 49 50 48 46 46 44 43 45 44 44 46 48 47 46 49 47 42 44 40 40 39 40 39
17 24 28 33 42 35 26 31 30 29 37 42 46 50 51 53 53 55 61 54 51 51 50 47 45 46 44 45 44 45 43 42 44 47 48 52 49 49 45 45 42 40 40
19 15 24 28 36 36 31 31 34 37 40 43 47 51 53 48 41 41 46 53 51 50 52 52 49 47 46 44 44 44 43 41 44 44 51 55 55 53 48 49 44 44 42
18 16 18 23 26 30 34 36 36 38 39 38 38 34 37 43 38 40 44 47 52 56 53 53 50 46 46 46 45 45 43 46 47 50 50 50 55 57 51 54 50 48 47
16 19 20 21 23 24 28 31 32 32 33 30 31 31 32 35 37 32 41 45 50 54 53 51 46 43 47 43 42 45 41 43 43 43 45 50 54 52 53 51 50 55 53
15 14 15 20 22 22 19 18 19 22 26 26 28 31 36 35 33 40 42 45 40 33 26 31 26 28 32 37 45 41 46 46 41 46 45 46 43 53 53 58 58 53 54
17 17 18 19 21 22 23 25 28 29 30 32 33 34 36 36 36 35 30 42 35 26 22 23 23 31 31 33 34 37 34 38 38 42 42 40 45 41 51 47 50 53 54
17 18 20 21 23 24 26 28 30 31 33 34 35 36 37 37 36 36 34 32 36 35 32 32 29 28 32 40 36 41 40 37 35 36 45 48 41 37 45 42 48 51 45
21 22 24 26 27 29 30 31 33 34 35 36 37 37 37 37 36 35 35 34 32 33 35 35 34 32 36 40 42 46 39 41 46 47 46 42 47 43 45 45 50 51 49
26 28 30 31 32 33 33 32 32 32 33 34 34 34 34 34 34 34 33 33 33 33 36 38 34 34 34 30 26 23 28 35 40 40 40 37 40 46 51 50 46 46 51
28 30 32 32 32 33 34 34 34 34 34 35 35 36 35 35 36 37 36 35 34 34 36 37 38 37 34 35 38 35 30 29 32 42 46 44 42 42 42 46 43 46 46
32 32 32 33 34 34 34 34 34 33 33 34 35 35 35 34 33 33 34 35 35 36 36 38 38 37 37 36 41 40 38 40 39 36 34 37 43 35 37 41 41 41 40
32 33 33 33 34 35 34 33 32 31 32 32 32 32 33 34 34 35 34 33 35 36 38 39 38 40 37 39 39 40 42 42 41 46 43 41 38 38 41 36 36 33 32
33 33 33 34 33 33 32 31 31 30 30 29 30 30 30 31 32 32 34 35 35 35 37 39 41 40 39 39 41 40 41 43 45 43 45 47 46 45 41 39 37 34 33
34 34 34 33 32 32 31 31 31 29 28 27 28 29 30 31 33 36 38 38 38 38 38 39 40 41 43 40 42 42 41 43 44 41 45 50 44 45 48 43 35 35 35
34 34 34 33 32 31 31 30 28 28 28 29 30 31 33 34 35 37 40 41 41 39 38 40 41 42 40 41 41 44 41 44 45 42 38 50 43 48 47 43 39 39 37
34 34 33 33 32 32 29 28 30 32 34 36 35 35 36 39 39 40 40 40 41 39 38 38 39 40 42 41 39 41 43 44 45 43 41 44 41 45 47 46 44 44 44

GFSMA_700_spd_117.txt.gz
Wind_Speed
40 41 39 38 37 34 31 29 27 26 25 26 28 28 28 27 26 27 27 28 27 26 25 25 25 24 22 21 18 16 16 16 17 18 18 19 20 20 21 21 20 19 17
45 43 42 41 41 38 35 33 30 30 29 29 28 27 26 28 28 28 27 29 29 29 27 27 28 28 28 26 23 21 19 18 18 18 19 20 21 22 23 23 22 22 20
47 47 45 41 39 38 38 37 35 35 34 32 32 32 31 31 31 30 28 26 29 31 29 28 29 30 31 29 29 26 23 22 21 21 21 22 23 24 25 25 25 25 23
44 46 46 44 39 39 39 39 37 39 38 34 34 35 35 36 34 36 35 33 34 31 30 31 33 31 31 31 31 31 29 27 26 26 25 23 26 25 26 28 28 28 26
43 45 45 45 42 40 39 40 41 41 42 39 38 38 38 38 37 36 34 32 32 33 33 33 35 37 37 36 33 33 35 33 31 30 29 28 29 29 29 29 29 30 29
40 40 43 45 43 43 38 40 42 42 43 44 43 40 39 40 39 38 37 36 36 38 39 40 39 39 41 43 40 40 39 39 37 35 34 34 31 33 33 32 31 30 31
35 36 36 40 41 32 41 35 40 41 43 41 40 42 43 42 41 40 38 40 43 45 47 49 51 50 47 46 46 46 43 44 38 40 42 39 37 34 36 36 35 32 32
28 29 29 32 38 44 42 32 47 47 44 46 44 44 47 45 43 43 44 46 50 53 56 56 56 57 54 51 49 49 48 47 45 45 45 44 43 39 39 41 36 37 37
19 21 24 28 29 31 41 45 30 28 39 35 42 42 46 47 47 49 48 51 52 52 53 52 51 52 53 52 50 50 50 49 47 49 51 49 47 47 46 42 42 38 38
17 19 20 24 30 28 28 36 48 39 35 33 34 32 38 37 43 50 50 52 55 55 54 53 52 50 48 47 48 48 46 45 47 48 48 52 50 50 47 44 45 41 40
14 14 20 24 25 23 25 22 31 35 37 35 33 34 35 39 43 51 58 59 57 56 55 53 50 46 46 46 44 45 47 46 44 45 45 50 53 55 46 51 48 45 43
14 18 16 16 19 29 28 25 24 23 25 29 33 36 37 40 41 48 55 55 53 47 44 40 43 40 40 38 43 46 46 46 48 46 47 48 50 56 54 52 51 51 45
18 20 20 19 19 21 25 27 26 30 31 30 32 34 36 36 37 37 42 44 49 50 46 42 39 37 39 43 41 46 47 47 48 49 47 48 50 51 54 54 54 55 53
14 16 16 17 19 22 25 27 31 27 27 25 25 27 31 34 34 35 37 39 38 45 51 46 46 42 39 42 49 46 50 52 49 50 51 53 51 56 56 55 55 58 54
15 15 14 14 15 17 21 23 23 25 28 29 30 32 33 35 37 38 40 41 44 45 44 37 40 35 36 47 48 46 46 49 56 50 51 49 54 60 59 60 58 56 54
20 20 21 21 22 23 24 25 26 28 30 32 33 35 36 37 38 40 40 40 42 45 49 37 35 38 35 29 43 43 52 41 47 49 46 51 51 53 53 48 55 51 56
19 20 22 24 25 26 27 28 30 31 32 33 35 35 37 37 38 38 39 39 40 42 45 37 37 36 47 38 28 35 39 39 43 45 55 56 56 52 47 47 52 50 48
23 25 28 30 32 33 33 33 32 32 33 35 35 36 36 36 37 38 38 37 37 38 42 40 35 37 38 40 40 39 42 43 44 39 51 35 45 44 43 50 45 45 45
24 28 30 32 32 33 33 34 34 35 36 37 38 37 37 36 36 37 38 38 39 38 41 43 38 37 36 38 39 39 42 42 48 46 41 42 44 39 34 49 49 50 40
29 32 33 33 33 33 32 33 33 33 34 35 36 37 37 37 36 36 36 36 37 37 38 40 40 39 39 37 38 37 35 44 38 36 36 33 36 38 38 44 49 45 45
31 33 34 34 34 34 34 34 34 33 33 33 34 35 36 36 36 36 36 35 36 35 36 38 40 39 39 39 40 38 37 37 40 45 34 31 32 36 40 38 37 40 44
33 34 35 36 36 36 36 35 34 33 32 31 31 32 32 32 33 33 34 35 35 36 36 37 36 38 38 40 42 41 41 39 40 37 46 40 40 37 39 46 47 46 47
33 35 36 36 36 36 36 35 34 32 32 29 27 28 29 31 32 33 34 34 35 36 38 40 41 41 41 42 44 44 42 44 43 37 43 46 42 45 44 41 42 41 41
34 35 36 35 35 35 34 33 33 31 27 27 29 32 35 36 36 37 37 37 37 36 37 38 40 41 42 42 45 47 47 46 44 40 42 47 39 44 45 50 48 42 42
34 35 35 36 34 34 33 32 31 27 28 29 32 33 35 35 35 37 40 40 39 36 36 37 38 38 39 40 41 45 45 47 49 43 40 48 43 44 42 42 45 51 46
34 36 36 36 35 33 32 32 28 29 30 33 33 34 35 37 37 38 40 42 42 39 38 35 34 35 36 39 40 40 43 45 46 48 40 44 44 44 43 40 41 43 43